GFSSW_925_spd_000.txt.gz
Wind_Speed
9 9 9 8 8 10 10 11 11 13 15 16 15 15 14 13 11 10 10 14 18 8 6 8 13 11 3 0 3 4 3 2 4 5 5 3 7 4 3 5 5 3 3 5 11
11 11 11 10 10 11 11 11 12 13 14 16 15 14 13 11 10 13 20 20 21 23 12 5 6 9 2 3 2 4 4 8 6 4 4 5 2 6 6 7 5 4 4 5 4
10 11 11 11 11 11 12 12 11 12 13 15 14 14 13 9 4 8 24 29 24 23 16 6 5 7 5 3 4 5 6 5 5 7 3 4 7 3 4 7 6 9 9 5 2
11 12 10 11 11 11 11 10 12 12 12 12 14 13 13 10 7 4 5 22 29 22 17 6 5 8 6 7 5 3 7 5 4 2 2 4 5 7 7 10 10 9 6 5 7
11 12 11 11 10 9 10 10 11 12 12 12 14 13 9 6 10 7 5 9 22 23 19 9 6 6 8 7 5 4 4 3 7 9 7 4 9 8 10 13 8 9 9 10 8
13 12 11 10 11 11 11 11 10 14 12 13 14 14 4 14 12 26 24 18 7 24 19 13 8 6 6 6 10 6 7 8 5 10 5 6 9 4 6 5 9 8 11 9 7
14 13 12 12 11 12 13 12 10 12 15 14 13 12 7 16 4 3 7 19 13 22 15 20 15 6 6 3 5 3 3 7 6 5 7 6 13 12 12 2 9 10 10 4 6
14 14 12 13 15 15 14 14 13 12 13 15 12 10 7 2 27 17 8 5 10 20 25 14 26 2 3 2 4 6 2 4 4 2 4 6 17 11 8 5 7 8 7 5 7
13 13 13 16 16 16 17 15 15 13 10 9 6 6 6 5 16 19 19 7 5 19 12 15 5 4 3 5 4 3 4 6 7 4 3 4 8 8 2 5 5 3 4 4 7
16 16 16 17 17 17 19 13 10 8 7 4 1 2 7 4 6 12 21 20 4 10 7 8 5 5 4 5 7 6 4 3 5 2 2 5 13 17 5 1 3 5 3 5 7
17 19 17 19 18 19 18 8 5 1 7 7 9 3 2 13 11 12 16 11 4 5 12 9 9 12 13 13 4 6 4 7 4 4 2 7 8 15 8 5 4 5 4 4 7
16 19 19 17 16 11 25 5 7 5 5 13 3 13 13 1 4 8 22 9 6 9 14 8 16 14 7 7 4 3 3 5 6 1 3 7 10 12 7 6 4 8 6 4 5
13 16 18 17 10 13 24 20 14 4 2 6 11 4 5 10 7 13 18 5 5 13 20 11 4 15 13 6 10 3 5 4 5 7 4 6 7 6 2 2 6 6 4 3 6
13 14 15 14 4 7 9 21 9 9 4 7 10 7 9 2 5 18 21 9 5 17 20 6 4 13 16 11 6 9 6 3 3 4 3 5 6 6 5 4 6 7 6 6 6
14 14 13 8 5 5 5 26 19 6 1 11 8 6 11 7 5 14 25 9 9 9 9 7 14 11 15 17 9 4 5 6 2 3 3 1 2 7 2 5 6 7 6 5 6
15 14 9 7 15 2 14 25 12 3 5 9 8 10 11 11 4 9 9 1 2 8 3 3 5 9 7 4 11 6 5 2 3 2 2 6 7 6 4 6 4 4 6 7 6
16 15 10 10 6 14 26 7 3 4 3 7 7 10 13 7 10 10 16 15 9 12 14 1 4 3 6 6 3 4 7 2 1 1 6 1 2 8 4 5 9 12 10 8 6
17 14 14 18 17 24 7 2 6 3 8 6 7 12 7 9 8 12 13 11 12 1 13 7 5 8 6 6 6 7 8 5 6 4 4 2 6 5 3 6 7 9 10 8 7
17 11 7 18 30 27 5 3 4 5 7 11 11 8 4 10 2 10 17 11 13 11 10 8 5 2 5 5 12 6 8 4 5 1 1 3 7 8 4 6 3 10 11 9 8
5 3 4 15 34 18 3 4 7 6 12 15 7 5 9 15 8 5 8 9 11 11 7 7 5 0 2 6 3 7 8 2 2 3 4 4 5 5 5 2 3 8 10 8 6
4 1 5 26 24 5 3 6 4 13 10 7 6 6 7 8 5 4 8 3 10 9 4 6 4 2 6 6 8 2 4 4 4 3 4 1 6 5 5 4 8 7 6 8 8
2 1 11 25 5 3 6 5 6 11 1 2 4 6 8 8 5 6 8 6 9 8 8 4 6 6 3 1 5 4 7 6 5 4 1 3 6 2 5 4 7 6 6 7 7
2 2 10 6 3 2 2 2 3 3 1 3 3 4 9 6 6 4 5 3 7 7 9 8 2 5 2 1 2 4 4 4 5 3 6 6 5 3 6 6 6 8 8 7 6
2 2 2 3 2 2 3 4 3 1 3 4 5 7 10 4 2 6 6 1 3 3 5 7 3 6 9 4 6 5 5 5 6 4 5 6 5 3 3 5 4 4 3 6 7
2 3 3 4 4 5 4 6 3 5 7 3 3 14 7 5 4 5 3 4 4 5 4 4 4 3 3 4 4 6 9 11 9 9 7 5 8 3 2 4 4 3 2 5 6
3 3 1 1 1 5 4 5 4 3 4 1 7 4 4 4 4 8 8 4 5 3 3 3 2 3 2 3 3 2 4 8 4 4 2 5 4 2 2 3 3 2 2 4 6
2 1 2 0 2 3 3 5 5 5 3 4 7 6 9 1 1 4 6 7 6 7 3 5 5 3 3 2 2 4 8 8 5 4 7 7 6 4 3 5 3 3 2 4 5

GFSSW_925_spd_003.txt.gz
Wind_Speed
7 7 7 7 7 7 7 7 8 9 11 15 16 14 14 13 11 11 7 11 11 13 12 16 7 14 4 2 3 2 2 4 4 5 4 2 4 2 2 5 5 3 3 4 11
8 7 8 8 8 8 9 9 9 10 11 12 14 14 11 12 13 17 18 19 18 19 11 7 4 11 3 3 3 3 4 9 5 4 4 3 3 3 3 3 4 5 5 6 9
9 8 7 8 8 9 10 10 10 10 9 11 12 13 11 11 4 7 18 25 26 21 17 10 7 7 6 3 5 5 5 5 4 6 5 4 4 2 2 6 5 10 12 10 3
9 9 8 9 9 10 9 9 10 11 10 11 11 12 11 11 8 7 5 14 24 23 19 10 7 8 7 7 5 3 6 5 3 3 2 3 3 6 7 11 7 8 8 7 11
11 9 9 9 11 9 9 9 9 10 11 10 10 11 10 5 9 8 3 8 4 23 20 16 10 6 11 10 5 5 4 4 6 6 6 3 10 8 10 15 11 8 6 10 10
11 10 9 10 11 12 12 11 10 10 12 11 9 12 6 13 9 18 23 18 9 18 21 18 8 7 6 7 15 8 10 11 3 6 4 6 8 4 18 5 8 4 9 11 7
12 12 12 10 13 13 12 12 11 11 12 11 10 14 7 12 3 3 7 10 16 11 18 23 18 8 8 6 4 5 4 3 4 3 6 5 9 8 15 5 6 7 7 7 8
14 14 14 10 12 13 14 14 14 13 11 9 7 9 6 3 17 23 5 7 8 13 23 20 19 7 4 6 4 10 3 9 2 2 3 4 10 7 8 1 4 4 5 7 8
14 15 13 11 14 16 15 16 15 15 11 6 5 4 5 7 13 22 22 8 6 10 20 15 8 7 4 7 4 2 5 6 6 6 5 6 7 4 2 4 4 2 5 6 7
13 16 16 15 15 18 17 13 12 10 7 7 3 3 3 5 7 8 15 18 3 9 7 9 7 8 8 9 11 7 7 3 5 2 2 4 12 14 7 6 5 4 4 6 6
14 17 18 17 19 18 18 7 6 4 8 6 7 3 2 15 8 9 12 12 3 8 10 14 11 15 17 12 5 7 7 11 2 2 1 4 6 13 5 4 4 5 6 6 6
14 16 17 16 18 17 22 7 7 6 4 14 7 14 8 3 5 4 15 9 7 7 11 11 14 12 9 8 7 5 5 5 3 1 3 5 13 12 3 4 4 10 8 7 6
13 13 15 16 13 16 15 15 15 7 2 4 17 7 4 13 4 6 13 9 9 11 18 17 7 15 12 7 9 4 6 4 4 3 1 5 6 4 2 2 4 6 7 7 9
12 12 12 12 7 2 3 19 19 12 0 6 10 7 7 7 5 12 22 12 7 15 17 11 6 16 14 12 9 9 4 2 2 4 2 3 5 5 4 1 4 6 8 9 9
13 12 10 9 2 3 8 24 22 8 3 8 8 1 10 10 6 6 25 11 9 11 10 6 14 18 16 15 9 4 5 3 0 3 1 2 2 6 2 3 6 8 6 8 8
13 12 9 8 10 8 7 29 13 4 5 8 8 9 14 4 5 12 12 9 4 8 15 3 3 9 8 8 9 9 7 5 3 3 3 5 5 5 3 4 5 4 7 9 9
13 12 12 11 3 12 30 11 3 4 2 7 5 10 11 7 3 10 16 17 6 10 18 3 3 4 5 9 3 4 6 2 1 4 4 2 2 8 3 4 9 15 13 11 11
12 12 13 17 12 33 18 2 7 5 5 2 6 12 7 9 8 11 16 14 10 2 11 5 5 8 6 6 6 5 6 4 5 4 2 3 5 5 3 3 3 7 11 11 11
10 10 10 19 26 25 5 3 3 3 7 9 11 12 5 11 6 9 11 12 10 6 7 12 3 2 9 4 9 4 5 4 4 2 1 3 5 7 1 3 2 10 13 13 11
4 3 4 14 35 16 2 4 5 9 11 13 5 5 9 13 2 9 12 12 12 15 6 4 5 4 4 5 4 6 6 3 1 4 3 3 4 4 5 4 3 8 14 9 8
5 2 6 24 25 3 3 5 6 9 12 9 5 6 7 7 5 6 16 6 10 18 5 6 4 1 6 5 9 4 3 1 3 2 3 1 4 5 4 3 6 9 10 11 10
2 2 6 29 6 3 3 5 7 16 7 6 6 5 9 9 8 9 10 6 14 13 8 7 5 4 3 1 3 5 8 11 4 3 1 2 5 1 5 5 6 9 8 8 7
2 2 12 7 4 8 5 9 8 7 6 6 5 4 7 10 8 5 9 11 15 17 9 6 2 6 4 2 4 5 4 4 4 3 6 5 4 1 3 4 4 9 6 6 7
2 3 2 4 2 3 3 3 5 2 1 1 3 6 9 10 2 8 7 5 10 19 7 4 3 5 8 5 6 5 4 4 6 4 5 6 5 3 1 5 5 5 6 7 7
2 5 5 5 6 10 3 9 5 5 3 2 4 7 10 5 4 6 4 3 3 10 3 2 3 3 1 2 6 8 10 12 10 11 10 7 9 6 4 6 6 3 4 5 7
2 3 0 2 2 7 6 4 14 3 5 6 8 14 7 7 6 10 9 5 8 2 3 3 3 2 2 2 4 4 6 11 10 3 8 5 7 5 3 5 5 4 5 5 6
3 3 2 2 2 4 5 5 7 8 4 2 11 9 5 5 5 6 2 8 7 7 4 4 5 3 2 2 4 3 9 10 7 5 10 11 9 7 4 7 6 5 5 5 5

GFSSW_925_spd_006.txt.gz
Wind_Speed
6 6 6 6 6 5 5 4 5 6 5 9 14 14 14 13 11 11 13 8 8 13 9 9 6 12 9 5 4 2 7 11 14 9 3 2 5 4 6 10 7 6 6 7 6
6 6 6 5 5 5 6 6 6 7 9 10 10 12 14 11 13 17 16 16 16 13 11 8 10 15 11 9 6 10 11 16 9 9 7 3 9 10 8 11 12 8 6 6 9
8 6 6 5 4 5 5 6 7 8 8 9 11 12 11 8 8 9 20 25 23 15 13 11 8 12 19 12 13 12 17 12 10 9 6 7 11 4 11 12 7 13 14 12 16
10 8 6 5 5 5 5 5 6 7 8 9 9 9 10 11 7 5 7 3 17 18 16 15 10 9 16 17 16 13 16 13 11 7 6 10 9 13 15 20 16 16 14 12 10
13 11 8 7 6 6 5 5 6 8 9 10 9 9 10 6 10 6 2 7 4 15 21 16 16 17 20 20 17 20 15 14 13 11 11 10 14 17 19 22 18 16 10 10 11
14 12 9 8 8 7 6 8 9 9 10 11 10 11 8 13 9 12 16 13 4 10 19 21 11 19 15 20 23 13 18 15 13 13 10 12 16 4 21 18 16 11 12 8 7
15 15 11 9 9 11 7 9 10 11 10 10 9 12 10 15 6 5 6 12 13 9 19 24 27 12 15 18 19 20 13 15 16 15 13 7 18 19 18 13 11 7 3 2 4
16 17 14 13 11 10 8 10 13 13 9 5 8 8 7 8 20 15 9 5 10 17 14 20 21 14 8 15 16 21 17 17 18 13 11 9 17 11 2 0 2 0 2 3 6
17 17 16 13 13 12 11 12 15 15 11 8 7 7 6 4 18 19 21 12 4 12 15 11 15 7 15 12 13 17 16 22 17 13 13 12 13 6 6 11 12 6 3 4 6
17 18 17 16 15 15 13 12 15 10 9 9 3 5 8 8 9 14 14 20 8 12 9 11 8 10 12 13 20 16 19 12 18 12 11 11 17 14 10 9 8 6 5 6 7
17 18 16 16 17 17 13 3 4 4 11 9 10 6 2 15 6 10 11 17 9 9 12 19 12 19 28 17 16 18 18 14 13 7 6 13 16 14 16 9 9 8 9 8 8
16 17 15 16 17 15 14 5 5 4 4 14 5 19 3 8 6 11 13 15 12 16 18 16 23 24 15 19 19 20 16 16 12 6 6 13 16 16 15 11 8 10 12 12 10
15 15 13 12 11 15 19 12 13 13 2 7 17 13 8 13 6 12 17 20 13 15 18 23 17 18 18 22 22 15 17 15 9 5 6 9 18 11 5 4 3 8 11 12 13
14 13 11 9 8 10 6 18 22 17 2 6 9 9 14 7 9 19 22 17 8 20 19 19 20 23 18 21 23 18 11 9 8 1 5 3 5 8 9 5 7 12 13 13 13
12 13 12 14 2 3 11 20 20 6 4 11 9 8 10 16 5 19 21 17 15 11 6 14 13 17 20 24 26 11 12 9 3 5 6 8 6 4 3 7 10 14 14 13 12
12 12 11 9 10 7 20 23 8 2 7 8 8 12 14 19 11 10 12 12 4 8 17 12 6 20 18 24 20 15 14 8 4 1 7 11 9 5 4 1 11 15 14 14 13
14 12 14 10 5 18 32 7 3 5 4 5 4 8 16 12 19 10 17 21 8 7 7 10 15 5 15 16 3 16 15 3 5 4 6 3 6 10 3 3 10 18 17 16 15
12 12 15 19 13 22 17 3 7 4 5 3 6 14 9 15 14 13 15 17 18 13 11 8 5 11 13 20 9 16 14 5 5 6 5 4 6 2 5 2 6 15 17 16 15
8 7 7 18 18 29 6 5 4 4 8 7 14 9 9 17 8 13 17 19 12 18 4 9 4 7 12 5 11 4 6 2 3 1 3 5 4 4 2 2 6 13 18 17 16
6 4 7 17 26 14 2 4 4 6 6 18 9 11 12 19 5 14 15 16 12 17 9 12 4 6 6 7 4 10 10 4 2 5 5 4 3 2 3 1 6 14 19 18 15
5 2 6 21 23 4 3 5 5 10 14 16 9 11 11 16 7 14 15 8 20 16 15 3 7 2 13 6 12 10 6 4 2 3 3 3 4 3 2 3 5 12 18 17 16
5 3 20 32 5 3 4 5 4 7 20 14 10 8 14 15 11 5 15 8 22 12 9 8 3 6 3 3 9 10 11 12 6 5 1 3 3 4 3 4 4 10 16 15 16
3 2 21 20 5 8 5 8 8 13 20 14 12 9 8 14 8 16 13 15 20 16 11 11 7 8 5 2 3 7 11 17 10 1 10 8 3 2 2 2 4 11 15 15 15
3 3 4 5 5 3 8 8 7 16 18 12 9 10 16 12 11 15 14 8 18 23 19 3 5 13 11 9 12 14 19 19 17 10 9 11 6 6 5 5 7 11 14 14 13
3 4 3 6 8 15 6 7 11 9 8 3 7 12 15 9 10 10 14 6 16 19 18 5 4 9 3 2 15 17 19 19 20 19 13 14 18 16 9 10 11 11 12 13 12
3 3 3 3 8 12 12 10 14 4 7 4 3 14 17 12 12 14 13 11 11 16 20 11 3 2 3 4 10 14 19 22 23 21 23 17 17 5 4 9 11 11 10 11 11
4 2 2 3 4 5 5 9 16 15 6 5 13 14 16 8 13 16 14 11 9 16 20 12 5 3 3 4 5 9 18 20 18 20 21 19 19 10 8 11 12 10 9 8 8

GFSSW_925_spd_009.txt.gz
Wind_Speed
8 7 7 7 7 6 5 5 5 4 5 8 9 13 13 11 10 10 12 8 4 6 7 10 12 17 16 12 11 8 10 14 19 15 11 3 8 6 6 12 11 9 7 4 6
10 8 6 7 7 7 6 5 5 6 7 8 7 9 11 10 13 19 17 14 14 10 10 11 10 15 15 16 12 12 13 21 16 12 11 10 7 9 9 12 12 11 8 6 6
10 11 8 8 7 7 6 6 5 6 6 7 8 9 8 8 13 11 20 23 21 12 12 12 10 15 22 18 21 18 20 17 18 10 12 13 12 14 10 14 14 8 10 12 13
11 12 10 8 9 9 7 6 5 5 5 6 7 7 8 10 9 4 2 5 18 19 16 13 12 7 16 24 22 22 21 22 20 11 11 14 14 16 15 16 15 15 15 14 12
13 13 11 9 10 10 9 6 5 4 4 6 7 7 7 9 17 5 4 5 0 15 20 16 17 15 18 19 20 22 23 20 19 16 14 14 16 17 20 18 18 17 12 14 12
14 14 12 11 11 12 10 9 8 4 5 6 9 9 11 16 15 18 12 10 6 6 16 20 12 16 14 20 21 13 24 22 16 19 17 15 18 17 18 18 16 15 14 11 7
15 15 14 12 12 13 13 10 9 6 4 5 6 9 14 15 7 12 17 18 16 13 11 19 21 14 13 18 23 22 17 19 23 18 19 14 20 22 20 21 13 13 9 2 5
15 15 15 15 13 14 12 11 9 8 5 5 5 10 7 13 22 13 8 7 11 17 16 15 20 20 14 14 17 24 19 16 19 22 20 13 19 14 9 7 6 3 3 3 2
17 16 15 15 14 16 13 12 11 9 7 5 6 11 10 6 19 23 23 16 9 10 17 13 15 15 14 10 10 14 19 26 21 22 18 19 16 16 10 8 11 12 6 3 4
19 16 15 16 14 15 12 11 10 11 9 6 8 5 13 9 12 17 19 19 15 10 13 16 9 12 14 16 16 19 25 19 23 21 16 19 21 17 15 10 10 11 8 7 6
18 16 15 15 14 16 14 8 3 2 9 10 10 12 3 17 6 8 16 16 17 14 18 21 12 18 28 27 20 23 18 24 19 22 22 17 20 19 17 15 12 11 11 10 9
19 17 15 13 14 14 17 5 8 1 4 17 15 17 10 5 6 12 18 14 18 21 19 16 19 27 28 22 27 23 22 23 13 14 11 14 18 19 15 18 15 13 12 12 12
17 15 14 11 10 10 14 17 13 8 4 6 19 18 19 6 10 13 17 19 20 21 21 23 20 27 27 22 26 26 20 19 14 13 11 12 17 20 19 15 7 12 13 14 14
16 15 12 9 4 14 13 16 20 13 4 6 8 7 8 8 9 25 24 17 15 21 22 17 20 23 29 28 22 27 19 17 13 12 9 14 7 16 14 13 10 12 14 15 15
16 15 14 18 2 4 5 12 18 5 6 11 8 9 10 11 4 18 26 20 20 16 5 13 13 24 29 25 21 16 25 16 14 11 2 12 6 15 12 15 11 14 16 16 15
18 17 16 13 12 6 10 21 7 2 7 8 6 10 10 16 14 2 24 17 14 18 17 21 17 25 23 20 22 9 17 10 12 5 7 13 12 10 12 13 16 15 17 17 16
19 20 22 14 9 18 27 6 2 6 3 5 4 8 15 13 19 12 19 20 10 7 10 11 17 3 9 14 21 15 16 6 5 5 7 7 10 13 9 5 9 16 18 18 17
15 18 22 18 10 21 14 2 8 3 6 3 4 6 8 10 18 18 13 16 22 10 6 7 7 9 9 11 9 18 16 7 7 9 13 7 7 5 7 2 8 16 18 18 17
12 16 10 22 16 27 3 5 5 4 6 6 8 4 5 10 11 18 18 18 20 17 4 6 6 2 16 13 16 9 19 2 4 5 10 8 9 7 5 7 9 15 19 19 18
14 8 6 17 25 20 4 10 5 5 6 8 11 12 12 18 12 16 10 13 18 18 16 5 4 1 5 12 3 6 11 6 3 7 6 8 8 6 10 8 11 14 20 19 17
9 3 6 24 24 4 6 7 6 8 11 14 15 13 14 17 15 16 7 8 22 17 17 10 1 3 11 5 11 3 7 5 3 3 4 7 5 10 6 5 9 14 18 19 18
5 3 21 32 5 3 8 5 5 6 17 16 9 13 13 18 17 15 15 10 17 12 8 9 5 2 8 4 14 12 9 12 6 5 4 4 5 7 4 4 6 12 16 18 17
3 3 19 22 5 7 9 6 8 7 11 13 11 14 14 16 11 11 8 15 13 20 8 13 3 3 5 8 3 2 11 17 11 3 11 7 5 5 5 6 5 10 15 16 16
2 4 3 4 6 5 11 7 7 13 14 13 9 13 12 14 15 15 8 10 12 20 17 4 8 6 4 7 12 11 15 17 15 9 10 11 7 10 7 7 8 11 13 16 16
3 4 6 6 8 16 6 3 8 5 14 19 8 18 17 14 18 7 17 10 12 15 12 4 6 6 2 4 14 14 19 18 18 17 11 12 14 9 10 8 9 12 15 16 16
2 4 3 2 10 15 14 9 15 12 9 10 13 19 18 12 14 12 15 12 9 13 16 13 4 4 4 2 6 13 16 20 22 22 21 17 15 2 1 8 9 12 15 16 15
4 2 3 4 8 10 9 12 11 16 6 9 12 8 17 14 12 5 13 12 5 14 16 9 6 3 2 6 5 9 18 19 20 21 20 20 18 11 7 8 10 10 11 12 11

GFSSW_925_spd_012.txt.gz
Wind_Speed
7 8 8 9 10 9 8 8 8 6 4 4 6 9 10 8 8 9 12 9 4 6 8 12 12 12 16 13 14 5 5 11 14 14 15 6 4 6 3 4 7 8 7 8 10
8 8 8 9 8 8 8 7 7 7 6 5 4 5 6 7 9 18 18 15 13 10 8 10 11 11 11 13 9 11 8 14 11 13 12 7 5 4 5 7 8 6 10 6 7
10 9 8 9 9 8 7 7 7 7 7 6 5 6 5 2 6 8 19 25 22 11 11 13 15 11 11 16 17 17 17 12 16 16 14 6 8 6 8 7 8 8 9 7 5
11 10 9 8 9 8 7 7 7 7 7 5 5 5 6 6 7 4 2 4 14 16 15 15 11 11 7 16 18 19 20 18 17 17 4 5 6 12 11 8 8 10 8 8 8
13 12 10 9 9 9 7 7 6 7 7 6 5 5 5 8 13 2 4 5 4 12 18 15 14 12 13 9 15 21 17 20 16 16 16 7 9 13 13 9 12 11 11 11 8
14 13 12 11 10 9 8 6 6 8 8 8 7 7 6 14 11 17 8 6 4 4 16 16 12 12 15 16 16 9 19 18 19 17 13 15 11 10 11 10 12 13 9 7 4
15 14 15 13 11 9 8 6 6 8 9 8 8 9 11 14 5 9 18 18 14 12 7 18 20 14 7 15 13 15 16 15 22 19 15 14 18 17 13 13 14 14 9 4 5
16 16 15 16 13 11 10 6 7 8 10 8 7 10 7 13 24 13 7 10 15 16 15 16 10 11 14 7 10 8 11 12 19 13 18 10 16 12 15 18 16 9 3 7 6
16 16 14 15 15 13 12 8 7 9 10 7 6 10 8 5 19 19 20 15 11 11 10 15 13 6 11 7 6 10 12 22 15 18 15 17 17 12 19 13 7 6 8 9 8
16 16 15 14 15 12 10 9 8 10 8 6 11 3 8 11 11 17 21 23 14 8 8 9 5 7 7 11 16 12 16 14 18 17 18 21 15 12 14 9 10 8 8 9 9
15 14 15 13 14 11 10 4 1 2 7 9 8 9 2 9 2 9 16 15 14 12 12 11 9 17 23 22 18 15 17 16 17 17 21 20 19 15 13 11 10 8 6 10 10
14 13 13 12 12 10 10 3 4 3 6 17 17 19 23 7 7 11 15 13 15 16 14 10 21 25 14 17 18 21 18 17 15 20 20 19 17 16 10 14 13 9 9 10 11
14 13 13 11 10 10 14 13 7 4 6 6 20 16 14 13 13 12 17 17 15 17 17 19 20 16 18 18 20 22 23 16 15 15 9 8 12 10 12 15 9 11 9 15 15
15 13 12 11 5 12 16 11 16 6 5 5 6 6 13 6 7 17 17 17 11 18 17 15 18 20 19 23 19 22 23 22 19 17 11 11 4 15 21 16 10 8 6 15 14
16 15 16 20 8 7 5 6 5 4 5 7 6 5 5 11 4 10 23 14 18 15 9 10 11 18 22 21 20 20 17 22 27 11 4 6 5 9 10 19 9 9 10 14 14
18 18 19 17 13 6 10 12 7 2 7 5 5 7 7 9 6 6 18 19 13 16 14 13 9 12 16 21 20 22 15 20 18 11 8 13 9 6 6 13 13 9 10 14 14
20 19 26 16 6 19 17 5 2 5 2 4 4 6 13 9 10 6 16 20 11 6 13 7 19 8 4 12 20 22 14 8 7 6 4 16 8 6 4 8 14 14 13 14 13
19 17 29 16 17 26 17 2 7 7 6 3 3 8 7 7 7 12 7 17 18 10 2 9 8 14 14 11 15 24 22 3 5 5 6 15 6 5 7 8 11 13 15 14 13
17 19 19 25 26 28 4 4 5 3 4 6 5 6 6 7 7 13 13 12 14 19 7 3 9 5 10 15 16 10 9 17 6 10 6 4 4 4 8 6 10 13 16 15 14
15 11 9 28 31 18 3 8 6 4 5 5 9 13 9 10 8 11 13 10 18 18 15 3 6 6 12 8 9 7 8 10 4 7 7 6 8 5 10 9 8 13 15 14 13
10 3 13 30 25 4 5 7 7 10 8 7 9 10 12 10 13 12 9 11 13 12 13 5 3 1 1 8 13 8 6 9 4 5 5 5 1 10 9 12 11 11 15 16 14
5 3 22 33 5 2 4 5 3 6 16 12 10 15 11 11 13 10 12 6 15 14 10 9 4 4 6 4 12 10 8 11 3 2 1 4 2 6 9 8 9 9 16 15 13
5 3 21 19 6 5 6 6 8 3 6 9 9 13 7 6 8 13 12 7 19 13 11 12 5 2 5 8 1 4 7 5 5 3 3 3 3 7 8 8 5 9 12 13 13
3 4 3 3 2 6 9 7 6 14 17 15 13 16 9 10 10 6 9 6 14 14 13 7 6 6 5 6 11 6 7 6 5 1 2 2 6 6 7 9 7 8 10 13 13
3 4 5 5 7 11 5 5 7 6 11 15 7 17 10 8 9 7 11 6 8 9 11 4 4 13 10 18 17 14 9 8 9 7 1 3 7 9 10 10 9 8 9 13 12
4 3 3 3 8 15 15 9 13 6 4 9 14 9 14 9 8 11 12 10 8 8 15 12 6 12 10 6 12 13 13 12 10 7 7 9 5 7 8 9 9 9 9 11 12
4 2 1 4 8 8 6 10 11 11 11 17 13 15 12 12 7 12 10 11 7 10 11 6 4 5 4 4 5 4 8 14 9 8 8 10 7 4 6 7 9 10 10 9 9

GFSSW_925_spd_015.txt.gz
Wind_Speed
6 5 5 5 5 6 6 6 7 6 5 5 2 7 10 9 7 7 7 8 1 6 6 9 9 11 8 4 5 2 3 8 9 10 10 7 4 3 4 3 1 4 4 7 20
7 6 6 5 5 5 5 6 6 6 5 5 4 3 4 6 7 12 19 16 13 8 8 6 6 10 3 3 4 6 5 9 5 9 7 10 4 4 2 2 3 5 7 13 15
9 7 7 6 5 5 4 4 4 5 5 4 4 4 3 1 3 8 15 25 18 9 8 6 12 6 3 5 5 4 10 4 5 13 11 8 3 3 2 3 5 6 5 3 5
9 9 8 7 6 4 4 4 3 3 3 3 3 3 3 4 7 3 1 6 13 17 11 4 5 2 2 4 6 11 13 12 12 17 11 7 4 4 6 7 5 8 7 4 7
11 10 10 8 8 6 6 4 3 3 3 3 2 2 3 5 7 1 7 7 6 11 15 8 6 3 4 4 5 13 14 14 17 18 18 9 10 9 6 7 8 10 10 11 9
13 12 11 10 9 8 6 6 4 4 3 3 3 2 2 11 10 14 10 3 4 10 14 11 6 6 7 7 10 6 9 16 19 15 11 16 8 5 8 8 9 12 12 10 9
14 14 12 12 10 9 6 6 5 4 5 3 3 3 6 12 8 3 18 16 10 7 2 18 20 7 4 4 6 8 12 14 17 16 14 11 16 14 10 7 10 13 11 4 5
15 15 14 12 12 9 7 6 6 6 5 5 3 4 6 7 20 23 7 13 13 10 12 14 7 6 7 5 7 5 6 14 6 8 9 11 20 11 10 10 13 12 8 9 7
15 14 15 12 11 11 9 8 7 7 6 5 4 5 7 5 16 19 17 6 6 9 14 14 7 4 3 4 3 4 9 8 6 7 6 12 20 10 9 9 10 11 10 8 7
17 16 16 13 10 10 8 9 6 8 4 6 7 1 6 5 6 20 14 17 7 1 4 4 4 5 1 5 13 9 9 10 8 5 11 16 16 11 10 13 11 10 8 9 9
18 16 15 15 11 10 9 3 1 2 7 8 8 5 3 5 4 12 17 11 10 3 6 6 7 12 13 14 6 8 10 12 8 10 11 20 16 17 14 11 9 9 6 9 9
18 17 15 16 12 11 11 4 2 4 5 13 16 15 19 4 4 6 14 9 12 15 6 7 17 14 9 11 10 12 13 20 14 15 11 14 22 20 15 14 11 10 8 11 9
19 18 17 14 12 14 17 10 5 1 3 6 13 9 13 9 12 9 13 11 11 11 12 17 4 17 14 13 13 16 16 16 16 16 17 10 15 22 12 18 13 9 8 16 19
19 18 19 17 9 13 7 15 13 5 3 3 3 4 4 4 5 18 21 13 8 17 13 14 19 12 14 17 13 16 16 16 16 11 11 4 9 16 18 14 13 11 12 16 13
20 21 23 24 8 10 10 14 14 4 4 6 5 2 2 7 6 8 19 16 17 13 11 8 9 16 19 21 14 15 10 12 12 16 14 19 7 8 11 19 15 12 15 18 17
23 23 24 24 5 12 19 21 8 3 8 6 4 4 3 8 4 1 3 9 2 10 14 17 2 4 11 15 14 2 4 9 9 11 12 18 11 5 9 17 21 8 15 17 16
26 27 31 21 8 23 24 7 4 4 1 4 4 6 9 7 6 7 4 12 7 5 7 4 11 3 2 3 4 6 5 5 5 8 13 15 9 16 7 12 18 18 20 19 17
28 29 33 20 19 29 12 3 5 5 4 4 3 7 6 6 7 9 3 6 13 5 3 5 5 12 9 15 7 11 13 6 8 7 8 10 10 10 15 9 10 17 22 20 17
28 31 25 20 33 30 5 3 6 5 4 4 2 4 4 7 7 9 10 4 7 16 7 6 6 3 5 8 17 7 10 21 6 4 2 6 9 3 2 8 16 18 19 19 17
20 12 18 32 37 20 3 4 4 2 6 4 7 9 6 8 8 8 9 8 8 16 11 2 5 3 12 12 12 11 10 9 4 5 7 7 5 5 5 12 15 19 19 17 16
12 5 20 37 26 4 3 6 4 5 7 5 5 4 7 5 7 5 7 6 12 13 17 7 5 3 2 8 17 9 10 8 5 6 2 5 5 6 11 14 17 17 18 18 18
5 4 28 37 5 2 3 6 3 5 9 10 6 9 6 9 9 5 10 5 7 7 17 10 4 5 14 11 10 15 11 9 5 6 10 4 4 2 10 10 14 16 17 16 16
6 3 25 27 5 4 3 6 7 8 9 7 8 13 11 8 3 12 6 9 17 10 13 8 4 4 4 6 5 16 15 14 15 11 8 4 3 3 8 8 9 14 13 14 15
4 4 3 3 0 6 6 8 6 7 14 9 4 10 9 7 10 5 10 4 16 14 15 13 6 7 3 2 5 8 19 12 10 5 3 2 6 3 5 8 8 12 15 16 17
1 3 4 5 7 5 10 4 8 5 10 8 6 15 6 5 6 5 4 4 12 17 13 4 5 5 13 17 12 11 13 17 22 12 4 4 6 8 9 9 9 11 14 15 15
4 3 2 5 10 12 9 7 8 6 5 4 8 8 12 10 6 6 7 4 6 11 10 9 4 8 7 8 14 11 13 17 10 5 3 5 3 4 4 6 7 13 17 17 15
2 2 3 7 9 7 6 12 15 12 11 14 13 8 9 10 9 0 7 6 5 10 8 6 3 5 3 11 7 1 18 9 5 1 4 3 5 4 5 9 9 9 14 15 13

GFSSW_925_spd_018.txt.gz
Wind_Speed
9 8 7 6 5 4 4 4 3 3 2 3 2 8 10 9 8 10 6 7 3 4 3 6 4 8 3 2 2 2 2 6 9 8 9 3 3 6 5 4 2 3 5 5 10
9 9 8 7 6 4 4 3 2 2 2 3 2 2 1 5 7 13 22 12 11 8 4 1 2 9 2 3 3 5 6 10 7 9 7 3 5 4 3 4 2 1 3 7 17
11 10 9 9 7 5 3 4 2 2 2 1 2 1 1 2 3 7 14 24 21 10 5 2 2 0 2 3 4 5 11 7 5 10 8 6 3 5 6 5 5 3 2 3 6
13 12 10 10 8 6 4 3 1 1 1 1 1 1 5 6 6 1 3 4 17 19 12 3 2 4 3 5 5 7 7 8 3 6 5 3 4 6 5 7 6 6 5 3 8
15 13 12 11 10 8 6 4 2 1 2 1 1 2 4 3 7 3 6 4 8 17 16 6 5 4 5 4 4 6 5 9 9 12 15 13 12 10 9 10 8 8 7 7 8
17 14 14 12 11 10 7 6 4 3 2 1 2 4 2 6 9 14 8 1 3 10 13 11 6 6 4 6 6 5 6 7 10 13 9 16 19 6 12 9 9 8 10 9 9
18 17 16 14 13 12 9 6 5 4 4 3 3 4 3 12 7 5 4 13 11 8 3 18 17 2 1 4 4 5 8 9 7 4 5 9 22 19 10 8 9 9 10 8 9
19 19 17 16 13 13 11 8 7 6 4 4 3 3 6 8 8 20 12 8 17 12 9 7 7 6 4 5 6 3 3 4 4 8 5 7 27 9 9 9 11 11 11 8 9
21 20 19 16 14 15 13 10 8 6 5 3 4 3 7 6 6 18 13 7 5 8 12 11 4 3 3 3 4 4 5 6 4 6 5 13 27 14 10 8 10 10 10 8 7
22 21 20 18 15 14 12 11 7 5 4 5 3 1 5 4 6 5 13 12 4 1 3 3 2 2 2 5 14 10 6 6 5 4 7 16 21 9 8 9 12 14 9 8 10
23 22 21 19 17 15 15 7 2 2 6 7 7 3 2 3 8 4 14 6 2 1 5 1 3 10 13 13 7 5 6 7 4 4 7 13 18 17 13 12 10 12 8 8 9
24 23 21 20 19 17 18 4 4 3 2 12 10 12 12 6 2 3 13 6 7 11 5 4 12 12 8 10 9 11 12 15 8 9 10 10 16 16 16 18 14 16 9 9 6
26 24 23 20 19 18 21 13 8 2 1 4 5 6 6 8 6 6 13 6 6 12 14 17 6 13 13 12 10 15 17 11 9 10 18 13 21 14 16 17 13 14 8 10 17
27 24 24 23 14 15 11 17 11 3 2 4 3 2 3 4 4 18 19 9 5 15 12 13 15 8 12 15 11 16 10 13 11 7 7 2 11 9 12 18 14 18 9 13 13
26 25 29 31 12 13 9 22 16 2 3 5 4 2 3 6 3 1 16 14 13 9 7 8 8 19 20 17 14 9 8 9 8 8 8 18 10 10 12 13 18 23 12 15 18
27 29 34 25 11 13 16 22 11 3 7 6 4 4 3 5 3 2 4 8 1 15 16 8 1 8 9 14 14 3 7 5 3 4 9 19 12 13 13 15 12 13 13 15 17
19 35 38 30 11 23 30 10 3 4 2 6 5 5 7 7 7 8 8 7 5 7 8 5 16 5 3 5 11 11 4 3 3 6 10 6 12 20 9 11 15 18 14 14 17
16 42 38 27 25 36 16 2 3 4 5 3 4 8 7 7 6 8 5 8 14 7 2 8 4 16 9 11 5 15 14 4 6 3 5 8 10 6 16 26 17 11 15 18 18
16 39 26 24 37 35 7 3 6 5 6 9 5 6 6 6 4 8 8 9 9 15 8 5 4 4 7 9 12 4 9 20 6 5 5 6 4 8 13 10 9 15 18 21 20
12 18 18 36 40 18 5 4 4 4 6 5 7 9 7 6 9 7 7 5 9 16 9 6 3 5 5 6 7 8 5 5 4 6 5 4 5 10 13 13 8 15 19 18 17
16 8 25 41 33 6 4 5 4 5 6 6 6 5 7 5 8 5 6 5 11 14 19 6 5 2 4 9 12 6 11 7 7 7 3 4 6 9 13 10 14 14 18 20 19
2 4 33 41 5 3 3 5 4 5 2 3 4 7 8 9 7 7 9 8 11 7 12 11 4 8 18 4 10 19 20 19 6 7 9 6 7 3 9 13 16 16 16 15 16
8 3 27 27 5 6 4 4 4 6 8 7 9 10 11 6 5 10 7 8 8 12 9 10 5 4 4 8 12 12 19 20 15 5 6 4 6 7 6 8 10 15 13 14 14
3 5 3 3 4 6 10 6 6 6 9 8 5 13 7 7 10 3 7 4 12 8 14 12 3 6 9 3 9 8 23 22 21 10 8 9 17 22 6 10 8 9 13 15 15
2 3 5 8 7 10 11 6 10 7 7 10 4 11 7 6 7 10 8 2 6 11 10 8 6 9 15 18 12 17 24 22 22 6 8 9 14 15 9 11 12 11 12 14 14
2 3 3 8 10 7 12 10 11 8 7 6 9 9 16 11 6 1 5 5 6 12 9 4 5 4 6 10 16 16 20 17 14 5 5 21 27 5 4 7 8 13 15 15 15
4 3 4 10 10 8 5 7 10 6 9 12 14 11 8 16 14 9 7 8 9 10 9 4 3 4 5 5 8 6 18 20 14 12 15 14 23 5 4 6 8 10 15 17 16

GFSSW_925_spd_021.txt.gz
Wind_Speed
12 11 11 10 10 10 10 7 5 7 6 4 2 5 10 13 10 10 7 7 5 9 4 7 3 6 1 1 2 3 1 7 9 8 8 2 1 3 2 2 3 1 5 3 7
11 12 11 12 11 10 9 8 5 6 5 3 1 1 3 6 7 10 20 12 12 6 4 2 3 6 2 2 2 4 5 8 4 5 5 1 4 5 5 6 3 2 3 2 16
14 14 12 12 12 10 9 7 5 5 4 2 2 4 3 4 2 7 18 24 20 10 7 1 1 2 2 2 3 4 9 9 2 5 6 4 4 3 4 6 7 5 3 4 3
17 16 13 12 13 11 9 7 5 4 3 2 3 3 4 5 6 1 2 6 17 21 9 4 3 1 2 5 4 5 4 6 2 4 3 4 3 4 4 6 5 6 5 2 7
19 19 14 13 13 13 10 9 6 4 3 3 3 3 5 1 8 1 2 2 6 22 14 5 4 3 3 3 3 4 2 5 6 8 8 9 14 7 10 9 10 9 6 9 7
20 20 16 15 14 14 12 10 7 6 4 2 3 3 2 4 6 13 4 3 5 15 11 9 4 5 3 4 3 3 5 6 5 8 7 12 16 6 5 7 10 9 12 10 9
21 20 20 17 16 14 14 11 8 6 5 3 2 2 1 11 4 4 5 8 5 6 4 13 12 2 1 3 2 3 6 6 6 4 6 2 21 23 9 8 10 11 10 10 10
23 21 21 19 18 15 14 11 9 7 5 4 2 2 6 6 4 17 12 8 10 10 4 2 6 6 7 5 4 2 2 2 3 10 7 9 22 2 13 15 13 12 9 10 11
25 24 23 21 19 16 15 13 10 7 4 3 3 1 7 5 5 14 12 5 4 10 9 5 3 3 2 3 5 5 7 4 5 6 5 12 13 7 9 9 11 10 9 10 9
26 26 24 21 21 17 15 12 8 5 4 4 2 1 5 3 4 4 13 9 2 4 2 3 3 3 3 6 10 4 3 4 5 1 3 13 18 10 8 8 12 10 11 10 9
22 26 27 25 23 19 16 10 4 1 5 7 5 4 1 2 4 3 8 10 3 4 5 2 5 9 13 8 5 5 6 7 4 7 5 9 15 13 9 11 16 10 10 10 9
28 26 26 25 24 22 23 5 4 2 4 14 8 12 8 4 2 3 14 6 5 6 4 2 12 8 6 7 9 12 16 16 7 8 8 11 21 16 14 15 13 15 14 14 6
26 19 26 26 26 26 25 16 7 2 2 4 6 6 5 6 6 4 11 5 4 7 7 12 3 10 8 9 10 11 14 14 13 7 11 11 28 21 17 16 17 19 15 14 12
26 25 27 28 24 21 12 18 9 2 2 5 4 4 5 3 5 14 17 5 5 12 9 11 13 13 11 12 10 18 9 13 11 5 6 3 10 8 5 15 18 18 15 12 11
29 27 22 41 22 13 13 23 14 4 2 4 5 1 4 7 2 1 12 9 12 9 6 7 5 12 18 13 10 9 6 8 8 7 7 13 8 5 10 18 17 9 13 12 11
33 31 27 30 23 17 25 30 11 4 7 6 4 6 5 5 2 2 4 7 2 10 13 8 4 6 8 15 13 2 7 6 4 5 12 11 11 16 11 15 10 8 14 13 11
30 30 21 37 13 35 41 14 4 4 1 6 5 5 6 5 5 6 4 7 7 5 10 3 13 3 4 6 9 13 6 3 5 7 8 4 11 20 8 8 13 15 15 13 12
20 22 28 26 29 43 31 3 4 5 5 3 5 6 6 7 4 9 5 9 12 6 2 6 6 14 10 9 6 18 14 4 6 5 4 14 12 10 15 22 19 16 9 7 13
11 19 13 25 41 37 13 3 8 7 7 10 6 4 6 7 4 8 8 10 7 15 8 2 5 5 10 6 11 5 12 17 5 3 4 5 8 8 10 12 13 16 11 12 15
2 9 10 41 45 26 7 6 3 5 7 5 7 9 6 7 9 8 7 4 5 11 13 5 5 4 5 7 10 8 5 5 6 4 6 6 6 11 5 13 16 10 13 11 14
5 3 19 42 35 9 5 4 4 4 6 6 6 6 7 6 9 6 4 4 8 8 19 6 4 2 4 11 13 11 10 4 2 4 4 4 6 6 12 12 10 10 9 16 18
3 3 36 39 8 5 5 6 5 5 1 3 2 6 8 10 8 6 8 8 9 9 10 9 3 7 15 4 12 16 15 16 5 6 6 5 9 5 8 11 8 7 9 10 12
2 3 33 26 5 5 6 4 3 5 5 6 6 9 10 7 5 8 6 7 11 12 12 10 5 4 3 7 14 8 13 15 16 4 12 7 11 6 15 19 6 11 12 12 13
3 3 3 6 2 13 8 8 7 6 4 7 4 11 8 6 8 4 5 4 13 14 9 12 4 8 9 3 4 10 16 20 17 11 13 15 21 22 18 18 7 2 12 14 13
1 4 4 7 6 11 9 9 10 7 7 9 5 12 7 6 9 9 8 10 2 7 8 8 6 10 17 20 13 7 19 20 23 27 17 15 14 11 17 15 7 3 10 14 14
3 3 2 6 15 11 12 8 12 9 7 5 8 8 14 9 7 4 5 4 5 7 8 5 4 3 17 21 20 12 17 20 23 21 22 14 16 13 21 8 2 8 12 14 13
4 4 4 9 11 9 8 7 14 6 9 9 13 11 10 14 16 19 5 7 9 9 10 4 3 3 5 4 8 7 18 23 21 20 18 12 12 12 24 16 11 11 13 15 15

GFSSW_925_spd_024.txt.gz
Wind_Speed
15 12 11 11 10 10 8 8 8 9 10 10 6 4 7 13 10 10 7 8 2 11 2 4 2 3 2 1 1 3 1 5 6 7 5 0 1 3 3 2 4 3 3 3 3
18 14 12 13 11 10 9 7 7 7 8 9 7 3 5 6 10 12 17 13 6 3 1 2 2 4 1 2 1 3 3 6 6 5 4 3 2 4 4 6 4 4 3 4 9
18 17 14 14 11 11 10 8 6 6 7 7 7 4 1 1 3 7 13 22 18 9 6 1 2 2 1 0 3 3 6 2 3 4 3 4 4 2 2 5 7 5 8 6 2
18 20 17 13 12 12 10 8 6 4 5 6 5 4 3 3 6 2 4 3 13 18 7 5 2 3 3 4 4 2 5 4 2 4 5 3 5 6 6 8 4 4 5 4 4
21 20 20 17 13 12 12 9 6 4 4 5 4 2 2 0 8 4 2 2 6 18 13 6 3 4 4 3 0 4 3 4 4 7 6 7 11 8 10 10 10 10 6 10 8
22 22 20 21 17 12 13 10 8 6 5 4 3 2 1 3 5 7 5 6 7 16 13 8 6 5 3 3 3 1 2 5 6 6 5 7 12 4 7 6 9 9 10 10 9
23 24 22 23 19 15 14 13 9 7 5 4 3 2 1 11 2 1 4 1 5 9 4 8 5 3 3 3 1 2 4 6 6 6 7 5 16 18 13 11 12 10 9 10 10
29 22 24 23 22 17 15 14 11 9 6 4 3 2 6 5 5 11 5 2 2 5 4 5 9 4 2 4 3 3 2 3 5 4 6 10 17 8 5 13 15 15 10 10 13
28 28 23 23 23 20 16 14 12 10 6 4 3 3 7 4 4 7 10 3 2 6 3 0 5 4 3 3 3 5 5 5 6 3 5 10 4 3 4 4 8 9 9 10 11
28 27 23 23 23 22 17 14 8 8 5 3 3 2 4 2 2 3 9 10 3 5 3 3 3 3 3 4 5 4 4 3 8 3 5 10 16 14 9 11 12 9 9 9 10
28 26 27 22 22 25 21 13 4 2 5 7 4 3 1 2 2 3 6 9 3 4 5 2 5 7 10 7 3 1 5 11 6 8 8 13 18 17 11 10 12 14 14 10 10
26 26 25 19 20 30 30 4 8 5 3 13 7 7 6 4 1 2 12 5 4 5 4 1 10 7 5 5 7 8 10 13 13 13 11 12 24 18 16 18 16 14 16 12 10
23 22 21 17 23 36 32 16 17 8 1 4 6 7 3 5 4 4 8 4 3 5 6 7 3 7 10 5 7 9 10 8 12 8 13 14 28 19 21 23 22 20 20 17 13
19 22 24 20 16 31 18 20 17 10 4 4 4 5 6 5 5 10 15 5 3 9 5 9 11 7 5 6 8 14 8 13 13 6 7 3 10 8 9 16 12 17 15 15 13
23 26 28 24 8 17 21 25 17 7 2 3 5 1 7 9 2 2 6 4 7 8 6 6 5 7 15 16 7 5 6 9 10 8 8 9 6 5 5 8 8 9 11 13 14
29 35 29 23 12 28 38 29 11 6 6 6 4 5 6 4 2 3 5 3 2 10 12 11 4 4 6 8 11 3 5 4 3 7 10 13 10 15 8 13 8 16 14 14 14
52 37 22 17 4 37 47 13 5 4 0 6 5 6 6 6 5 5 6 8 6 4 8 4 15 4 3 4 7 10 2 2 5 6 8 7 11 23 5 8 9 13 12 11 10
20 13 16 20 22 47 28 5 4 6 5 5 5 8 6 6 4 7 4 7 11 5 1 4 5 12 11 14 7 15 11 5 4 4 4 6 8 8 11 19 21 18 11 7 7
2 12 10 21 25 40 13 3 8 7 7 9 11 4 5 6 3 6 8 6 7 15 6 3 4 2 7 8 8 5 10 13 6 4 4 5 8 9 11 9 11 13 14 14 8
5 1 6 15 45 22 9 7 4 4 6 5 5 5 6 7 8 7 6 4 6 12 7 2 6 6 4 8 9 7 1 3 5 4 4 6 7 11 10 11 12 13 10 10 8
3 2 9 25 33 8 7 3 3 4 5 4 4 5 4 6 8 5 5 4 7 5 14 5 4 1 5 10 12 8 5 6 2 4 4 4 6 5 7 3 14 19 13 10 13
2 2 16 40 7 4 5 6 4 5 2 3 3 4 5 7 7 6 7 5 5 8 10 9 3 6 14 5 14 14 10 15 6 5 4 4 13 5 2 7 14 19 10 5 8
1 2 26 35 4 6 5 4 3 4 3 3 3 2 4 6 4 8 4 6 9 10 11 10 5 4 4 1 6 10 16 18 15 1 10 5 8 9 2 12 11 11 6 5 7
1 3 4 5 2 9 9 5 4 4 5 3 2 5 4 5 8 3 3 5 13 10 9 12 4 9 12 13 4 7 16 17 16 9 19 21 15 19 13 12 11 12 2 3 6
2 3 2 5 4 8 4 9 6 5 3 7 5 9 6 5 5 6 6 8 5 10 8 8 8 13 22 22 13 11 13 15 19 22 11 16 21 16 6 8 7 11 5 6 10
3 3 2 6 11 6 5 6 11 6 8 5 7 7 9 5 7 6 6 6 6 3 8 4 6 7 19 18 18 16 15 17 24 21 21 22 24 5 4 7 11 15 8 10 9
7 3 3 8 9 7 6 6 9 6 7 5 11 9 8 13 16 15 6 6 3 3 8 4 3 3 8 6 5 3 16 19 16 21 19 18 23 13 17 12 15 11 9 9 9

GFSSW_925_spd_027.txt.gz
Wind_Speed
18 18 14 10 11 10 8 8 8 8 8 7 5 4 5 7 10 10 6 7 3 8 3 1 2 2 3 2 2 2 2 5 7 7 5 1 2 1 2 2 4 2 2 3 2
20 17 17 14 11 12 9 8 7 8 7 7 4 3 4 5 7 13 15 12 10 4 4 2 1 1 2 2 1 2 3 8 5 5 3 2 1 2 3 4 3 4 3 8 3
20 18 19 17 14 12 10 9 6 6 6 6 4 3 1 1 2 5 8 17 15 11 4 3 4 2 2 1 3 3 5 4 3 2 1 2 4 2 3 6 7 6 5 5 1
22 20 19 21 17 13 9 9 7 6 4 4 3 3 1 2 5 2 2 1 12 19 8 5 2 3 3 3 2 2 5 4 2 2 2 2 1 5 6 9 4 5 4 5 9
25 20 19 20 21 16 11 10 8 6 3 2 2 0 4 2 7 5 1 1 7 20 14 6 3 3 3 2 2 3 3 3 4 6 5 6 12 11 12 10 9 11 11 13 11
26 25 20 19 21 19 15 13 9 8 5 2 2 2 4 2 2 5 4 3 5 16 11 8 4 3 3 2 3 2 3 6 6 8 5 11 17 6 12 11 16 12 14 12 10
27 26 26 19 19 23 17 15 12 9 6 4 3 3 1 9 3 1 4 3 5 12 6 7 6 4 4 1 2 2 5 7 7 7 8 4 16 14 17 16 19 18 15 15 15
25 27 26 24 17 22 19 16 13 10 8 6 5 4 5 2 5 6 5 4 6 9 7 6 10 2 2 0 2 3 3 3 3 1 6 9 12 10 11 11 19 20 17 15 19
26 25 26 26 18 20 23 18 14 12 10 8 5 3 7 1 3 4 9 6 7 7 6 8 7 3 2 2 4 4 3 5 5 5 2 10 7 3 1 4 8 9 11 11 14
27 25 25 25 20 17 25 18 12 11 7 5 2 2 4 2 3 5 10 8 4 5 3 3 2 3 3 5 6 4 5 6 5 1 4 13 19 17 14 13 16 13 12 11 12
28 25 23 23 23 13 26 19 6 2 5 7 5 3 1 1 5 3 7 7 4 4 5 2 5 8 11 6 4 1 3 11 7 8 11 15 22 19 18 17 18 17 17 16 13
26 25 20 21 21 18 38 5 9 10 5 11 4 4 4 2 3 2 12 5 4 4 5 3 10 9 8 5 10 11 13 15 11 9 11 14 27 18 19 21 19 21 19 18 16
26 25 18 21 23 19 27 20 24 15 5 3 5 6 3 4 2 5 8 4 4 5 7 6 4 5 8 5 12 10 13 12 17 9 14 17 24 16 16 21 20 21 21 20 20
26 25 20 21 12 10 19 24 23 12 4 4 4 5 8 3 4 9 13 5 2 11 5 6 8 4 4 8 10 16 6 10 11 6 7 2 10 7 7 14 13 12 14 18 20
24 22 21 11 21 8 10 30 28 6 2 3 5 4 7 10 5 1 5 3 7 6 5 4 5 5 12 12 9 7 5 6 8 8 11 14 7 7 1 5 8 10 14 15 16
31 27 20 20 16 17 23 29 12 4 6 7 5 6 8 6 5 3 5 1 1 5 8 7 3 5 8 7 14 1 3 4 3 5 9 11 11 20 7 8 5 9 11 11 13
30 30 29 28 13 19 31 13 4 4 2 8 5 7 8 7 5 5 7 8 5 4 4 3 15 6 4 5 3 12 2 3 4 6 7 5 11 19 9 16 15 13 13 13 12
34 20 19 26 29 3 24 4 4 5 4 5 6 9 5 5 4 7 5 7 11 5 1 4 4 11 9 13 6 14 11 5 5 5 3 2 9 8 14 15 14 13 16 16 11
7 4 10 20 21 14 5 3 6 6 8 10 11 6 4 4 3 5 8 5 7 12 5 3 4 2 7 3 11 5 10 10 9 12 9 9 12 10 13 9 3 7 10 13 12
1 4 7 19 19 10 2 4 3 5 12 11 5 5 10 9 7 8 6 2 4 10 11 1 5 3 1 5 9 9 1 4 5 5 9 6 6 10 5 5 3 9 14 13 10
4 2 12 18 21 3 2 1 5 5 6 4 4 5 5 7 8 6 3 3 5 1 9 4 4 3 4 9 10 8 7 7 3 4 5 7 8 7 6 6 3 9 13 13 14
3 0 9 27 3 1 2 5 5 3 4 3 4 4 4 7 6 6 6 5 7 7 8 7 3 5 11 10 15 19 19 17 7 11 5 4 18 4 6 4 5 9 12 10 11
1 1 17 17 2 2 2 4 4 3 2 2 3 3 2 5 3 5 4 3 9 9 10 8 4 5 6 2 6 10 18 19 12 4 13 6 11 4 2 5 6 7 10 8 7
2 2 3 1 2 4 5 3 4 4 3 4 4 3 3 3 4 0 4 3 10 7 9 10 4 7 9 15 9 8 14 19 18 7 17 19 21 15 15 13 11 6 9 7 4
1 3 1 2 2 7 3 4 5 3 2 3 3 5 4 4 4 6 7 3 4 11 6 9 7 10 19 26 23 24 25 17 20 24 11 19 21 16 13 12 2 3 9 9 6
1 2 1 2 7 7 5 5 7 4 5 5 2 7 7 5 7 4 3 4 5 3 7 5 5 4 21 21 22 19 16 15 20 21 23 23 26 12 6 5 2 6 11 13 9
6 5 1 8 6 6 4 6 7 7 3 1 9 4 8 11 10 10 8 4 2 4 10 4 3 3 13 10 17 5 5 9 11 16 14 17 17 2 5 10 12 10 13 16 12

GFSSW_925_spd_030.txt.gz
Wind_Speed
18 18 16 17 12 10 9 9 9 9 8 9 8 7 5 2 10 13 12 7 7 12 4 2 3 4 4 5 4 3 8 13 20 15 11 4 9 8 1 7 3 3 3 3 1
24 21 19 16 16 13 11 10 9 8 8 7 7 6 3 2 10 13 11 11 11 4 11 7 6 6 5 6 6 10 10 16 8 11 7 7 6 3 6 9 11 7 4 2 3
23 24 20 19 18 16 13 11 10 8 7 6 5 5 4 2 5 5 11 17 17 11 7 8 5 5 8 6 8 8 14 11 6 6 4 9 10 7 10 13 13 11 4 1 1
24 24 23 21 19 20 16 13 11 8 7 5 3 4 3 4 6 6 4 4 11 14 11 9 6 6 6 9 6 8 12 10 6 8 6 10 7 12 14 19 8 7 8 8 9
24 24 24 24 20 18 20 16 12 9 7 5 3 3 2 5 5 5 2 1 6 18 16 8 8 6 9 4 5 11 10 7 9 9 11 12 17 19 18 18 17 15 14 15 15
24 23 23 23 22 19 21 18 15 12 9 6 4 4 3 7 2 3 4 1 4 17 18 13 6 4 2 4 9 1 7 10 9 13 13 16 21 18 21 19 21 21 23 22 20
24 23 23 23 25 18 18 22 17 13 10 7 5 4 4 6 3 1 5 4 4 13 12 11 10 6 6 5 4 5 10 12 14 13 13 10 20 20 25 22 24 22 21 20 21
25 24 24 22 22 22 16 25 21 16 12 9 7 3 4 3 5 6 4 6 7 6 7 12 9 4 5 2 3 4 5 5 4 3 5 8 15 6 6 15 16 18 20 22 23
25 25 24 23 22 22 16 23 22 17 13 11 6 3 3 2 5 5 9 10 11 11 9 9 9 4 5 6 5 7 7 8 10 8 7 12 11 6 3 7 12 12 13 13 17
25 25 24 22 20 20 16 20 23 17 14 9 4 3 4 3 4 6 8 14 7 11 8 5 3 5 7 8 6 5 12 10 11 1 8 16 22 20 20 21 20 18 18 18 17
24 22 23 22 17 19 15 14 7 5 8 6 8 1 4 4 6 4 11 11 10 11 8 7 6 11 14 13 12 4 7 10 9 9 18 21 24 22 22 23 23 23 22 22 22
22 20 21 22 18 19 21 4 11 12 6 8 7 6 2 2 4 7 12 9 12 13 9 6 11 12 7 10 12 14 16 17 15 13 12 20 33 25 27 29 26 25 24 24 24
24 22 21 21 20 20 11 10 24 18 5 5 11 6 4 6 3 11 14 7 11 12 16 8 2 4 13 12 13 15 16 15 18 17 18 21 27 16 8 11 15 21 24 23 24
22 20 22 18 14 10 7 20 19 5 3 9 9 7 12 7 5 10 17 6 5 12 10 9 10 6 9 12 12 15 8 13 14 11 8 2 11 17 15 13 12 12 14 17 18
22 30 24 16 10 5 9 19 19 2 7 11 7 10 10 11 10 5 16 4 8 8 6 3 6 11 13 15 10 7 6 7 9 12 14 17 7 11 3 11 10 14 14 14 14
37 31 24 18 15 11 10 14 9 5 6 8 7 12 13 14 7 7 7 3 1 7 8 10 2 5 8 10 13 0 7 10 11 8 9 18 15 20 14 10 8 7 11 12 12
44 35 23 21 10 8 5 3 4 4 6 9 9 12 14 12 10 9 11 10 7 6 8 5 16 8 7 7 7 11 3 3 4 6 8 2 11 22 6 6 13 21 14 14 15
34 9 11 19 25 10 9 2 3 6 7 5 13 16 7 16 7 9 11 10 14 6 2 3 3 13 12 15 6 13 13 6 6 6 8 2 12 8 9 10 12 8 9 11 14
24 8 5 12 21 13 5 5 3 6 11 12 12 8 5 11 5 8 9 8 9 14 6 5 5 2 11 7 12 5 10 13 13 21 13 13 22 25 25 22 15 9 5 10 12
18 6 5 18 20 13 3 2 2 6 18 17 6 7 9 14 9 12 12 4 10 14 12 2 4 6 2 7 11 10 0 4 6 6 11 14 17 13 9 3 9 2 7 12 13
5 2 10 22 18 3 2 1 5 13 12 3 7 9 8 12 10 10 5 3 8 10 16 7 5 3 4 13 14 9 6 6 8 9 7 14 12 2 11 12 5 2 6 9 12
2 1 15 23 3 2 3 3 7 10 2 4 6 8 13 10 9 8 8 4 7 10 10 11 4 8 14 10 13 15 16 20 9 12 10 17 20 6 3 8 4 7 8 9 9
1 3 16 3 3 3 2 3 4 4 3 3 4 4 3 7 5 7 5 2 10 10 10 11 6 4 4 3 6 9 16 23 19 13 19 10 14 3 8 13 8 6 10 10 10
1 3 2 1 1 5 4 4 5 5 5 7 8 7 6 4 1 3 6 2 9 12 6 11 5 8 9 11 5 10 18 13 17 12 22 21 33 23 15 15 15 17 11 9 6
2 2 1 3 4 5 1 4 8 4 4 3 4 4 4 3 4 3 7 3 4 8 8 8 5 10 18 24 21 23 26 25 18 24 16 29 23 25 17 18 18 16 8 9 6
3 1 2 4 8 9 5 5 5 4 3 3 4 5 4 4 4 5 7 7 4 9 9 7 5 5 15 22 21 20 21 20 17 18 19 27 28 25 22 19 14 12 11 12 7
8 5 1 7 7 9 6 6 6 7 1 3 4 4 4 7 5 7 7 4 3 5 12 5 3 3 6 15 25 6 5 8 7 9 10 15 20 14 13 8 10 11 12 11 10

GFSSW_925_spd_033.txt.gz
Wind_Speed
23 23 23 19 17 17 14 13 11 11 10 9 10 10 11 8 7 13 16 10 11 8 4 6 9 10 9 7 9 12 13 16 21 21 15 8 8 12 7 11 6 9 12 8 4
23 22 23 22 19 16 17 15 13 11 10 8 8 9 8 5 11 18 15 11 11 9 13 11 11 11 10 12 7 13 13 20 16 14 13 12 12 13 9 16 16 10 7 2 3
22 22 22 23 21 19 18 17 13 12 10 8 7 7 7 5 10 13 26 19 14 12 12 14 10 11 13 10 14 14 19 14 13 8 9 12 12 13 11 14 15 17 13 8 4
22 22 22 22 22 20 16 21 16 13 11 8 6 6 5 6 6 5 7 12 17 15 15 13 13 13 10 11 15 16 15 19 11 6 9 13 15 16 18 17 16 13 8 3 9
24 24 22 21 22 21 19 15 18 14 13 9 7 5 3 8 11 5 4 6 10 16 18 14 14 13 12 11 9 12 18 12 13 13 13 14 17 18 19 17 16 19 13 14 15
24 25 23 23 23 23 21 17 18 15 14 10 7 6 7 11 0 2 5 5 11 18 16 11 5 8 6 8 10 2 12 15 13 15 15 17 21 19 17 21 22 22 21 20 20
25 24 26 24 24 23 22 20 15 19 16 12 9 7 8 9 2 3 6 5 5 14 15 15 5 5 3 5 9 8 14 15 18 18 15 11 20 25 26 23 23 23 22 23 23
26 24 25 25 24 23 23 22 11 22 17 13 11 7 6 3 6 5 6 8 5 10 9 13 8 5 7 1 4 7 12 12 3 8 13 9 17 9 9 16 22 23 21 21 23
26 25 25 23 24 22 21 22 17 22 19 15 9 8 6 4 7 10 9 10 9 9 8 12 8 3 4 9 8 10 10 13 9 9 8 14 12 7 3 8 13 15 15 17 19
25 26 23 22 20 21 19 22 15 23 19 13 4 5 7 6 8 9 11 11 11 12 9 8 7 6 7 10 8 11 15 12 11 4 8 15 21 20 19 19 18 17 17 18 18
23 22 21 20 20 19 15 13 3 7 11 7 12 2 11 9 11 10 15 14 11 12 7 8 8 13 17 17 15 9 9 11 10 8 16 21 22 20 20 21 22 21 21 22 22
23 23 21 21 18 19 14 3 7 4 6 7 11 7 9 10 7 11 17 10 11 12 10 5 12 15 11 10 11 13 13 15 14 11 12 18 28 25 27 28 24 24 24 24 24
26 20 20 18 20 18 17 12 16 13 4 13 13 13 8 9 8 16 17 13 13 14 15 11 2 4 14 11 12 13 12 11 14 17 18 21 25 17 10 12 17 22 24 25 25
24 24 20 22 17 14 13 7 20 4 4 10 11 8 9 7 5 16 20 9 7 15 12 10 8 5 10 13 11 12 8 8 10 8 6 4 11 15 16 16 13 12 14 15 17
26 28 24 22 12 9 4 10 13 3 6 17 11 12 16 11 15 11 19 5 11 8 7 4 6 12 12 12 8 6 3 6 8 10 13 14 7 13 5 9 11 13 13 12 13
31 40 39 28 24 18 5 3 8 2 5 7 7 13 18 13 8 11 14 4 3 7 11 10 3 5 9 7 10 4 4 7 9 5 8 14 16 19 11 16 16 12 16 5 9
34 34 22 12 8 15 9 2 4 5 12 10 9 14 17 15 11 13 14 11 8 5 8 10 16 8 10 8 6 7 1 2 3 4 7 6 9 18 17 16 7 6 10 11 10
37 26 7 12 12 16 10 2 7 7 6 7 15 17 9 17 10 15 15 12 16 10 4 8 6 17 12 14 5 12 9 4 5 7 11 11 10 8 8 6 6 11 13 12 12
34 15 4 10 21 13 2 4 2 11 10 13 17 9 8 19 8 11 13 11 13 13 7 6 3 1 10 7 11 5 8 10 13 18 11 9 20 22 24 23 20 18 15 12 8
22 7 3 13 19 13 4 7 4 3 14 18 7 6 8 17 10 13 13 12 9 17 12 2 3 6 6 6 9 11 3 2 4 5 11 11 19 14 13 16 11 5 6 8 8
5 1 10 17 13 1 3 2 2 10 11 2 9 10 10 15 10 15 16 5 15 13 15 7 4 5 3 11 13 10 7 6 6 7 6 14 11 8 12 8 12 11 7 6 9
4 3 14 14 3 1 3 3 10 13 0 2 7 6 16 16 10 11 8 2 8 9 11 8 3 6 12 9 9 13 13 17 7 8 6 11 19 16 12 14 4 7 9 6 7
3 4 6 4 3 2 2 3 7 3 2 2 4 2 6 13 6 5 6 4 9 12 9 10 5 3 2 3 12 11 16 17 18 14 20 15 16 2 6 10 17 15 12 10 6
2 3 1 2 5 7 4 4 5 3 7 8 9 11 10 12 5 7 5 4 7 10 8 5 5 8 7 6 5 6 15 16 12 8 17 22 31 27 24 20 21 16 19 17 9
2 2 1 2 4 7 5 3 10 4 3 2 4 7 6 4 4 3 4 5 5 6 5 5 4 11 16 20 18 19 22 22 18 19 14 28 26 28 23 22 13 16 14 12 9
3 3 2 3 8 6 4 2 3 4 1 3 7 6 4 3 2 4 7 6 5 9 10 5 4 4 12 19 16 16 22 16 15 17 16 21 26 24 20 16 11 15 13 12 12
5 4 3 4 8 6 6 8 4 5 4 7 6 4 3 4 1 2 3 2 1 3 11 5 3 3 6 12 20 7 2 8 11 13 11 10 18 15 14 13 10 7 9 12 11

GFSSW_925_spd_036.txt.gz
Wind_Speed
21 21 21 20 22 21 17 17 14 13 12 12 10 11 10 11 11 9 17 13 20 15 3 7 10 12 13 8 13 7 5 11 16 14 12 11 6 5 2 7 6 3 4 8 12
21 22 22 21 20 22 20 15 17 14 12 12 11 9 9 8 10 16 16 14 12 9 10 11 10 12 8 9 5 6 7 9 10 13 11 14 5 3 3 7 8 7 8 13 7
22 21 22 21 21 21 21 20 16 17 13 11 11 8 8 5 8 9 23 20 12 11 11 15 14 10 10 9 11 7 12 8 13 15 6 9 11 4 6 5 8 9 8 10 11
22 22 22 22 21 20 20 20 19 19 15 12 10 8 5 7 5 4 4 26 16 12 12 14 12 7 8 13 12 16 12 13 15 14 5 6 9 10 7 8 10 10 9 3 7
24 24 22 23 22 22 22 21 20 18 16 13 10 7 3 6 8 5 6 13 10 14 17 13 11 9 11 9 12 12 16 12 9 9 7 7 8 10 14 10 11 10 11 6 4
25 25 24 23 23 22 22 20 20 18 17 14 11 8 5 11 3 5 6 6 10 16 18 15 5 6 6 12 8 4 8 11 14 7 8 12 11 12 8 11 14 15 13 10 8
26 26 25 24 23 22 23 21 20 18 17 15 12 10 10 11 3 3 6 6 7 16 11 13 3 2 1 3 9 5 8 11 13 10 10 5 14 18 18 18 17 15 13 15 12
25 25 26 24 24 22 21 20 20 20 14 18 13 12 6 5 11 5 6 8 3 5 14 12 4 3 2 4 2 5 10 8 10 19 13 11 15 11 13 18 20 18 15 14 13
23 24 24 24 22 20 21 20 19 21 16 21 11 13 6 8 7 13 10 11 9 8 3 11 8 2 5 3 2 6 6 12 9 5 4 9 6 11 8 5 7 8 9 15 14
23 22 22 22 20 19 20 16 19 17 13 18 11 9 9 9 10 15 13 9 10 8 7 6 3 4 5 7 6 7 10 8 8 5 4 8 13 12 13 14 11 9 10 9 8
22 21 23 23 21 20 17 8 3 6 10 5 10 3 15 16 15 12 15 14 9 9 7 10 4 7 12 10 13 12 8 8 11 9 6 9 15 15 15 15 17 15 13 13 15
21 23 20 18 17 19 15 3 4 6 5 13 8 13 13 18 10 12 17 8 8 8 6 3 7 10 11 11 10 8 7 10 9 9 10 10 21 18 21 22 19 18 17 16 13
22 20 20 21 24 21 14 15 7 11 4 11 11 13 14 8 8 15 15 10 11 9 8 8 2 13 11 7 4 7 6 7 9 11 10 15 18 13 10 17 20 21 21 17 16
21 20 20 21 13 11 15 6 9 7 2 10 9 10 9 7 6 16 16 9 6 11 9 7 6 5 4 9 7 6 3 6 5 6 4 9 7 7 10 9 7 9 8 10 13
24 25 24 26 8 6 2 5 9 3 4 14 8 14 13 8 15 12 18 7 11 9 7 4 4 5 5 6 6 3 7 5 5 6 9 4 4 6 6 6 6 8 8 6 9
25 28 33 21 10 21 14 4 8 3 4 5 7 13 14 13 5 12 10 3 3 5 8 5 3 1 4 3 4 6 2 4 6 4 5 12 9 6 0 2 6 7 7 9 5
30 32 26 10 3 18 13 5 3 4 4 8 9 13 17 13 10 16 11 6 5 4 4 4 8 3 3 4 5 3 2 2 2 3 6 3 8 12 15 15 16 8 7 1 6
30 33 12 4 5 22 16 2 5 4 2 7 14 16 11 15 8 13 12 7 9 6 6 6 4 15 9 9 4 7 4 3 5 3 3 6 7 6 8 9 6 5 6 8 2
30 15 4 8 15 17 2 3 3 3 8 10 18 7 9 11 7 10 10 8 10 10 4 6 3 3 11 6 9 5 6 2 3 5 2 5 6 9 13 14 12 9 10 8 4
9 4 5 19 13 2 1 2 4 5 14 16 5 6 10 14 8 9 12 12 8 14 8 4 3 3 8 6 9 6 3 1 0 3 6 6 8 9 7 8 6 9 5 5 6
5 2 4 14 7 3 1 2 4 8 16 1 9 7 10 14 9 9 11 6 12 12 13 3 2 2 5 8 9 6 5 4 3 3 4 5 4 2 6 7 8 8 1 4 3
3 3 3 8 3 3 1 2 2 4 2 1 6 10 13 14 8 10 11 4 9 8 13 5 3 3 8 7 12 8 8 9 3 5 4 5 12 22 16 3 8 10 5 7 8
2 2 3 3 1 1 3 4 4 3 1 1 4 7 15 10 8 5 10 5 5 5 11 7 3 2 2 3 8 5 7 11 11 7 13 9 10 4 15 22 18 12 9 11 4
2 2 1 2 2 3 1 4 3 6 11 8 8 7 12 7 3 6 7 2 3 3 8 8 3 5 3 2 4 4 5 8 7 6 12 21 31 25 23 22 18 15 15 12 9
0 1 2 1 3 6 2 5 3 3 4 3 2 8 10 4 6 5 9 8 4 6 3 2 2 4 7 11 9 11 15 17 16 18 14 24 25 28 23 24 20 15 12 7 6
3 2 3 2 3 10 1 0 1 7 7 5 10 7 5 5 5 7 6 5 5 7 6 3 3 3 5 13 16 18 17 17 15 16 15 18 24 19 16 15 10 9 11 10 7
7 5 3 1 4 1 2 3 4 4 7 8 6 5 9 7 6 5 5 2 4 6 8 5 2 1 4 7 10 7 5 6 8 11 10 9 15 20 17 10 5 4 5 6 7

GFSSW_925_spd_039.txt.gz
Wind_Speed
20 20 20 20 20 20 19 19 19 15 13 11 11 11 11 10 13 11 11 13 29 10 4 6 8 10 11 3 3 3 2 5 7 8 6 12 5 4 1 5 4 2 5 8 19
21 20 21 20 20 20 20 20 20 17 16 13 11 11 10 8 10 17 13 15 12 17 16 10 6 9 2 4 3 5 6 7 4 9 6 6 4 6 3 3 1 4 3 16 18
21 22 22 20 22 20 20 20 21 21 14 14 12 9 8 5 4 7 18 20 18 13 12 15 12 4 6 4 5 5 5 4 10 11 2 4 7 5 5 1 6 6 7 5 12
22 22 22 23 20 22 21 20 21 20 20 15 12 9 5 4 5 2 4 25 19 16 12 7 5 3 7 8 6 6 4 13 13 13 4 3 5 7 2 4 8 3 3 4 8
23 22 22 23 21 21 22 21 21 20 18 13 11 8 4 4 6 6 2 22 20 14 14 8 4 5 6 6 6 5 7 11 9 8 5 3 4 4 8 8 11 9 5 5 6
23 23 23 21 23 22 21 20 21 20 19 19 13 9 4 6 8 7 9 16 15 16 16 10 5 8 4 6 5 3 2 3 5 7 5 7 6 2 3 8 12 12 13 6 7
23 23 24 21 20 22 22 20 20 20 19 19 15 11 6 10 6 10 10 12 11 18 6 19 5 4 4 2 3 3 4 7 6 6 5 7 7 7 9 9 13 13 12 16 9
23 22 23 22 19 20 20 19 20 20 20 19 20 12 5 9 19 9 11 10 6 7 23 12 2 1 2 1 2 4 3 2 7 10 8 9 12 6 11 8 13 19 17 14 19
22 20 20 20 19 19 19 20 22 19 19 21 16 9 5 9 13 18 12 7 8 5 7 13 6 0 2 4 1 2 3 5 7 9 6 11 2 14 9 11 9 12 17 16 17
21 19 19 19 20 16 17 20 22 17 13 14 9 4 5 8 10 17 16 13 4 5 5 5 3 3 2 4 5 5 4 4 6 5 2 5 9 8 10 8 10 10 9 10 10
20 19 19 17 15 13 16 10 3 3 8 5 9 3 1 12 17 16 18 11 6 3 4 4 3 5 9 6 4 5 6 5 4 5 2 6 9 10 11 10 17 17 12 13 15
21 20 18 16 16 15 18 3 2 4 5 12 9 14 15 18 7 10 15 6 6 6 5 4 2 5 8 9 10 5 7 5 6 5 4 11 20 17 18 19 19 19 11 13 14
22 19 19 20 15 15 9 9 8 5 4 9 6 14 7 5 6 13 11 7 8 6 6 5 2 7 5 2 7 2 4 3 5 7 6 7 9 8 7 14 19 19 19 15 17
22 21 21 21 16 3 5 3 11 6 3 10 6 9 7 5 4 9 10 6 4 9 6 1 1 3 4 3 3 0 4 5 4 4 4 6 6 7 9 10 5 10 10 16 16
21 22 26 21 11 4 3 5 14 7 4 13 9 17 7 2 13 8 7 1 6 6 6 6 3 5 3 2 5 3 6 5 4 3 5 3 2 8 6 6 6 7 9 10 11
24 27 29 20 8 14 16 4 3 2 4 6 8 11 8 10 2 7 4 1 2 4 5 4 3 3 6 2 4 5 4 3 3 2 2 8 7 4 3 3 3 3 6 7 4
29 29 27 13 3 8 18 6 3 3 2 6 8 15 12 9 6 9 9 5 4 5 2 2 2 3 3 4 2 4 5 2 2 2 6 2 4 7 9 10 6 9 7 4 7
28 29 11 5 1 18 12 2 2 2 3 8 15 16 7 12 9 9 7 4 3 3 4 5 3 8 5 5 6 6 5 4 5 3 4 1 7 6 9 13 8 8 7 7 8
18 6 4 6 18 15 1 2 2 4 2 8 14 6 5 4 7 7 5 5 5 4 5 4 3 4 9 3 5 3 3 4 1 2 2 5 7 8 8 8 7 5 4 10 3
6 4 6 9 9 2 2 4 4 5 9 12 4 3 7 7 6 5 8 6 5 8 1 1 4 5 4 4 4 5 4 2 2 2 5 6 5 8 4 5 7 9 9 4 4
7 3 6 8 1 1 1 3 3 8 12 2 5 7 10 6 6 7 11 6 9 9 6 1 2 2 2 5 6 4 5 4 2 3 3 4 5 5 6 2 4 7 4 4 8
3 3 6 11 3 1 3 3 4 4 9 5 4 8 12 6 7 3 9 2 9 10 6 3 4 3 8 6 8 5 6 6 4 4 4 3 7 12 17 14 9 16 18 20 15
2 1 3 4 2 1 3 3 4 4 3 3 1 4 14 5 6 2 5 5 8 7 12 6 1 2 1 3 1 5 6 8 3 2 8 3 7 5 15 22 24 22 19 19 14
2 2 2 2 1 1 1 2 4 5 4 5 11 14 7 1 5 7 4 4 4 3 8 6 4 5 5 3 3 3 3 6 9 4 8 15 23 26 23 23 23 19 18 19 15
1 1 1 2 2 2 1 5 7 6 6 5 8 9 6 5 5 5 7 3 5 2 4 4 2 1 5 6 4 6 9 9 10 15 10 25 21 25 26 19 21 15 8 8 8
2 2 3 3 4 5 5 3 6 5 5 7 9 12 10 4 2 8 7 4 4 2 3 2 2 2 5 9 10 9 13 13 15 18 19 23 25 19 15 16 13 5 7 12 7
4 3 2 4 3 1 3 2 3 2 7 6 5 7 10 3 5 4 4 3 7 7 5 5 3 1 4 5 6 5 7 12 6 5 6 9 14 15 18 13 8 10 12 11 12

GFSSW_925_spd_042.txt.gz
Wind_Speed
20 20 18 18 17 18 18 20 19 20 22 16 13 12 10 10 11 12 13 14 25 11 10 6 9 12 5 2 3 4 3 4 5 7 5 4 4 5 4 3 1 1 7 7 24
22 21 21 21 18 18 18 18 20 21 22 22 16 12 9 8 11 16 17 17 18 22 6 8 4 7 2 4 3 4 5 7 5 5 3 5 2 6 7 3 2 3 4 18 22
22 21 21 21 21 18 19 19 18 20 22 23 15 12 8 5 5 8 12 23 22 19 20 15 5 4 4 3 5 4 5 8 5 7 0 4 5 2 4 5 4 3 4 5 6
23 24 23 21 20 19 18 19 18 19 20 21 21 10 6 5 7 2 1 27 19 18 19 8 4 3 6 6 5 3 6 7 4 7 3 3 4 3 4 6 4 2 1 6 6
23 22 21 24 21 20 20 19 19 18 19 19 20 14 7 4 8 5 3 22 21 21 17 6 5 5 5 6 4 3 3 5 7 8 4 6 6 6 7 9 9 4 4 6 6
25 23 20 19 20 19 18 18 19 17 19 19 18 13 5 7 10 9 5 24 21 21 13 10 6 7 4 3 7 2 6 5 4 4 3 5 6 5 4 7 10 7 6 8 7
24 22 21 21 18 17 18 18 18 17 17 18 17 16 7 13 6 11 9 19 26 23 6 14 9 4 5 1 5 3 4 3 5 4 4 2 14 8 10 10 10 12 11 7 9
22 20 19 19 16 16 17 17 16 18 18 20 18 13 6 19 9 5 11 10 13 15 19 16 8 1 3 2 3 5 4 0 4 3 6 9 18 3 10 7 11 11 10 12 9
20 18 18 18 15 17 16 17 19 19 18 15 12 7 5 10 9 20 12 7 10 14 18 9 7 1 2 6 3 1 2 4 6 8 6 9 2 10 15 11 9 11 10 10 13
19 18 18 17 15 14 16 19 23 16 10 7 10 4 5 6 11 18 16 10 3 7 7 4 4 3 3 4 6 6 3 3 5 4 1 7 8 10 7 6 10 10 11 11 11
21 21 20 16 15 14 16 11 4 2 2 4 6 3 4 8 17 14 17 6 4 3 5 5 3 4 8 4 3 4 1 2 4 3 5 7 5 12 13 7 10 14 13 13 14
22 21 18 18 17 15 14 2 3 2 5 8 6 12 7 11 8 12 17 6 5 5 4 3 2 8 14 11 7 2 3 4 6 1 3 7 16 16 15 13 15 20 19 15 13
23 20 19 16 20 15 6 9 6 1 2 5 9 14 4 6 4 13 10 5 6 6 4 5 3 6 6 7 7 4 4 2 5 5 1 7 10 6 6 7 9 16 16 13 15
22 20 20 22 14 2 3 6 10 5 2 4 7 5 4 5 4 6 9 6 4 8 7 4 1 6 6 2 3 2 3 2 2 4 4 5 6 6 8 10 7 8 8 12 13
22 21 23 21 12 4 1 9 12 2 4 9 5 7 5 0 13 7 3 2 5 7 5 4 5 6 4 4 4 4 5 4 2 3 4 2 2 8 4 6 5 4 5 8 10
25 24 22 16 5 6 10 12 2 2 2 6 6 10 9 7 2 6 2 3 3 6 5 3 3 3 5 4 4 7 5 6 4 3 2 4 4 6 3 4 1 4 9 9 9
30 24 21 8 1 6 17 3 3 2 2 5 8 16 14 5 5 7 6 3 4 6 3 2 2 2 4 6 3 5 6 2 4 3 6 1 3 9 9 11 4 8 11 10 4
16 9 10 5 9 20 11 1 1 5 4 8 13 14 6 9 7 8 7 4 2 5 4 4 2 6 2 4 6 3 5 4 5 2 4 2 5 6 6 8 5 3 6 5 6
18 20 17 14 13 13 1 3 3 4 5 11 14 5 5 4 7 6 6 5 4 3 5 4 2 2 5 3 6 3 2 3 3 3 3 4 7 9 3 4 5 8 10 10 9
13 9 10 9 2 7 1 5 3 3 10 10 4 2 4 5 6 5 9 6 3 6 1 5 3 2 2 5 2 4 6 3 3 1 4 5 5 6 4 4 5 7 8 7 7
4 2 6 12 2 2 2 5 5 7 2 2 3 5 8 6 8 5 9 1 7 4 4 0 4 2 4 3 6 4 2 2 3 3 3 4 6 6 4 2 7 7 7 7 7
3 3 4 12 3 1 2 2 3 5 5 4 5 10 4 5 4 3 8 3 7 6 5 1 4 3 7 2 3 4 5 5 4 3 2 2 8 7 4 2 7 17 15 20 18
2 1 2 4 2 2 4 4 2 3 5 4 4 3 5 5 5 3 5 4 9 8 8 4 2 2 3 5 3 3 5 4 4 2 6 1 6 1 9 20 19 17 18 17 14
2 3 3 2 1 2 2 2 3 4 4 4 5 10 4 3 3 4 3 5 3 3 9 6 3 4 5 5 3 3 5 6 8 3 3 9 17 22 17 21 20 19 16 11 9
3 2 0 3 3 2 3 5 6 7 7 7 7 4 4 4 6 4 3 3 6 4 4 4 3 3 5 6 2 5 5 6 8 17 6 14 16 25 22 22 18 15 9 11 9
2 2 3 3 4 4 5 6 7 6 5 4 6 3 8 4 1 5 6 3 3 1 3 1 1 2 4 4 7 7 10 11 12 15 17 21 23 23 20 11 11 10 12 12 13
5 3 2 4 2 2 2 4 5 2 7 6 5 7 10 4 3 4 4 5 6 6 3 4 3 2 4 2 4 5 10 12 6 6 8 7 10 9 13 13 5 9 11 13 14

GFSSW_925_spd_045.txt.gz
Wind_Speed
22 22 20 20 20 17 17 18 19 20 23 22 22 14 13 11 13 13 15 16 23 7 11 16 16 13 5 3 4 4 3 4 5 7 4 1 3 4 4 5 3 3 4 4 27
24 24 22 21 22 19 16 16 19 20 22 23 23 20 13 10 12 18 22 21 21 18 12 15 7 10 3 5 3 4 4 8 5 5 1 4 3 3 6 7 4 4 4 11 28
26 25 22 22 21 19 19 16 16 19 20 22 21 25 15 9 4 10 19 31 24 23 14 8 9 7 6 4 4 5 5 5 4 4 0 3 5 1 3 6 3 4 7 4 4
25 24 23 21 22 20 18 19 18 19 20 20 20 18 14 11 7 2 2 24 23 23 22 7 4 7 5 6 4 3 6 5 6 5 1 1 4 3 5 8 3 4 5 6 1
24 24 22 23 22 21 17 16 16 17 19 19 18 18 9 5 8 5 5 17 23 26 22 8 5 5 6 7 3 3 2 4 4 6 4 3 6 6 6 11 3 5 6 8 7
23 23 22 22 21 19 16 16 16 18 19 17 18 16 5 8 10 14 14 22 22 23 16 11 8 6 5 3 8 4 7 6 4 4 3 5 6 5 2 7 9 7 9 9 8
23 21 21 20 19 18 16 17 16 17 17 17 16 13 6 13 4 6 7 25 24 21 9 15 7 6 3 3 5 3 3 1 4 3 5 2 11 8 7 9 11 14 8 9 10
23 19 20 19 19 17 17 19 17 17 16 17 15 10 4 17 11 4 4 12 21 20 18 19 11 3 3 2 4 6 4 3 3 6 5 7 20 6 9 7 10 11 14 9 10
22 19 19 19 19 17 17 17 19 19 15 14 10 6 3 2 11 17 5 6 12 12 12 12 8 3 3 5 3 0 4 4 5 4 3 8 3 5 9 9 10 12 13 9 10
22 20 20 19 17 17 18 20 25 15 7 7 9 4 3 6 10 11 10 6 3 7 5 5 5 4 4 4 6 5 4 3 4 3 3 7 8 14 9 5 8 9 13 12 11
20 21 19 17 17 17 17 9 4 2 1 6 4 4 1 5 15 10 12 6 4 3 5 6 4 9 13 8 3 5 4 3 3 2 3 6 5 12 10 6 9 12 14 15 16
21 21 19 16 15 16 15 2 4 3 4 9 9 13 4 6 6 7 16 6 5 5 6 4 4 4 4 2 3 0 2 2 4 0 2 6 12 16 16 11 14 17 17 17 14
23 20 18 16 17 14 4 5 5 3 2 1 2 5 6 5 5 9 12 3 4 5 5 6 4 14 10 6 5 4 4 3 4 4 2 7 8 5 4 4 5 10 12 14 14
25 21 18 16 12 2 2 8 8 3 2 4 3 3 4 5 4 5 11 5 3 6 4 4 4 12 9 7 6 4 1 3 3 4 3 5 6 6 6 11 6 10 9 8 9
31 25 19 14 9 3 1 4 8 1 5 8 6 2 3 1 13 3 2 2 6 4 5 2 4 6 5 3 4 4 5 5 3 3 3 2 1 8 5 6 5 4 5 6 8
26 13 10 10 1 2 6 11 2 4 4 5 6 6 8 5 3 5 3 3 4 6 5 3 2 3 3 4 2 8 5 6 4 2 2 2 3 6 3 1 7 6 11 9 11
23 14 4 1 3 9 11 3 3 4 3 3 4 11 9 13 6 4 4 4 3 5 3 4 3 2 5 7 6 5 5 2 4 3 4 3 2 9 8 7 4 9 10 10 9
22 17 22 13 12 19 7 3 4 2 4 4 7 15 5 5 8 4 4 3 4 4 3 4 1 3 1 4 5 1 5 4 4 1 4 1 5 6 3 5 2 3 3 6 10
18 18 15 14 10 6 2 3 2 3 5 4 11 6 4 5 4 6 2 4 1 1 5 4 2 1 2 3 5 4 1 2 5 3 3 3 6 9 4 7 7 8 9 9 7
6 4 7 9 3 4 2 3 3 3 6 5 4 3 5 4 4 4 3 3 2 2 2 3 4 2 2 4 5 3 7 3 3 2 3 3 5 4 2 3 4 7 8 9 7
3 3 3 11 2 2 2 3 4 6 8 5 3 5 5 5 7 3 8 1 3 3 3 4 3 1 5 3 6 3 1 4 4 3 3 3 6 6 3 1 6 8 9 7 9
4 3 6 10 3 2 3 3 3 5 3 4 6 8 4 4 3 3 6 3 6 6 5 1 4 3 2 1 1 3 5 5 4 3 2 1 7 3 5 2 7 15 13 14 15
1 3 4 5 3 3 4 4 2 2 2 2 3 2 3 5 5 3 3 1 7 5 6 4 2 3 5 4 3 2 3 4 4 3 5 3 5 1 6 17 15 16 17 15 13
2 3 4 3 1 1 2 2 3 4 2 3 4 4 4 3 4 4 2 4 4 5 5 6 3 4 5 4 3 2 4 6 6 3 3 7 9 17 17 16 19 16 11 10 11
3 1 1 4 3 4 1 4 5 5 3 5 4 5 5 3 3 3 3 3 5 5 4 4 3 3 4 5 3 4 4 7 7 10 5 2 6 18 18 18 15 6 10 11 12
2 2 3 3 4 5 4 6 6 5 5 4 6 7 5 3 1 6 6 2 2 3 3 2 1 2 4 3 6 4 7 8 8 9 12 18 22 23 20 12 8 6 10 12 12
5 3 1 4 5 3 3 3 5 2 7 7 3 4 9 5 1 4 1 4 5 6 3 3 4 2 4 3 4 5 10 11 5 5 9 12 14 12 8 10 6 5 9 11 12

GFSSW_925_spd_048.txt.gz
Wind_Speed
23 24 25 25 22 21 22 18 17 17 19 23 23 23 27 16 14 15 16 14 24 10 5 19 17 10 3 2 3 3 3 5 6 7 4 1 2 2 1 2 4 2 1 7 10
22 23 24 23 23 22 21 17 17 16 17 21 22 24 25 14 15 20 21 20 20 15 14 17 10 10 3 4 3 4 4 9 5 5 4 2 2 2 3 6 3 2 8 8 17
23 24 23 22 23 23 21 20 18 16 16 19 21 21 22 15 1 9 27 32 23 20 17 17 16 7 5 3 4 5 5 4 4 3 1 3 3 1 1 4 4 2 4 5 2
24 24 23 23 23 22 21 18 17 18 16 17 18 19 19 10 7 1 3 17 29 22 19 13 9 9 6 6 5 3 5 5 3 3 1 2 0 2 5 6 4 3 0 3 1
23 23 23 22 22 21 18 18 16 17 17 17 17 16 11 3 8 5 4 4 30 27 24 6 9 5 7 7 5 4 2 5 5 5 3 1 5 6 6 8 7 6 4 4 3
23 22 21 20 20 19 18 17 15 15 16 16 14 13 9 8 8 14 17 6 27 28 21 12 7 4 5 5 6 6 6 5 4 4 3 4 5 5 4 4 6 5 10 7 6
23 23 20 18 18 18 18 16 14 15 15 14 12 10 8 12 4 5 4 18 26 27 11 17 12 5 5 4 6 4 3 2 5 4 5 4 7 7 8 8 11 11 8 9 9
22 21 19 19 18 18 16 16 14 15 15 13 12 9 6 7 22 10 6 13 23 22 18 18 12 4 3 4 4 6 3 2 3 6 5 7 5 8 8 7 11 10 9 9 12
23 20 19 19 19 16 16 18 19 17 15 11 8 3 5 2 5 17 10 6 18 11 17 20 10 5 3 6 4 1 4 4 5 5 2 8 3 3 4 2 9 10 9 7 8
24 19 18 19 18 15 15 17 19 10 4 6 6 1 6 5 9 5 6 10 5 7 9 8 6 5 4 4 8 6 3 2 4 1 2 4 7 9 8 6 8 9 10 10 8
25 21 21 19 16 15 13 9 5 3 2 6 3 5 4 1 10 2 5 4 6 4 8 13 8 13 17 7 5 5 4 4 2 2 3 6 5 12 12 6 9 10 11 13 14
26 22 19 16 15 14 11 1 3 1 5 6 10 9 15 3 4 5 9 4 4 6 6 1 6 4 11 7 6 5 5 2 2 1 2 6 10 15 14 8 11 13 13 13 9
28 25 19 14 13 13 3 5 4 2 3 3 1 3 3 2 8 8 10 2 3 5 5 5 5 12 5 6 8 3 3 3 3 3 2 7 6 5 4 3 5 7 6 6 8
28 29 19 9 6 1 4 7 6 3 4 0 2 3 3 3 3 3 8 4 2 3 4 4 4 12 12 6 3 3 4 3 4 3 3 4 5 7 5 9 4 6 7 7 8
29 18 3 4 2 3 2 2 7 3 5 4 2 2 3 3 12 4 1 0 5 5 3 1 8 10 4 6 9 3 5 5 3 4 2 3 3 8 4 5 6 8 10 8 7
24 18 7 5 4 2 5 11 3 5 1 3 3 4 7 12 3 4 1 1 4 5 8 4 3 2 3 5 2 10 5 6 4 2 2 2 3 6 2 2 5 5 7 9 9
23 16 11 4 2 10 7 2 4 5 2 2 3 3 7 10 7 3 3 4 4 4 4 4 3 2 4 7 5 3 4 2 4 3 3 1 1 7 4 4 1 3 6 8 8
15 21 19 10 10 11 1 3 7 2 3 6 4 7 7 6 7 3 4 4 5 5 3 4 1 1 1 3 6 3 4 4 4 1 2 1 5 4 4 4 4 2 4 6 8
7 9 11 9 1 5 2 5 1 2 5 2 7 7 5 6 5 3 3 4 3 3 4 4 2 1 3 2 3 3 2 2 6 2 2 3 6 5 4 2 2 7 7 9 9
5 4 5 11 6 4 3 3 1 2 4 3 4 4 4 2 4 4 2 2 3 2 1 2 4 1 2 3 7 3 7 3 3 1 2 4 5 3 3 4 8 13 14 10 6
3 3 3 12 1 3 2 3 2 5 5 2 3 5 4 4 4 2 4 2 2 1 5 3 3 1 4 1 6 2 1 5 4 2 2 2 4 5 5 3 6 9 9 9 8
2 3 5 9 4 2 2 3 1 3 2 3 4 5 3 3 3 3 5 2 5 5 4 2 3 3 1 1 1 2 5 4 4 3 2 1 6 2 4 2 4 8 8 7 8
1 2 2 3 3 4 6 3 1 4 4 3 3 3 2 4 4 3 4 2 6 3 6 5 1 3 2 0 3 3 4 4 4 3 4 4 5 1 6 8 9 8 7 6 7
2 3 4 3 0 1 4 5 5 2 3 4 4 4 4 4 5 3 2 4 5 3 8 6 3 4 5 4 3 2 4 5 5 3 3 5 7 12 12 10 13 9 4 7 9
3 1 1 3 2 5 2 3 3 4 3 5 4 3 4 3 2 3 3 2 5 6 4 3 2 2 3 3 3 3 4 8 7 6 6 4 7 12 14 14 14 8 6 9 10
2 2 1 2 5 4 5 4 2 2 4 3 6 5 4 4 3 6 6 3 3 3 3 1 3 2 3 2 6 4 7 8 9 5 9 13 19 20 17 9 7 4 7 10 10
5 4 2 2 4 1 2 4 2 3 4 6 3 4 8 4 1 3 1 5 6 6 3 3 4 2 3 3 4 5 9 12 6 6 8 7 12 8 8 9 6 4 6 8 9

GFSSW_925_spd_051.txt.gz
Wind_Speed
21 21 21 21 21 21 20 19 19 16 13 15 16 19 19 21 24 19 18 15 26 9 4 12 12 9 3 2 3 3 2 5 9 9 4 3 4 1 1 1 2 2 2 7 3
23 22 23 22 21 20 20 19 19 17 15 13 15 18 19 21 25 21 17 20 21 20 18 13 11 10 3 4 3 4 4 9 5 6 4 5 3 3 2 2 1 1 4 5 10
23 23 23 22 20 20 19 18 19 18 15 13 14 15 16 13 7 6 26 29 23 20 15 14 17 8 4 3 4 4 4 4 3 4 4 6 3 3 4 3 4 2 1 3 6
22 23 22 21 19 19 18 17 18 18 16 14 13 14 14 12 6 2 2 20 29 24 18 14 12 10 6 6 5 4 5 4 2 5 4 4 4 1 4 4 3 4 1 1 7
22 22 21 20 18 17 16 15 16 14 13 14 14 13 10 6 8 5 5 6 27 27 23 13 14 9 13 8 5 3 2 5 3 3 3 3 3 5 6 5 5 4 4 5 2
22 21 21 18 16 16 15 14 13 12 13 13 13 11 8 9 7 23 16 11 23 28 25 13 12 5 9 6 6 7 6 3 2 2 1 4 4 6 5 3 5 4 9 7 7
23 20 21 18 16 16 16 12 11 10 11 12 10 9 7 13 2 9 8 6 25 29 17 13 19 6 6 5 4 6 4 5 7 4 3 4 5 6 10 6 9 9 7 9 10
22 21 20 18 16 16 14 13 13 14 12 10 8 7 6 8 13 18 4 5 23 25 23 19 13 5 3 4 4 5 2 3 2 9 5 6 5 5 2 4 9 10 9 8 13
24 22 19 16 16 15 14 15 17 16 12 9 4 4 5 3 7 14 11 5 18 20 20 22 11 4 3 6 4 4 4 5 3 7 3 8 2 4 2 3 7 8 10 8 11
26 25 19 17 15 13 14 15 17 6 2 5 2 3 5 4 5 5 4 9 9 12 11 12 5 4 3 5 9 9 4 3 6 3 2 3 5 8 9 2 7 9 11 11 9
31 27 21 15 12 10 9 6 4 3 1 3 4 5 5 5 7 2 3 5 7 11 9 11 6 16 17 5 4 8 5 4 3 1 2 4 4 10 10 6 10 12 13 14 12
33 27 19 13 8 7 8 3 2 1 4 4 8 8 10 11 4 2 5 5 7 7 5 7 12 9 12 8 6 6 6 4 1 2 1 4 9 15 9 5 6 8 10 8 7
33 31 20 10 3 4 3 3 3 2 2 2 2 6 7 9 9 12 6 1 4 10 13 1 1 15 13 9 9 2 5 3 2 1 2 6 5 4 3 3 6 9 4 3 4
32 28 15 7 3 4 1 3 4 3 4 3 3 3 3 2 5 4 7 2 3 7 16 3 3 8 13 15 8 5 3 3 4 2 1 4 4 4 3 5 7 10 10 8 8
29 21 16 9 3 3 4 3 6 4 6 6 2 4 5 3 8 1 4 3 4 6 4 1 9 16 9 2 8 2 4 4 3 4 1 2 2 4 1 4 5 6 7 7 6
25 18 12 9 10 4 7 7 1 5 3 3 4 4 2 5 1 4 4 3 2 9 12 4 1 4 3 5 5 9 5 5 3 2 1 1 2 2 1 2 1 3 5 6 7
18 21 13 10 4 2 1 3 4 5 5 3 2 3 10 5 6 3 1 3 4 4 3 4 4 4 9 8 4 1 3 1 2 2 2 2 1 5 3 2 5 1 5 6 6
9 11 13 10 3 4 7 4 9 2 2 2 0 12 7 5 7 4 2 4 5 5 4 3 4 4 1 4 7 1 1 3 3 3 1 2 5 2 4 4 3 3 6 5 4
8 5 2 3 3 6 2 5 4 2 3 1 6 7 5 8 4 4 3 3 3 1 5 5 3 1 5 3 1 3 2 1 6 2 1 2 5 6 2 3 3 7 5 9 6
6 4 2 6 3 3 3 3 1 4 3 2 4 2 3 3 3 2 2 2 3 3 1 1 5 3 2 3 8 3 6 2 2 3 3 3 4 3 4 5 4 8 7 7 7
3 3 1 8 1 2 3 3 3 2 3 2 3 5 3 4 3 2 1 1 2 3 5 3 3 2 3 1 5 2 1 4 4 1 2 2 3 4 6 5 4 9 7 6 5
4 3 5 5 4 2 3 5 4 3 3 2 3 4 3 2 3 3 3 2 2 4 4 1 4 3 1 1 1 2 4 3 3 3 1 1 5 2 5 4 4 9 7 6 6
3 2 3 3 4 3 2 3 1 3 3 2 2 2 1 3 4 2 2 4 2 3 5 5 2 3 1 1 2 2 4 4 4 3 4 4 3 1 2 6 6 6 6 5 8
2 3 4 4 2 2 3 3 3 1 2 3 3 4 4 4 5 3 2 4 1 3 8 6 3 4 5 4 3 3 3 4 5 3 4 5 5 8 7 6 10 8 3 5 6
3 1 1 3 3 3 1 3 1 3 4 5 3 2 4 3 2 3 3 3 4 4 4 3 3 2 2 1 3 3 4 8 6 5 5 2 6 8 10 8 10 6 4 6 7
3 3 3 3 3 4 2 4 2 0 2 2 5 2 1 4 3 6 6 3 4 2 3 2 3 2 3 0 5 4 7 9 8 3 8 7 17 14 13 6 5 3 5 6 7
6 4 2 4 3 1 1 1 3 1 2 4 4 4 6 3 1 2 1 4 6 6 3 4 5 2 3 2 2 5 9 12 5 5 9 7 10 3 7 6 5 3 2 5 5

GFSSW_925_spd_054.txt.gz
Wind_Speed
20 21 21 20 20 19 18 17 16 16 13 14 13 13 12 13 16 13 12 13 20 10 7 11 14 13 9 8 5 2 9 16 22 20 14 9 12 6 2 8 5 3 3 4 2
21 20 21 21 19 18 18 17 16 16 15 14 13 12 12 11 13 20 13 19 20 19 10 16 17 17 7 9 7 11 14 20 10 10 12 12 12 10 8 9 8 6 2 4 5
21 20 19 19 18 18 16 16 15 15 14 13 13 10 9 9 12 11 18 27 23 20 18 11 17 15 11 9 12 14 16 9 7 8 6 12 10 6 8 10 8 7 1 3 5
21 20 19 18 17 15 14 14 14 13 13 12 12 9 6 4 8 5 8 28 25 21 19 19 18 15 12 13 15 10 15 8 5 5 6 11 8 7 9 3 5 6 3 1 4
23 21 19 17 16 15 14 13 14 13 11 9 8 7 5 7 13 5 9 8 24 26 28 20 21 18 18 17 12 15 5 9 6 7 5 5 7 8 9 6 5 5 4 4 2
23 21 19 18 16 15 14 13 12 11 9 8 7 5 6 13 11 18 12 4 17 31 29 24 18 16 13 11 14 12 7 11 11 7 4 7 7 5 6 7 11 11 12 10 10
24 22 20 19 16 14 14 12 12 12 9 8 8 5 9 16 6 3 18 6 13 31 23 26 16 18 9 9 10 4 13 13 9 9 9 6 14 13 15 14 13 12 10 10 11
26 24 21 18 16 13 13 12 13 14 12 10 7 6 7 10 23 15 7 11 14 29 26 20 21 16 8 5 11 14 7 10 10 16 5 7 14 4 4 10 13 13 13 12 14
29 28 24 17 14 14 13 11 13 15 11 8 5 6 7 4 13 18 13 7 17 27 22 19 13 15 8 14 10 14 10 18 5 9 13 17 8 8 8 5 8 8 9 9 11
30 27 22 16 10 10 10 12 11 2 3 6 2 5 7 8 10 6 11 6 8 22 11 15 8 11 14 15 15 19 15 13 14 7 9 10 14 5 7 7 11 12 12 11 12
33 28 23 12 8 5 6 3 2 3 3 3 2 4 7 13 9 3 3 5 14 19 10 19 6 18 24 19 3 10 16 9 8 5 6 11 10 11 12 13 14 15 15 14 12
32 30 19 4 3 1 3 1 1 3 3 4 8 10 7 1 4 6 8 8 15 21 11 8 13 15 16 13 7 14 14 10 6 5 5 4 8 13 13 12 9 11 11 10 7
30 25 21 11 8 4 4 2 2 1 2 1 0 3 5 3 2 8 4 1 20 14 17 5 7 15 18 16 13 9 12 11 4 6 2 5 6 5 4 6 4 3 2 3 4
28 21 15 5 7 3 3 4 3 2 1 5 2 4 5 11 4 8 5 3 4 9 6 1 3 18 19 18 16 12 5 8 7 5 3 3 3 3 9 9 9 9 9 9 8
23 20 13 12 4 3 3 6 3 2 4 2 2 5 4 1 14 3 1 2 10 11 6 4 6 15 20 20 15 6 9 8 5 3 2 4 4 7 10 8 7 8 7 7 6
18 19 8 7 10 5 3 2 2 3 7 6 4 5 3 3 5 7 5 6 10 9 14 7 4 4 2 7 6 15 10 8 4 1 3 3 4 7 9 10 7 7 6 5 6
17 9 10 5 1 2 5 4 1 6 3 6 5 4 7 4 11 8 4 4 3 5 4 5 4 5 4 9 3 8 12 4 3 4 2 2 4 3 9 10 8 5 5 4 6
15 6 3 2 0 4 4 2 10 4 4 2 2 4 4 6 7 8 3 5 8 8 4 2 4 2 3 2 9 10 3 2 4 4 3 2 5 3 9 7 4 2 2 2 4
12 4 3 2 6 5 3 6 3 2 2 1 3 4 3 7 5 4 2 4 3 3 3 4 4 2 3 4 6 4 4 2 4 2 1 3 3 4 5 9 5 3 1 4 4
8 4 2 5 5 1 1 5 1 3 2 4 2 2 4 5 3 2 1 2 3 0 2 3 6 3 4 1 10 1 8 2 0 4 4 4 3 3 14 13 3 4 5 5 4
3 2 1 8 1 2 3 4 1 3 3 2 2 3 6 4 4 2 2 3 2 2 2 5 3 3 2 1 7 4 3 2 2 1 2 1 3 0 15 12 2 6 6 7 6
4 1 5 3 2 2 2 2 2 2 4 2 2 6 5 3 3 2 3 1 1 2 3 1 4 4 2 2 2 1 2 4 2 4 0 3 3 3 7 4 4 7 5 4 5
4 2 4 2 3 3 1 1 2 3 2 1 2 1 1 3 3 3 3 3 1 1 5 6 4 5 5 3 1 4 4 2 5 2 5 3 4 3 5 3 5 7 7 5 5
2 1 2 2 1 1 2 2 3 1 3 2 2 2 4 3 3 4 4 3 0 2 6 3 2 1 2 3 3 4 8 9 4 3 4 4 0 6 4 5 7 7 6 6 6
3 2 1 2 2 2 1 1 1 2 2 5 2 1 3 3 3 4 2 4 3 2 2 1 3 2 1 3 2 1 5 11 7 4 5 2 6 5 10 8 8 9 4 4 5
3 3 4 3 5 4 3 2 2 1 2 0 2 1 1 2 1 7 6 4 3 3 2 2 3 2 1 1 4 5 8 10 14 14 13 12 17 13 4 4 7 4 4 3 5
5 4 2 3 3 3 1 1 3 3 2 1 5 4 3 1 1 2 1 4 5 7 5 3 5 2 1 0 3 7 15 16 9 9 13 10 8 4 9 7 6 3 1 3 3

GFSSW_925_spd_057.txt.gz
Wind_Speed
20 21 20 20 19 18 17 16 17 17 14 15 15 13 11 11 12 13 12 11 22 7 5 14 15 14 13 11 16 9 13 17 24 23 19 10 13 13 5 11 5 6 4 5 6
22 22 20 18 18 17 17 15 15 15 14 15 15 14 11 10 16 22 13 16 16 13 12 18 18 17 11 15 9 13 15 23 20 19 10 12 12 13 8 12 12 8 5 3 7
24 23 20 19 18 17 16 15 15 13 14 13 13 12 10 8 16 26 22 25 21 19 16 14 21 16 13 11 16 15 19 19 16 4 1 11 15 15 12 12 13 12 11 4 4
24 23 20 20 18 17 15 15 15 14 13 12 12 10 8 10 7 8 23 28 27 23 21 14 20 17 15 14 20 15 22 14 10 3 2 11 12 10 13 4 5 2 5 3 6
24 23 20 19 18 18 15 14 14 14 12 10 9 8 8 12 15 9 2 19 27 27 28 20 22 19 17 19 15 18 11 16 5 7 7 12 15 13 12 5 3 5 5 5 3
25 24 22 19 18 17 15 13 13 13 10 9 9 7 11 17 13 15 11 2 24 28 29 26 19 22 11 8 20 11 16 11 12 9 8 9 12 9 10 9 10 9 10 8 8
28 27 25 22 18 15 13 12 13 11 11 9 8 9 13 16 5 5 10 21 10 31 24 28 21 21 9 6 11 5 19 7 15 14 6 9 14 18 15 9 11 11 12 12 12
30 29 28 22 17 12 10 11 12 12 11 12 8 8 7 12 23 22 8 18 17 28 28 26 21 20 6 4 11 13 13 16 15 12 11 11 14 19 20 17 19 17 14 14 14
31 32 28 22 13 9 9 9 11 12 14 10 7 9 11 4 20 19 18 20 15 28 23 23 14 17 13 14 11 14 14 17 13 20 10 15 9 12 8 7 11 12 12 13 14
33 31 32 17 7 4 5 7 8 5 3 6 6 5 11 7 11 10 13 13 6 18 16 12 10 10 12 15 15 21 23 20 18 10 17 18 15 6 8 9 12 12 11 11 12
32 30 30 10 2 1 3 2 4 4 6 5 2 11 8 15 5 9 15 12 8 21 14 12 7 15 27 25 18 15 19 14 13 8 10 16 14 17 11 13 14 13 13 13 14
29 26 23 11 7 4 3 3 5 4 6 3 8 9 6 1 3 13 10 16 11 23 19 9 7 17 21 19 14 9 16 14 5 10 8 12 12 9 13 15 15 12 12 12 10
27 23 17 8 6 7 7 5 1 3 4 3 1 3 3 2 7 10 5 6 17 24 19 12 8 10 11 17 14 12 14 14 8 8 8 3 12 13 3 4 4 7 9 4 3
26 22 16 4 6 6 5 5 1 3 2 4 5 4 3 7 6 3 5 1 1 21 13 1 6 18 13 17 15 13 10 9 7 12 5 8 3 10 10 7 6 6 7 7 7
27 20 13 10 3 3 5 3 2 3 1 4 6 4 6 3 12 6 6 4 6 9 5 4 12 13 19 15 16 6 9 10 7 6 1 8 5 9 12 10 8 8 8 6 5
29 18 12 4 3 1 2 4 6 4 7 2 3 4 6 12 11 7 3 6 10 9 8 5 4 4 2 7 4 14 14 8 4 1 5 9 8 10 11 11 9 8 8 5 4
26 16 10 5 4 2 6 4 1 6 2 8 4 3 13 14 10 6 3 3 6 5 2 2 3 3 5 9 3 10 13 4 4 4 3 4 5 6 10 14 10 8 7 4 2
24 12 8 7 5 5 9 3 8 4 5 4 3 13 7 7 6 6 7 11 8 10 3 3 5 1 1 3 6 13 13 3 6 6 6 4 6 2 12 13 8 4 2 1 1
17 4 5 5 7 5 4 4 2 1 4 4 3 6 4 8 5 4 6 9 4 4 4 2 5 4 1 4 2 5 5 2 1 3 2 6 4 3 8 11 5 4 3 1 0
10 5 3 4 4 4 2 4 2 1 3 5 3 4 3 4 4 3 5 4 5 1 2 4 5 5 8 10 5 4 7 2 1 5 5 5 5 3 16 16 8 5 2 0 1
3 3 2 5 3 2 3 4 1 2 3 4 3 3 6 7 4 3 3 3 2 3 2 7 2 3 2 3 4 3 3 1 3 2 3 4 3 5 15 16 7 1 1 1 1
5 2 2 3 1 2 3 1 0 2 2 2 3 3 4 5 3 2 4 4 2 3 4 2 5 5 2 2 5 5 4 8 3 4 1 4 4 3 15 15 4 1 0 1 0
5 3 1 2 1 1 2 2 1 2 2 1 1 1 3 4 2 4 3 2 3 1 2 5 5 4 2 2 2 5 7 4 2 3 4 3 5 5 10 6 4 2 2 1 1
3 3 3 1 2 3 1 2 3 2 1 1 1 1 5 4 2 5 5 2 2 4 6 1 2 2 0 3 3 4 8 8 4 2 3 5 8 11 10 5 3 2 2 2 2
3 2 3 3 1 7 4 2 2 2 0 0 3 2 2 2 2 3 5 7 2 1 1 1 2 3 3 4 3 3 7 11 6 8 3 3 6 13 0 4 3 4 1 3 3
3 3 4 4 8 7 1 2 4 1 2 3 2 3 2 1 4 2 6 6 4 6 4 1 2 2 1 1 5 6 9 11 14 15 13 11 9 8 1 2 3 3 1 2 3
7 3 3 4 5 4 1 4 2 2 1 3 2 4 3 4 3 2 2 1 1 4 7 5 5 4 3 3 5 9 16 16 11 9 16 11 8 4 4 4 4 2 2 2 2

GFSSW_925_spd_060.txt.gz
Wind_Speed
21 23 23 20 18 16 16 16 15 15 15 13 13 14 13 9 10 12 17 8 21 4 7 18 14 14 13 11 14 9 5 11 19 19 11 7 6 5 3 5 2 5 9 9 17
23 23 24 21 19 18 16 16 15 14 14 13 13 12 12 12 14 23 18 18 16 24 8 18 14 14 4 11 6 8 8 13 12 9 8 12 5 9 5 6 6 5 11 11 14
24 24 23 22 20 19 17 15 14 14 13 13 13 10 10 8 16 23 24 25 24 22 17 17 19 14 11 6 12 7 10 14 13 2 7 8 2 2 5 6 8 8 11 10 13
27 26 25 23 20 18 17 15 14 13 12 13 11 8 6 7 7 9 12 32 27 20 19 13 16 14 10 12 14 7 16 14 11 5 2 2 6 4 9 5 8 11 9 7 7
29 28 27 25 23 20 16 15 14 13 12 11 9 6 3 7 15 23 8 24 29 26 24 14 17 16 14 15 10 17 11 16 4 7 1 3 4 7 4 1 6 9 7 3 2
30 30 29 27 25 22 15 13 12 11 11 8 4 4 6 16 15 19 13 10 28 28 27 22 13 15 8 7 13 9 14 8 9 6 1 4 5 9 7 3 7 1 1 5 5
32 33 32 29 24 19 11 10 9 9 8 6 4 4 10 16 11 5 2 4 5 27 19 24 18 14 5 7 7 3 9 11 4 9 3 4 9 15 7 4 8 7 7 7 7
33 35 33 33 22 13 4 7 9 8 8 7 6 5 6 12 25 21 9 8 12 7 23 26 23 11 9 4 2 8 3 10 7 10 6 8 9 12 10 8 10 8 7 8 8
33 34 35 26 12 3 2 6 7 9 9 9 5 8 8 3 15 16 15 8 8 13 24 20 12 4 12 8 5 6 6 12 10 11 5 11 3 15 13 12 9 9 10 8 7
30 31 29 21 10 4 4 4 6 8 4 5 8 4 7 4 9 13 11 10 4 11 14 13 5 6 9 9 11 12 10 13 13 17 17 10 10 5 5 5 8 7 6 5 6
28 27 23 17 12 8 8 5 3 4 6 5 2 11 6 9 4 5 10 6 9 12 7 16 8 17 27 18 9 8 11 14 13 8 14 15 12 12 7 6 6 7 7 7 7
25 24 21 14 11 11 10 5 4 4 6 7 7 8 5 4 4 7 12 15 10 15 15 9 14 11 14 14 15 8 11 18 4 10 7 7 11 9 9 8 8 8 8 7 5
24 23 21 12 10 9 10 8 5 5 4 2 3 3 3 3 2 6 7 10 6 20 20 12 8 12 16 16 17 9 8 10 7 5 2 3 7 10 5 1 3 4 5 6 5
23 24 17 11 5 7 5 8 5 6 3 5 4 3 1 3 3 5 3 2 2 19 14 5 4 13 9 13 15 10 6 3 11 7 3 8 4 13 9 5 5 7 6 6 5
23 23 13 6 8 4 6 8 5 3 1 11 5 3 2 2 5 4 7 5 3 10 5 3 12 16 5 9 9 7 7 8 7 6 2 8 2 3 10 7 7 6 6 6 6
27 19 10 5 5 1 4 10 7 1 6 4 3 3 1 4 3 5 6 4 5 9 16 6 3 4 6 8 9 7 9 9 3 1 2 7 6 5 8 11 8 7 8 7 6
31 16 6 4 3 5 8 5 2 5 2 8 3 4 7 5 7 7 2 6 4 5 3 3 4 4 3 9 5 10 8 4 3 2 3 1 4 6 11 11 8 8 9 7 6
21 7 0 3 3 4 5 1 7 3 3 5 3 11 7 3 3 1 8 11 8 8 3 3 2 1 3 2 5 6 7 4 5 4 4 2 4 4 11 10 9 8 7 6 4
13 2 2 1 2 3 1 4 2 1 3 5 3 3 2 5 6 4 7 5 5 3 3 4 2 1 2 3 3 3 1 2 2 2 4 5 3 5 10 9 7 8 8 7 6
12 5 2 3 2 1 1 4 1 3 5 7 2 2 6 5 3 3 3 4 3 2 4 3 5 2 2 3 8 3 2 1 1 3 3 4 6 4 10 10 8 8 8 7 6
4 3 2 2 4 3 3 2 3 5 4 5 7 6 7 4 4 6 6 3 4 2 5 8 2 4 5 3 4 2 2 2 0 2 1 4 4 1 15 10 8 7 6 5 5
6 1 2 3 0 2 2 1 1 5 3 2 5 4 4 2 4 4 7 5 4 3 4 4 5 3 4 5 6 6 3 3 1 3 1 2 3 4 10 8 7 6 6 6 6
5 3 3 2 2 3 3 2 3 4 5 5 3 5 5 4 2 5 6 1 4 5 3 4 2 3 2 3 1 1 3 1 6 2 3 1 2 3 9 9 7 6 5 6 6
3 4 4 3 1 3 1 3 3 1 2 2 3 3 1 1 5 3 5 2 2 4 5 3 2 3 3 3 4 3 5 5 4 2 3 3 5 4 7 6 7 7 6 6 6
3 3 3 3 3 6 5 3 3 1 3 3 3 4 2 2 2 2 6 5 2 1 1 2 3 3 4 6 4 2 5 7 5 6 4 4 8 8 8 5 6 5 7 5 6
4 3 4 5 9 8 2 1 3 1 1 2 3 2 1 5 6 3 5 5 3 4 3 2 2 2 1 4 5 3 6 8 9 10 8 6 4 2 5 6 4 3 6 4 4
10 7 2 6 7 5 3 5 6 4 3 2 7 2 3 6 4 5 5 4 4 5 4 4 4 2 1 1 4 6 12 12 7 7 10 8 6 3 3 3 3 4 5 4 4

GFSSW_925_spd_063.txt.gz
Wind_Speed
22 22 21 20 19 16 15 14 13 12 12 13 13 11 10 10 9 10 13 11 19 8 6 17 14 11 5 4 8 5 4 4 17 17 8 5 6 2 4 7 5 3 6 12 11
22 23 23 22 19 17 16 13 12 11 12 11 11 10 9 8 10 16 14 14 21 18 8 18 10 9 3 5 6 6 8 12 11 15 8 6 4 2 4 4 6 5 11 21 15
25 26 25 24 21 17 16 13 12 11 11 10 10 10 8 5 4 8 24 25 23 22 20 12 14 7 5 5 6 7 8 18 17 13 6 4 12 2 7 2 2 10 11 11 18
26 26 27 26 23 21 16 13 11 11 10 9 10 9 7 6 6 11 6 23 32 26 23 17 12 7 5 8 12 6 16 7 16 5 8 1 0 3 3 4 7 5 8 9 11
27 29 30 29 25 21 17 12 9 9 8 8 8 5 4 4 10 10 18 9 33 29 28 15 16 9 8 9 10 12 6 15 9 2 7 2 5 3 1 4 10 10 8 6 7
28 30 32 31 27 19 13 9 5 5 6 4 3 2 1 8 9 10 16 10 28 28 29 19 11 10 6 8 8 8 13 6 5 7 1 1 1 1 2 5 7 10 5 2 1
28 30 30 28 21 9 6 1 1 2 2 3 1 1 4 13 5 2 10 1 10 21 14 20 12 13 6 3 7 1 11 3 5 3 2 4 3 9 4 3 3 1 4 5 4
27 29 28 25 17 10 6 3 1 2 2 2 3 2 5 11 10 13 7 7 3 5 18 20 22 8 2 2 3 5 6 5 8 8 3 6 6 9 7 3 6 5 4 5 6
26 26 24 22 16 11 8 5 2 2 4 3 1 2 5 16 3 11 8 7 2 4 9 15 7 4 3 5 3 2 4 6 7 8 6 5 4 8 7 6 9 6 7 7 7
23 23 22 18 15 13 11 8 4 5 1 4 3 1 6 4 6 13 6 8 3 3 2 9 5 4 3 5 14 16 9 10 8 8 8 10 7 6 4 9 10 7 7 7 7
24 23 21 17 11 13 17 3 3 2 2 5 3 3 3 5 4 3 6 8 5 3 9 13 8 19 26 11 6 7 3 6 7 7 6 11 6 12 7 4 7 7 7 6 6
24 23 20 18 11 10 11 3 4 0 5 7 8 4 6 1 2 1 5 3 3 1 9 8 15 10 9 8 6 9 9 8 2 6 13 11 11 10 10 7 8 8 7 6 4
24 22 21 14 9 7 13 5 4 5 3 2 5 5 0 3 2 5 4 4 2 5 10 12 8 12 12 10 11 6 6 5 4 3 4 4 5 7 8 6 6 4 4 2 1
24 23 19 14 3 8 3 4 4 4 2 3 3 2 2 0 1 4 5 1 1 10 10 6 3 11 12 13 7 6 6 3 13 5 4 5 4 7 12 7 6 6 4 5 7
26 24 15 3 6 1 3 3 4 2 3 8 3 0 3 0 2 4 20 5 7 10 5 2 5 10 10 3 3 5 1 7 5 6 4 1 1 6 8 6 7 6 5 6 6
30 22 10 2 4 3 5 7 1 1 5 3 5 1 1 3 5 3 4 6 4 12 12 5 5 4 3 3 3 5 8 7 5 2 1 5 5 4 6 14 6 5 8 8 7
33 13 6 2 1 3 8 1 3 6 4 8 4 1 4 5 5 4 5 2 4 6 3 4 3 4 2 3 6 2 5 2 2 1 5 3 7 9 7 6 9 9 8 7 7
23 6 2 4 3 4 3 2 10 3 3 3 3 5 3 2 3 3 8 5 7 7 4 4 4 2 2 4 3 9 4 5 6 4 4 2 7 5 7 8 12 11 9 8 7
19 2 1 3 4 1 2 6 3 3 3 8 7 4 4 5 4 5 3 4 3 2 5 4 3 1 2 2 2 6 4 3 3 2 3 4 3 4 5 8 9 10 8 8 7
14 5 1 5 4 2 4 5 2 4 3 3 3 2 3 1 0 3 3 5 5 4 6 6 5 3 5 1 2 3 0 1 3 3 4 4 3 4 7 8 7 8 8 7 7
4 3 3 1 6 1 3 1 4 7 5 2 5 4 1 2 1 2 4 3 4 7 5 2 4 4 6 4 6 2 1 2 2 4 4 4 5 3 16 13 10 8 8 8 7
4 3 4 5 3 2 3 4 4 4 4 5 3 4 1 4 6 5 3 2 5 3 7 5 3 3 1 4 7 2 4 4 4 4 2 2 4 4 9 9 7 8 8 7 8
3 3 1 2 3 2 2 5 5 3 3 2 1 3 3 3 3 3 4 5 7 3 3 3 2 3 2 2 4 4 5 5 3 2 4 4 4 2 7 8 7 8 7 7 7
2 4 4 3 2 3 4 3 4 4 3 3 2 2 1 2 3 4 2 2 3 2 2 2 2 3 6 4 4 5 12 5 5 3 2 4 3 4 7 8 6 7 7 8 7
4 3 2 4 3 5 6 4 4 2 3 3 4 4 3 4 4 4 3 1 1 0 3 3 3 2 2 4 3 2 4 8 5 4 5 2 5 10 9 8 7 7 7 7 7
3 3 4 5 7 5 1 2 4 3 2 2 2 2 5 4 3 3 6 4 3 2 2 2 1 2 3 4 4 3 6 7 6 5 3 3 5 6 5 5 6 7 7 7 6
7 6 1 5 5 4 5 7 7 6 1 1 3 4 4 3 2 2 4 4 6 7 4 3 4 3 2 1 3 6 10 10 6 5 9 8 7 5 5 6 6 7 7 7 6

GFSSW_925_spd_066.txt.gz
Wind_Speed
19 21 21 21 20 18 14 12 11 11 12 11 10 10 10 8 9 10 9 8 16 8 7 12 11 7 1 3 5 2 5 10 13 10 1 12 8 4 5 5 4 4 3 11 17
20 21 22 23 20 19 18 15 11 10 9 10 9 9 8 8 8 13 16 12 17 15 9 12 5 6 2 3 4 4 5 17 22 19 6 11 10 10 3 3 6 6 7 16 15
23 23 25 27 25 20 19 19 11 10 7 7 8 8 7 5 3 6 22 21 17 16 16 14 10 4 2 3 4 6 18 18 10 1 7 6 12 7 2 2 4 11 7 5 13
23 25 28 27 26 21 17 16 10 7 5 6 7 7 6 4 5 8 10 16 15 23 19 9 7 7 5 8 8 8 9 15 18 6 2 5 15 10 5 2 6 10 12 6 8
23 25 27 28 24 19 12 10 5 5 4 4 4 2 4 2 7 13 9 15 16 28 23 13 6 13 7 6 12 3 10 7 7 12 12 14 15 14 5 6 1 11 7 9 6
23 25 25 26 22 16 9 3 3 4 1 0 1 5 4 5 9 6 13 17 11 29 24 19 9 10 6 7 12 7 3 13 1 6 8 14 14 9 4 2 5 11 9 7 8
22 23 22 22 20 17 11 6 4 4 4 4 3 3 2 9 3 4 3 13 5 22 16 20 10 11 5 2 3 1 14 4 14 5 7 9 13 8 4 5 2 4 6 7 7
21 21 21 18 16 13 9 5 1 2 4 4 2 4 4 7 10 6 3 10 6 11 19 21 16 10 1 3 4 6 6 7 11 7 7 8 8 6 6 5 6 2 1 3 5
20 21 20 18 15 12 10 7 2 2 2 3 1 3 5 7 4 6 8 4 4 2 10 8 7 4 3 3 3 2 6 6 7 12 5 7 3 5 2 8 8 7 6 5 6
21 19 20 17 14 13 15 6 2 3 4 4 1 1 4 1 4 6 5 5 6 4 6 5 5 4 4 6 15 20 7 5 11 12 7 6 5 3 1 6 9 7 7 6 5
21 19 17 15 11 12 14 2 3 3 2 3 1 2 2 5 4 2 9 8 6 6 9 9 9 20 21 9 2 10 6 8 3 6 5 7 3 10 6 1 6 7 6 6 4
23 20 19 14 9 8 7 3 4 2 3 4 7 4 2 3 3 2 2 4 3 3 2 6 16 9 9 9 3 12 6 6 1 4 7 6 13 8 8 5 6 8 7 7 3
23 22 20 14 6 2 9 2 4 1 2 5 6 3 2 4 0 3 1 8 2 2 1 10 8 10 9 7 6 3 10 4 4 2 2 4 7 6 7 4 6 6 5 5 7
24 23 20 12 1 2 2 1 2 2 2 0 1 0 1 1 1 3 2 5 3 2 0 1 9 12 8 7 4 2 6 6 6 5 5 4 4 6 9 9 8 8 7 7 6
26 24 15 4 4 2 2 2 2 1 2 5 0 2 2 1 2 2 2 2 6 4 3 3 14 15 12 8 5 4 4 8 5 6 4 1 0 6 3 9 11 9 9 7 7
30 20 7 2 5 3 1 1 2 3 6 2 2 0 2 3 3 2 6 2 5 8 6 6 4 5 2 3 3 2 5 7 5 3 1 5 6 4 6 7 10 4 7 9 8
26 10 6 4 2 2 2 3 3 6 3 4 2 3 5 5 3 3 3 1 4 5 4 6 4 2 2 5 2 1 6 2 2 2 5 3 4 11 5 5 8 9 9 9 9
19 2 1 3 4 2 1 3 8 1 1 2 3 5 3 3 1 7 7 4 4 11 5 4 5 2 3 3 3 4 4 5 5 3 3 1 7 7 5 9 7 12 12 9 8
9 2 2 2 6 2 1 5 7 5 3 3 4 1 3 2 1 4 3 1 3 3 5 5 1 0 2 2 1 3 2 2 5 3 3 5 6 7 3 3 9 10 8 9 8
4 1 2 1 3 3 3 2 3 4 2 1 2 0 3 3 2 2 1 2 3 2 2 4 5 2 4 2 3 3 2 2 2 3 4 4 5 5 3 8 8 9 9 7 6
1 2 1 3 1 3 3 4 4 6 4 3 2 1 1 2 4 2 2 2 2 3 2 5 4 3 6 7 6 5 4 2 3 4 4 2 6 5 12 13 14 12 9 8 8
3 3 1 2 3 1 1 2 1 3 3 4 3 2 2 2 4 3 3 2 3 5 4 3 4 4 4 3 7 1 5 4 4 4 1 3 5 4 7 7 8 8 8 6 6
2 1 1 2 3 3 3 3 1 2 2 2 2 2 2 2 4 3 3 1 2 4 7 5 2 3 2 2 2 4 4 3 3 3 5 5 5 5 4 7 6 8 7 7 7
2 3 3 2 2 3 4 3 3 1 4 3 3 2 3 4 5 3 2 2 3 2 2 4 3 4 5 4 5 5 8 7 5 3 3 5 3 3 4 9 7 7 8 8 8
3 2 2 3 3 4 3 4 2 2 2 2 4 2 2 1 2 3 2 2 3 2 2 3 3 3 2 3 3 3 6 9 8 11 7 5 6 7 11 10 10 8 6 8 7
3 2 3 2 4 3 2 4 3 5 3 2 1 6 2 3 3 6 4 3 3 0 2 2 2 2 3 1 2 2 6 9 9 5 5 3 5 6 6 2 5 7 8 8 7
5 3 0 4 3 1 2 3 5 8 2 1 1 3 1 1 1 3 2 3 3 6 2 2 4 3 3 1 2 6 10 11 8 6 8 9 7 2 5 7 8 8 8 8 7

GFSSW_925_spd_069.txt.gz
Wind_Speed
20 21 21 23 22 21 20 19 17 15 12 8 8 7 8 8 7 8 8 9 14 9 4 7 11 6 1 5 0 1 4 12 9 6 3 6 8 6 6 3 4 3 3 10 21
21 22 22 25 25 23 19 17 16 12 9 9 7 6 6 6 6 10 13 14 15 13 7 6 5 7 3 5 4 4 9 16 6 4 2 5 4 9 8 9 4 4 9 19 24
22 23 25 25 25 23 18 14 13 12 9 8 6 5 4 3 2 6 17 20 16 10 10 4 11 5 5 3 4 5 16 10 2 1 7 7 6 8 8 6 4 9 11 6 18
21 23 24 25 24 21 12 9 9 6 5 5 5 3 2 3 4 3 3 16 15 8 12 6 5 6 6 8 4 9 15 12 7 3 1 5 9 11 7 7 8 8 5 7 10
21 21 22 23 23 19 13 9 3 2 1 2 4 3 6 2 7 11 11 2 6 13 16 11 5 5 12 6 5 2 12 10 13 5 3 9 12 6 19 22 8 4 3 7 6
20 19 20 18 19 19 16 11 6 3 0 1 1 4 2 1 3 3 9 8 7 11 19 16 7 5 4 6 7 7 4 13 11 8 8 6 14 10 15 11 4 7 6 6 7
19 18 18 17 15 14 12 9 7 4 1 2 2 3 1 7 2 6 10 8 15 18 14 17 8 7 2 2 3 3 6 7 7 8 5 13 8 10 26 18 5 3 5 6 7
18 18 17 16 12 11 10 8 3 2 1 1 0 1 4 4 7 2 3 9 18 15 16 17 13 4 2 1 5 4 5 4 10 12 5 15 10 20 26 16 10 5 4 3 4
19 18 16 16 13 10 9 8 2 1 2 1 2 1 6 6 1 4 9 5 16 7 11 8 11 4 2 5 4 3 6 11 6 17 9 12 5 19 20 16 13 6 6 5 4
19 18 17 16 13 11 12 3 2 2 3 2 1 1 3 4 4 5 10 4 1 2 8 7 6 6 3 5 16 21 9 12 12 16 20 11 5 8 16 12 12 8 7 6 5
18 18 17 16 11 10 9 4 3 2 2 3 1 2 2 7 4 2 9 7 6 5 7 8 4 21 22 8 1 7 6 12 1 8 12 11 6 6 6 5 7 9 8 8 7
19 19 17 15 10 7 1 3 3 1 1 2 5 3 1 2 3 2 5 4 5 2 4 6 12 13 8 8 4 10 5 8 2 4 11 4 7 7 7 6 6 8 8 9 5
22 20 18 13 7 1 6 3 5 2 2 2 3 1 1 2 1 2 2 6 6 3 4 2 10 10 10 5 6 2 6 5 6 4 3 4 5 6 9 3 4 6 6 6 9
22 23 17 7 2 2 2 5 2 3 0 0 2 0 1 1 2 2 2 4 4 4 5 1 12 12 12 5 4 4 3 5 7 5 4 4 4 7 7 11 7 10 8 8 8
25 23 12 3 2 4 4 6 1 3 4 2 4 2 2 2 3 1 2 2 8 5 5 4 18 14 10 6 5 3 2 5 3 3 3 2 1 6 1 8 18 13 8 8 8
28 21 6 3 5 3 4 4 3 4 2 2 1 3 4 1 1 3 2 2 3 2 4 6 4 4 3 4 3 4 5 6 5 3 2 5 5 5 6 7 4 8 9 9 9
28 12 4 6 1 5 6 3 4 5 1 3 0 3 2 4 5 3 6 6 3 2 1 12 4 2 3 7 2 3 5 2 2 1 5 2 5 12 6 6 6 8 7 8 7
21 3 6 4 7 4 3 3 7 3 1 0 1 5 1 1 4 4 2 3 3 2 5 4 5 2 4 3 5 3 4 4 5 4 3 3 8 5 6 5 7 7 7 9 9
8 3 5 5 7 4 3 4 6 6 2 1 2 2 1 3 3 3 3 1 2 5 3 4 3 2 4 1 2 4 3 3 6 3 3 5 7 8 4 5 2 6 8 9 9
3 2 2 5 8 4 4 1 2 4 3 2 3 1 2 2 2 2 3 2 4 6 1 3 5 1 1 2 2 2 2 1 3 3 4 4 5 6 4 7 6 9 9 8 7
2 2 2 2 5 3 3 4 3 5 3 2 2 1 1 3 1 3 2 2 3 4 3 4 3 3 6 6 7 2 2 2 3 4 4 2 5 6 6 7 10 11 11 10 9
2 2 3 0 2 0 1 2 2 2 1 2 2 3 1 2 3 2 3 1 3 7 4 2 4 5 2 3 3 4 4 6 4 4 1 2 5 2 6 7 8 6 8 8 7
2 2 3 1 2 2 2 1 1 1 2 2 2 3 2 2 3 2 2 1 1 6 6 5 2 4 1 2 2 6 6 4 3 3 6 4 5 2 4 4 6 8 7 7 6
2 2 4 3 1 1 4 3 1 2 2 2 2 2 2 3 5 2 2 1 2 2 4 5 3 5 7 5 4 6 9 7 6 4 4 6 5 4 2 6 5 6 7 7 8
3 1 2 3 3 4 1 3 2 2 1 2 1 3 2 2 2 2 1 2 4 3 4 3 4 3 2 1 3 3 9 17 9 14 9 7 8 6 6 9 9 8 6 7 7
2 2 3 2 4 4 4 3 5 5 4 3 2 4 2 2 2 5 4 2 3 1 2 2 1 2 2 2 4 4 7 12 16 8 8 11 7 6 2 4 5 8 8 7 8
4 2 2 4 5 1 3 4 4 5 2 5 3 3 2 2 1 1 2 2 3 6 3 3 5 3 4 3 3 6 8 11 6 6 11 11 15 4 6 7 9 8 8 10 8

GFSSW_925_spd_072.txt.gz
Wind_Speed
19 20 21 23 24 24 23 21 17 16 14 11 5 4 5 6 7 5 7 9 12 7 6 5 9 4 1 1 2 3 3 6 8 6 3 3 6 7 5 3 3 5 3 3 26
19 20 21 22 24 23 22 17 13 13 12 8 3 3 3 4 5 6 11 13 13 10 8 3 4 6 2 3 2 3 7 10 5 4 4 2 5 7 7 9 6 5 4 17 25
19 20 21 22 22 21 18 13 10 9 5 5 1 1 2 2 1 5 9 16 14 7 7 3 4 4 4 3 4 4 15 7 4 6 4 2 3 4 6 4 5 7 10 11 18
18 19 20 19 20 22 17 12 8 6 2 1 0 1 1 1 3 1 12 17 13 10 3 3 4 6 4 5 5 4 6 3 4 5 4 4 3 6 3 6 10 13 8 5 11
18 18 19 18 17 17 16 13 9 6 2 2 2 2 4 2 5 6 8 8 10 10 5 8 5 4 5 6 4 2 5 9 5 9 6 6 7 5 12 5 9 18 5 8 7
18 18 18 18 16 14 13 11 8 6 4 4 4 5 3 1 2 3 9 3 4 3 5 12 5 6 4 5 6 6 1 10 6 1 2 2 5 10 7 7 14 15 9 6 6
18 17 17 16 15 12 12 9 7 6 4 4 4 3 2 6 4 8 5 3 3 7 4 17 6 5 2 4 5 4 7 7 6 5 1 7 7 6 22 10 12 11 9 4 5
18 18 17 14 14 12 11 9 5 3 3 4 2 2 3 3 6 4 3 1 5 4 14 18 12 1 1 1 4 4 5 5 8 14 4 11 10 9 17 7 14 13 9 6 3
19 18 18 15 14 13 11 10 4 1 2 2 4 2 4 5 3 3 2 3 11 8 15 14 10 4 1 6 4 5 7 6 8 13 8 7 4 12 5 6 13 14 10 8 4
19 18 18 15 13 11 12 4 3 1 1 1 1 2 3 2 5 1 6 6 3 10 9 8 7 4 3 5 15 11 5 3 6 12 8 13 7 5 5 5 18 16 8 8 6
19 19 18 16 12 9 8 3 3 2 1 2 2 2 3 10 2 4 7 8 5 7 8 11 2 19 18 4 1 8 6 7 3 10 15 15 9 4 12 9 21 20 8 8 9
20 19 18 15 9 7 1 2 2 2 1 1 4 3 2 5 1 2 9 4 4 10 7 5 3 10 8 5 4 9 6 4 2 10 8 8 4 9 6 10 15 20 15 10 4
21 20 19 12 5 2 2 3 4 2 2 1 2 1 2 3 2 1 2 8 1 5 5 5 2 10 7 4 5 3 8 5 5 4 3 8 5 8 15 21 12 10 8 6 9
21 20 17 6 2 4 2 5 2 1 2 1 1 1 2 2 1 2 2 2 4 3 4 2 5 14 11 5 4 4 5 6 8 5 4 5 4 13 19 19 15 20 10 10 8
22 20 11 2 3 4 3 6 3 1 2 2 2 1 1 1 1 3 3 1 6 4 2 3 15 9 12 8 3 3 5 5 3 4 2 1 2 4 5 15 24 23 10 9 9
23 17 3 4 4 4 7 5 2 5 2 2 2 3 3 1 2 1 3 1 2 4 1 3 5 1 4 3 3 6 6 7 5 3 1 5 5 5 7 7 4 8 9 10 9
22 7 6 7 3 7 6 1 4 5 1 1 2 4 3 4 4 4 2 2 3 3 3 7 4 2 3 7 4 5 6 2 2 0 4 2 6 11 3 6 6 8 7 8 7
14 5 8 5 9 7 2 4 7 4 3 1 0 8 3 8 3 6 5 3 3 5 4 4 6 2 3 4 6 3 3 4 5 4 3 3 6 5 5 6 6 5 5 6 9
4 7 7 6 9 6 3 4 6 4 2 2 0 2 2 1 3 5 7 6 6 9 1 4 4 2 5 2 2 4 3 3 6 3 3 4 6 8 7 8 6 7 6 9 9
4 4 2 4 8 4 3 2 2 3 2 2 1 4 2 3 3 3 2 2 2 2 1 1 6 3 3 2 5 3 5 2 3 3 4 4 5 5 5 6 6 6 7 6 7
3 2 3 4 6 3 2 4 4 5 4 3 2 2 1 4 3 3 2 1 3 3 6 2 3 3 3 3 5 2 2 2 3 4 4 2 5 5 5 7 8 7 6 7 10
3 2 5 7 1 1 1 3 2 1 2 2 1 0 2 1 4 6 3 2 3 6 4 2 4 3 2 3 3 3 5 5 4 4 1 2 6 2 6 8 6 5 6 6 5
2 1 2 4 1 2 3 1 1 1 1 1 1 3 2 2 3 1 1 2 5 7 7 6 2 4 1 1 2 4 4 3 4 3 6 4 5 2 6 1 1 6 7 7 7
3 1 3 2 1 2 3 3 3 1 3 2 2 1 3 3 5 2 2 3 3 2 3 5 3 5 7 5 3 6 8 10 6 6 4 9 6 6 5 3 3 5 6 7 7
3 0 1 2 2 3 1 4 4 4 3 5 3 4 2 2 2 2 2 1 3 3 3 3 3 3 3 2 3 3 10 14 20 19 10 6 15 13 8 6 7 7 7 8 8
3 2 3 1 3 2 3 3 5 5 4 4 4 5 4 3 2 3 4 2 2 2 2 2 2 3 2 3 5 5 8 13 18 17 17 21 21 6 4 3 4 8 8 7 7
2 2 3 3 3 1 2 2 2 3 4 5 3 2 4 2 3 4 1 2 2 6 3 2 4 3 3 3 3 6 9 13 10 13 16 15 25 4 6 7 9 9 10 10 8

GFSSW_925_spd_075.txt.gz
Wind_Speed
16 17 18 19 20 22 20 19 14 11 11 10 7 6 6 5 5 3 7 9 8 7 5 5 7 6 5 3 4 0 5 12 14 9 4 2 3 4 5 3 3 6 5 8 17
16 16 17 18 19 21 21 17 13 11 9 4 5 3 4 3 3 6 10 11 16 9 5 2 4 5 3 3 4 4 7 10 6 4 5 3 4 4 4 5 5 5 17 4 15
16 16 17 18 17 18 20 15 12 10 4 1 2 3 4 2 1 4 7 16 17 12 6 2 2 2 3 3 5 5 11 6 4 9 5 4 3 3 2 4 3 7 14 7 9
17 17 15 17 16 16 16 14 11 10 7 4 3 1 2 3 2 1 14 12 19 14 7 5 4 5 4 5 4 5 9 12 5 4 4 3 3 2 2 2 3 6 10 4 7
17 16 16 16 15 13 13 13 10 9 8 6 3 3 1 2 4 7 11 0 17 11 6 6 7 5 4 6 5 3 5 6 10 8 6 5 5 1 4 3 4 8 12 5 7
16 17 16 15 14 11 11 9 8 7 7 6 5 3 1 1 3 4 7 3 5 9 3 6 2 4 3 5 5 7 2 7 9 5 3 1 1 2 4 4 11 12 13 10 8
17 15 16 14 14 12 10 8 5 4 5 4 3 2 1 4 4 8 3 5 2 7 1 9 5 3 1 4 3 7 8 4 6 5 4 3 10 8 4 7 10 10 10 11 7
17 17 15 15 13 12 10 9 7 2 1 2 2 1 3 3 4 5 4 7 6 5 10 7 6 1 1 1 3 4 5 7 5 13 4 8 22 8 5 5 11 9 8 9 9
18 18 16 15 12 11 11 10 5 1 1 1 1 2 1 1 2 5 4 3 3 10 12 13 6 3 1 5 4 3 6 5 5 13 8 9 9 14 2 5 9 6 7 9 11
18 18 17 14 12 9 10 4 2 1 2 1 1 3 3 2 5 1 5 6 7 5 8 6 3 2 2 5 15 7 6 5 8 10 9 16 4 6 1 8 13 5 7 8 10
19 18 17 15 11 7 5 1 3 2 1 1 0 0 2 9 2 2 3 3 6 3 6 9 4 11 10 4 3 7 5 9 5 9 6 12 5 7 6 6 11 10 9 11 13
19 18 17 15 8 4 1 2 2 1 2 1 2 3 1 3 1 3 3 2 3 5 10 5 2 10 7 5 6 11 8 4 2 7 8 8 12 9 10 5 9 13 11 11 9
19 18 17 11 3 1 1 2 3 1 2 1 1 1 1 2 3 6 7 3 3 3 13 7 2 12 7 5 8 2 9 5 5 5 3 7 7 7 7 8 6 12 13 15 12
19 18 14 4 2 4 1 5 2 1 3 0 1 1 2 0 2 4 6 3 1 6 4 3 9 17 10 6 6 4 5 6 9 9 4 5 4 11 14 12 13 14 19 16 11
19 17 8 3 6 3 2 6 3 2 4 1 2 1 1 1 1 1 2 1 2 7 2 2 11 12 8 8 5 4 5 6 3 4 3 3 2 4 7 16 19 21 20 14 10
21 14 3 6 4 4 7 6 2 5 2 2 1 3 2 3 2 3 2 1 2 6 4 3 5 2 2 3 1 9 7 7 4 3 3 4 6 4 4 14 14 17 16 18 14
20 3 7 8 4 8 6 1 3 5 1 0 3 2 3 1 2 1 1 2 3 5 1 7 3 1 1 7 1 4 6 2 1 2 4 2 3 11 6 5 7 12 13 15 7
6 10 9 6 9 7 2 4 7 1 1 1 4 4 2 6 2 3 2 3 5 4 3 3 3 6 1 2 5 3 4 4 6 4 3 3 5 6 4 4 4 5 5 4 7
7 9 6 7 8 5 3 4 6 5 2 2 1 3 2 4 3 3 2 2 3 3 3 4 2 3 3 1 2 3 3 3 6 2 2 1 4 10 3 6 4 5 4 6 5
5 5 3 7 7 3 3 1 1 4 3 0 1 1 2 3 2 0 1 4 3 7 8 2 5 4 2 2 6 2 5 2 3 3 3 3 4 4 3 6 6 6 7 5 5
4 3 3 8 5 3 2 4 4 5 3 3 0 1 4 4 4 4 4 1 5 8 4 2 2 2 3 1 5 1 2 4 3 2 3 1 4 5 5 4 7 9 5 6 7
3 2 4 9 1 0 1 4 4 2 2 2 2 3 1 3 2 2 5 4 6 6 6 4 3 3 2 1 2 1 3 3 3 3 1 2 6 4 5 5 4 9 3 3 6
3 2 2 2 1 2 3 2 2 2 2 3 1 2 2 3 4 2 3 3 3 2 6 6 2 4 2 0 2 3 4 3 4 3 6 4 4 3 4 2 1 4 3 6 7
3 2 2 2 1 1 1 2 0 0 1 1 2 2 2 4 5 3 2 2 4 1 4 4 3 5 6 5 4 5 6 7 5 4 3 9 4 10 6 4 5 3 4 6 7
3 1 1 1 1 2 0 2 2 4 4 4 2 3 1 2 3 2 2 3 3 3 3 2 2 3 3 3 4 5 6 12 15 12 12 4 15 18 13 9 5 6 4 6 8
3 3 1 2 1 2 3 3 4 4 4 3 3 4 3 4 2 3 2 1 3 2 3 2 2 2 2 3 4 3 7 9 15 15 17 17 27 11 7 4 5 6 6 9 10
3 2 2 3 2 2 2 2 4 4 1 4 2 2 5 3 1 3 2 1 2 6 3 3 4 2 3 2 1 5 10 13 7 7 13 15 25 4 8 8 13 11 9 13 14

GFSSW_925_spd_078.txt.gz
Wind_Speed
16 16 16 16 15 17 19 16 14 11 9 7 6 6 7 7 8 7 12 10 7 8 3 7 10 8 6 8 8 4 10 16 23 16 10 2 5 1 1 1 5 5 3 5 9
16 16 15 16 15 16 17 16 13 11 7 3 2 3 4 3 8 12 9 9 15 12 8 9 13 11 7 10 8 10 15 25 21 16 8 6 2 2 3 6 4 3 6 5 13
16 15 16 15 15 14 13 13 12 11 8 5 2 1 2 3 8 3 1 9 17 20 7 4 12 11 8 10 11 14 19 17 13 16 13 8 4 1 5 6 6 9 10 4 11
14 15 16 15 15 12 12 12 10 9 7 5 2 1 3 3 2 1 12 14 16 17 7 5 10 12 11 13 16 14 15 12 10 10 8 12 7 2 2 6 3 7 8 1 8
15 13 15 14 13 11 10 9 8 7 6 4 2 2 1 3 3 6 12 10 12 16 9 11 15 16 16 16 15 15 16 13 9 6 7 9 9 1 3 4 2 6 11 2 3
17 14 13 15 13 11 9 7 5 5 5 4 3 1 1 1 5 6 9 6 5 15 8 8 10 11 14 12 16 14 5 19 11 6 3 6 7 2 2 4 2 6 8 7 3
16 15 13 15 14 12 9 8 5 2 3 2 3 1 2 3 5 7 4 1 5 8 4 7 1 9 11 11 6 13 7 8 12 10 6 1 9 13 6 6 10 8 5 6 6
16 15 13 15 13 12 9 8 5 2 1 0 2 2 2 3 4 6 4 1 4 3 15 7 5 2 7 5 11 10 16 9 13 11 3 8 21 24 13 8 12 8 7 4 6
16 16 15 14 13 11 9 9 4 2 2 1 2 2 0 4 3 4 4 3 4 5 9 7 2 4 6 13 11 13 12 21 10 14 7 13 12 13 10 14 14 11 7 5 6
16 18 16 15 13 10 7 3 4 2 2 1 1 3 1 3 7 2 3 3 3 7 4 7 2 4 10 13 14 14 11 13 13 11 10 13 18 3 3 8 18 14 10 8 4
17 17 16 15 10 6 4 2 3 3 3 1 1 2 1 8 3 1 3 1 4 4 5 6 1 8 16 15 5 14 10 11 9 8 12 12 13 13 7 9 15 17 14 14 8
17 17 17 15 9 5 2 2 1 2 2 1 2 2 3 2 2 1 4 1 3 7 8 3 2 9 10 10 11 14 13 13 8 12 12 10 14 13 13 14 13 15 18 17 12
15 16 16 10 2 3 3 2 4 3 1 2 0 1 1 2 1 3 4 4 1 8 7 7 3 12 13 13 13 14 16 12 10 10 11 5 12 16 17 16 14 14 18 18 18
15 15 14 5 2 3 2 5 3 2 2 3 1 2 1 2 2 4 7 2 1 7 9 5 8 12 11 15 14 13 10 13 11 12 5 11 4 10 18 17 19 19 18 21 17
15 14 8 4 5 2 2 6 2 2 1 1 1 1 1 3 2 3 5 3 3 4 4 3 10 12 16 15 10 5 12 10 9 10 4 7 5 3 6 20 20 18 19 18 17
16 10 4 5 3 4 7 4 1 2 4 1 0 2 0 4 3 2 1 4 1 6 6 5 11 4 9 5 3 13 13 9 5 2 6 11 11 4 5 11 12 17 19 16 14
12 4 7 7 4 9 6 1 1 3 1 2 2 1 3 1 3 4 1 2 2 5 3 5 6 1 4 10 10 9 17 5 4 5 5 1 9 11 10 9 7 10 18 19 15
6 12 8 4 10 8 2 1 3 1 2 5 3 5 2 3 1 1 4 1 1 3 3 3 4 5 3 5 7 15 10 3 6 5 5 3 6 2 2 2 2 7 7 9 16
9 9 4 5 8 5 2 0 2 3 2 4 8 4 3 3 3 3 2 4 1 1 2 3 3 2 6 2 2 4 6 2 4 1 2 3 4 9 5 3 4 5 5 10 10
6 5 2 6 6 1 1 1 1 2 1 2 1 1 4 6 5 3 4 4 4 2 1 2 5 1 4 1 4 2 9 3 0 5 4 3 4 3 5 7 6 3 6 7 7
5 3 1 8 4 1 1 1 1 4 3 2 1 4 2 2 3 4 3 1 3 3 5 2 2 4 8 3 8 4 4 1 1 2 2 2 3 5 4 4 7 7 5 4 5
4 2 3 9 2 1 1 1 2 2 3 2 1 2 4 3 1 1 2 1 12 6 6 3 4 4 2 1 1 1 3 11 6 5 0 3 4 6 3 2 4 6 4 2 3
3 3 2 1 2 2 1 1 1 2 2 2 1 1 1 4 2 2 3 2 8 7 5 5 3 6 4 3 2 5 8 4 3 2 7 6 3 2 2 3 1 4 3 4 6
3 3 2 2 2 2 2 1 2 1 1 1 1 3 5 4 1 4 3 2 5 2 2 2 3 3 6 2 4 7 14 14 10 5 11 15 13 7 9 10 6 11 5 5 9
1 2 1 3 3 2 1 1 2 2 2 2 1 3 1 3 4 5 2 4 3 3 1 3 1 1 1 2 2 3 9 16 14 18 15 12 19 18 18 18 15 8 6 7 10
3 3 2 2 1 3 1 2 2 1 2 1 3 3 1 2 2 4 6 4 2 4 3 1 2 1 2 2 4 7 11 13 18 20 21 24 27 19 16 12 12 15 9 7 12
3 2 1 1 3 3 2 2 3 1 1 4 2 1 5 4 5 4 2 1 2 4 4 2 4 3 1 1 3 9 18 17 11 12 14 18 20 14 13 14 12 14 14 15 15

GFSSW_925_spd_081.txt.gz
Wind_Speed
14 16 16 15 15 14 15 16 13 12 9 8 7 4 6 7 9 10 14 15 11 11 6 11 15 15 16 13 10 1 6 15 23 14 14 8 8 1 1 1 6 5 7 4 13
13 13 16 16 16 14 14 15 11 10 8 5 2 1 3 5 8 13 12 10 11 15 10 15 16 18 14 17 11 13 12 21 27 20 11 9 7 3 4 7 6 3 6 7 14
18 11 14 16 14 12 12 12 10 9 7 4 2 2 4 2 4 6 2 5 11 15 13 12 17 15 17 16 17 13 13 22 20 11 14 12 8 3 5 3 6 4 5 3 10
16 13 12 14 14 13 10 10 8 7 6 5 3 1 3 5 2 2 8 11 13 14 11 11 12 19 16 21 19 13 26 26 10 5 11 13 11 7 2 8 4 5 4 4 7
16 14 14 12 15 13 11 9 7 6 5 5 3 1 3 5 6 6 9 12 9 18 16 12 12 19 18 20 20 20 15 18 10 9 17 12 13 10 6 6 2 5 6 6 2
17 14 14 13 14 13 11 9 6 5 4 4 3 2 7 7 5 7 8 6 6 17 19 12 6 18 14 17 18 14 13 14 6 10 6 10 7 13 5 7 4 2 6 5 6
15 15 14 13 14 14 12 10 6 5 4 5 5 5 7 4 5 7 4 3 7 5 11 2 12 8 12 12 10 11 12 14 15 13 8 8 15 16 13 10 5 4 2 4 3
17 14 15 13 13 13 12 10 6 6 5 5 6 7 5 1 4 6 4 2 3 11 4 6 8 11 19 11 13 16 17 16 16 17 5 7 18 17 21 11 9 6 3 4 4
16 15 17 14 14 11 11 9 6 6 5 4 7 5 2 1 3 6 6 4 2 3 9 7 4 4 9 17 14 15 15 21 18 16 7 12 13 16 12 15 10 11 8 3 2
15 16 15 15 15 10 7 3 2 2 3 5 7 6 2 3 6 4 4 4 2 4 4 4 2 2 13 16 17 18 17 22 16 13 12 15 18 3 5 16 17 17 14 10 6
14 15 15 15 13 10 5 3 4 4 6 5 5 4 2 7 1 3 4 4 1 4 4 3 2 4 22 21 16 17 17 20 16 11 14 14 13 15 12 12 20 22 18 14 10
14 14 15 15 12 5 5 5 3 4 2 1 4 4 4 4 4 4 6 4 4 2 6 3 2 8 10 14 7 16 14 9 6 7 10 14 16 16 16 18 18 22 23 20 14
13 13 13 12 5 4 6 3 2 1 3 2 2 3 3 4 5 4 7 2 2 2 2 6 2 5 10 12 17 13 15 15 13 10 12 7 14 15 18 18 17 18 19 22 21
12 11 10 5 3 3 3 4 2 1 3 4 1 3 1 4 1 7 3 2 1 3 1 2 6 6 10 11 12 14 11 15 13 12 6 15 6 18 19 19 19 18 16 19 22
12 10 6 8 1 2 2 4 2 3 2 2 3 2 1 3 4 1 6 4 2 6 4 3 2 7 12 12 8 11 5 10 9 11 5 13 6 12 4 15 17 16 18 18 16
12 6 4 5 3 1 5 4 3 2 3 1 4 1 1 4 3 3 2 4 2 2 10 9 6 1 3 4 2 8 11 5 5 6 7 14 10 9 7 5 9 14 18 17 17
6 8 7 3 1 5 3 3 2 2 1 1 1 1 3 6 4 4 2 5 3 3 3 4 2 3 3 7 4 14 15 5 4 4 5 3 9 13 5 5 6 7 9 15 16
8 11 5 1 4 4 3 2 1 4 1 3 2 3 4 2 3 3 3 6 5 2 3 2 2 6 7 6 6 14 14 4 5 6 9 4 6 4 2 2 1 4 8 7 12
11 7 4 2 3 1 4 2 2 3 4 6 4 2 2 1 2 2 1 2 2 2 2 3 3 4 4 2 4 10 10 3 3 3 1 6 8 8 2 6 5 4 5 7 6
8 5 3 3 3 2 2 2 1 2 3 5 2 4 7 8 5 3 4 3 2 2 5 4 4 3 4 3 1 4 8 3 2 4 4 4 6 3 6 6 4 1 3 5 6
8 3 1 5 1 3 1 2 3 3 2 2 1 4 4 7 5 5 1 2 3 4 2 1 3 3 6 3 8 4 4 4 3 3 3 1 3 7 9 6 7 7 4 1 4
6 2 1 5 2 1 1 2 1 5 4 2 3 2 3 5 5 2 3 2 6 2 4 2 4 3 4 4 6 8 10 13 4 5 3 5 1 8 7 5 4 7 5 3 1
3 3 1 1 2 3 4 3 1 5 4 3 2 3 1 3 2 2 2 1 9 5 2 2 3 4 4 5 5 7 10 8 9 3 6 6 3 3 3 5 3 3 6 2 2
3 3 3 2 5 3 4 4 5 1 3 2 0 2 2 1 1 3 4 3 6 4 3 3 3 4 3 3 1 7 13 14 9 4 11 15 15 5 5 8 8 8 7 6 5
3 3 3 4 7 6 3 3 7 4 2 2 3 2 4 3 3 3 4 6 5 2 3 3 2 1 3 1 3 4 9 15 15 17 13 14 18 15 15 14 13 9 5 6 6
3 3 3 3 4 7 4 5 7 4 2 4 2 1 3 1 5 6 5 6 6 8 6 3 2 1 3 5 5 8 12 14 16 20 21 22 23 19 19 19 17 13 13 15 9
2 1 3 4 6 7 5 7 6 3 3 5 2 3 6 4 4 4 4 2 2 3 7 3 2 2 2 2 5 10 18 18 17 15 14 17 17 16 15 15 12 12 12 13 13

GFSSW_925_spd_084.txt.gz
Wind_Speed
16 12 13 15 16 14 14 14 15 14 12 10 8 7 6 7 10 11 14 14 11 10 9 12 19 17 15 8 5 2 4 10 18 20 5 11 5 3 5 1 6 5 4 6 14
16 13 13 14 15 15 12 13 13 12 11 10 8 6 5 6 10 17 16 8 8 9 8 13 14 15 10 13 8 7 5 11 10 5 9 4 6 6 1 5 6 11 10 15 14
16 16 12 13 14 14 12 12 11 11 10 10 8 7 7 6 12 3 2 7 8 9 9 15 18 16 13 13 11 8 12 14 11 14 6 7 4 4 4 4 7 5 10 6 13
15 16 13 15 13 15 13 11 10 10 10 9 8 7 6 6 5 5 2 7 10 11 11 11 11 7 12 13 16 7 15 13 12 8 4 9 9 4 4 6 5 6 9 6 9
15 15 13 14 13 15 14 12 9 9 8 8 7 6 7 7 6 5 8 8 13 11 14 14 15 14 13 15 16 17 10 19 13 1 13 17 8 6 8 8 3 6 10 8 7
16 15 13 15 13 13 14 11 11 9 7 7 7 6 9 12 6 10 8 5 13 7 12 16 5 7 8 13 20 14 17 16 14 8 13 17 5 11 8 9 7 4 9 8 7
14 16 12 15 12 12 13 12 12 9 8 7 7 9 11 8 6 8 5 6 9 6 7 8 7 4 9 10 16 7 18 11 11 13 8 9 6 5 9 8 7 6 8 9 8
14 14 13 14 12 12 12 12 10 10 9 8 8 9 6 1 2 8 10 5 5 6 8 8 4 4 5 13 13 9 14 14 16 21 10 6 11 9 10 9 7 2 8 7 8
13 13 13 14 12 14 11 9 10 8 8 6 7 7 4 2 2 7 7 7 4 5 6 9 6 2 8 8 10 7 11 14 11 10 7 7 2 10 11 10 7 3 3 7 7
13 12 13 12 13 11 8 4 3 3 5 7 9 5 9 3 6 8 3 4 4 4 6 4 3 1 7 10 11 12 9 12 8 9 11 7 6 6 2 3 7 7 6 4 8
13 13 12 13 11 8 3 2 3 3 5 4 3 6 4 10 5 1 6 5 4 3 1 5 2 6 16 18 12 12 10 13 10 10 11 8 9 7 7 5 7 7 8 6 6
12 12 12 11 9 3 4 4 7 4 2 1 3 4 2 4 5 3 12 3 1 3 7 4 2 3 3 11 16 14 16 7 7 4 9 10 11 12 12 12 12 13 16 14 11
11 10 10 8 4 2 7 1 3 4 3 3 2 4 2 4 6 7 10 3 5 2 1 3 3 3 4 3 12 17 15 13 10 13 6 5 10 11 8 8 12 11 11 13 18
10 9 6 3 1 2 2 2 1 2 2 4 1 0 3 1 2 2 3 2 2 3 4 5 1 5 7 13 8 9 12 12 14 7 4 7 4 12 14 10 10 9 9 9 13
9 8 4 7 3 1 3 4 0 2 2 2 3 2 3 1 2 4 2 4 5 2 2 5 7 4 11 6 8 3 8 8 11 9 5 5 2 6 11 11 12 11 9 9 9
9 5 5 7 2 3 5 4 2 2 3 3 4 4 1 3 5 1 0 2 3 3 6 5 4 6 9 6 6 8 11 4 5 0 1 7 6 5 6 6 6 9 11 10 9
4 12 8 3 2 6 4 2 1 2 1 3 3 4 5 5 4 3 2 3 3 1 4 5 6 8 5 3 5 2 6 3 2 2 3 1 5 8 6 6 5 1 4 7 10
10 13 8 4 5 3 3 2 2 3 1 2 1 3 4 4 2 5 5 5 5 4 3 3 1 3 2 3 2 5 5 3 4 4 4 2 3 4 3 8 7 5 4 5 7
13 8 6 3 3 1 1 1 3 3 4 6 3 0 2 2 1 2 3 5 2 3 2 3 3 3 2 5 5 5 3 1 3 2 4 4 6 1 5 4 6 7 5 4 3
7 8 6 3 3 4 2 1 1 3 4 7 2 6 5 5 3 2 2 3 2 3 3 2 5 2 3 5 3 3 1 1 2 2 1 3 3 3 7 6 4 4 3 4 1
4 3 2 5 2 2 2 2 3 5 1 3 2 1 7 4 3 2 5 3 2 1 6 4 4 2 2 2 3 2 0 1 2 3 1 1 3 8 10 7 7 7 5 3 0
4 2 2 6 2 2 2 4 2 5 4 3 3 2 2 4 5 0 3 5 5 4 2 2 3 3 1 5 3 4 4 4 3 3 1 1 4 8 9 6 7 6 5 4 3
4 3 2 1 3 3 4 5 2 4 5 4 3 2 3 1 2 4 3 5 6 3 3 3 2 3 1 2 5 5 6 6 2 4 3 2 4 3 7 6 5 5 4 6 5
4 3 2 2 3 5 6 5 5 1 1 2 1 3 4 3 1 3 5 2 6 1 2 3 2 2 2 1 1 5 7 7 5 2 4 7 7 3 4 5 7 7 2 4 7
2 4 6 4 6 7 1 8 8 5 3 4 2 5 2 3 4 4 6 4 4 4 2 2 2 3 2 3 2 2 4 8 7 9 5 7 12 10 7 4 6 7 5 4 1
3 3 2 2 2 9 4 6 9 4 1 4 4 1 4 3 6 2 5 6 4 6 2 3 2 3 3 7 6 6 7 9 10 13 12 16 17 15 14 13 9 7 4 5 6
2 0 1 4 5 5 6 8 9 7 1 5 3 3 6 4 6 6 5 5 5 4 6 3 3 1 2 2 5 6 14 14 9 8 8 14 13 10 8 6 5 6 6 7 7

GFSSW_925_spd_087.txt.gz
Wind_Speed
15 15 10 10 13 14 14 13 13 12 12 12 11 9 8 7 8 9 9 13 14 12 10 10 10 13 17 5 4 2 6 9 4 5 1 2 5 2 3 8 5 2 3 12 17
14 14 13 11 12 14 14 11 11 11 11 10 10 9 8 8 9 11 13 14 9 6 7 7 8 10 6 5 6 6 7 11 4 4 2 3 5 4 4 6 4 5 6 13 18
15 14 13 12 13 14 14 13 11 10 11 10 10 9 8 7 4 1 4 7 9 11 9 12 6 6 12 7 8 5 7 13 3 6 5 2 3 2 4 4 3 6 7 4 6
14 16 13 12 13 12 13 13 11 9 9 9 9 8 7 4 1 2 4 6 8 12 12 6 6 5 7 12 7 10 13 10 4 2 4 4 2 3 2 4 8 10 8 5 5
15 15 14 12 13 11 13 13 11 9 9 8 7 7 4 2 4 3 8 9 9 15 16 8 13 7 10 10 7 11 8 12 6 7 1 8 6 2 3 4 10 11 6 6 4
14 15 16 12 13 13 12 12 11 11 8 6 7 8 1 3 2 8 6 4 8 8 13 10 7 7 8 6 12 12 13 13 11 7 1 4 6 10 4 3 10 11 8 6 6
14 14 15 13 14 14 11 11 11 10 7 7 6 6 4 9 7 8 9 3 7 3 2 5 10 4 5 8 8 8 12 4 10 9 4 3 4 6 6 5 8 10 9 7 7
13 13 14 12 15 12 14 11 11 10 9 7 6 5 5 4 2 8 9 2 5 5 3 9 9 2 4 7 4 13 7 10 8 12 2 10 7 14 8 8 8 8 8 8 8
12 13 13 13 12 12 12 11 9 7 6 3 4 3 4 3 3 7 6 5 4 4 3 10 1 2 4 2 5 7 9 5 9 14 6 9 2 17 11 8 8 8 7 7 7
11 12 13 12 14 11 9 8 4 4 3 3 7 4 5 1 6 7 4 3 2 2 2 6 3 3 3 1 10 9 8 6 7 11 11 10 11 13 12 8 9 7 6 6 8
10 12 12 11 10 7 7 3 2 2 4 1 3 4 4 9 7 3 8 6 3 2 2 3 3 6 8 5 10 7 13 16 5 11 11 10 6 7 6 4 5 5 5 4 6
9 10 10 9 7 3 4 2 3 1 1 2 3 5 2 3 3 7 13 3 1 2 3 4 2 4 5 11 9 13 9 8 6 15 8 8 7 11 8 6 8 10 9 8 5
8 8 8 5 3 3 7 3 1 2 1 1 2 3 1 3 4 6 9 7 3 3 2 3 4 4 8 5 7 2 8 5 9 6 6 11 8 16 7 8 8 8 7 8 9
6 6 5 2 2 3 3 3 2 2 3 5 2 1 1 10 3 4 4 2 2 3 3 3 5 6 6 3 5 6 9 11 8 7 2 5 3 12 14 11 8 10 8 9 9
5 5 4 9 1 1 3 3 3 1 5 5 4 1 2 3 1 5 3 4 7 5 4 6 9 8 9 2 6 2 15 17 11 5 7 8 2 6 10 9 11 11 11 10 10
7 5 7 9 4 2 4 3 0 4 2 5 3 4 3 4 2 3 2 2 3 4 9 7 4 4 2 4 6 5 5 9 4 2 2 5 5 5 5 16 7 5 9 10 10
6 14 14 5 4 7 5 1 3 6 4 2 3 4 4 4 3 4 1 2 1 5 6 1 3 4 1 4 9 3 4 2 3 3 4 3 4 7 3 5 8 8 9 8 8
16 16 6 7 10 5 1 3 7 3 2 2 3 3 3 4 1 5 3 2 3 4 4 5 6 8 8 4 4 7 2 4 5 3 3 1 5 5 6 5 5 5 7 5 2
21 12 6 8 8 4 2 4 6 5 5 6 2 1 1 2 2 1 2 2 1 2 4 4 3 5 3 3 3 4 3 4 4 3 4 3 5 6 3 4 3 2 3 3 4
16 9 4 7 5 3 3 3 2 5 6 3 2 5 1 2 1 1 2 3 2 3 4 3 4 4 4 4 2 2 3 4 3 2 3 3 3 4 5 5 4 4 3 5 3
11 3 3 7 3 1 2 4 3 3 3 3 2 3 3 3 3 1 2 3 2 2 2 2 4 2 2 2 2 4 3 2 2 4 3 1 5 5 8 7 7 5 4 4 6
8 3 4 7 2 1 1 4 3 5 2 1 2 3 5 4 2 1 3 2 2 1 2 2 4 3 1 2 1 0 1 1 3 3 1 3 4 2 7 7 7 5 4 2 2
4 3 2 2 3 3 3 3 1 5 5 4 3 0 3 1 3 3 5 3 1 3 2 2 1 3 3 5 3 3 4 3 2 3 2 4 4 2 4 6 6 7 7 5 5
4 4 2 2 2 2 5 4 3 1 3 1 2 2 1 1 2 3 3 2 3 1 2 2 2 5 5 4 4 4 5 5 4 3 4 5 4 3 5 6 6 6 3 6 7
2 4 5 5 4 5 2 7 5 4 1 3 1 1 0 3 3 4 4 2 1 2 4 3 2 4 2 3 3 2 3 6 6 7 5 8 10 13 6 1 2 5 7 7 7
4 4 3 4 4 7 3 5 7 3 4 4 2 2 5 4 2 3 4 3 3 0 1 2 3 4 4 4 4 3 6 7 7 6 8 10 12 9 7 10 5 6 5 7 6
3 3 4 1 5 5 4 5 8 7 3 3 3 4 5 3 2 2 3 0 3 6 2 3 3 2 4 3 4 6 7 9 4 6 6 9 16 2 6 8 5 5 4 5 7

GFSSW_925_spd_090.txt.gz
Wind_Speed
12 13 13 12 10 13 14 14 11 11 11 11 10 9 8 6 5 5 5 8 5 12 12 9 8 4 6 3 6 5 5 11 6 10 5 2 4 2 3 6 3 2 3 18 29
11 13 13 12 11 12 15 14 11 9 10 10 10 9 8 7 7 7 8 8 8 8 9 6 3 2 3 4 4 4 8 13 4 3 2 4 2 4 5 3 3 4 6 25 30
10 12 14 13 12 12 11 12 12 8 8 9 9 8 8 6 2 4 1 4 7 8 11 16 7 2 5 7 6 11 11 6 3 3 1 4 2 2 8 3 4 12 16 10 16
10 12 13 12 12 12 10 11 12 9 7 8 8 9 8 2 2 2 3 7 9 6 8 15 4 4 4 14 8 8 19 7 3 2 3 2 5 4 2 5 5 6 9 7 5
10 10 13 13 12 13 11 12 12 10 6 6 7 9 3 2 5 1 8 9 7 10 7 14 8 7 9 6 8 15 13 13 9 3 2 2 5 1 4 4 6 6 5 8 8
10 10 11 12 12 14 12 10 11 9 7 5 6 7 1 3 1 5 10 8 8 9 5 12 6 12 6 4 14 7 14 15 7 2 2 3 4 4 2 3 6 7 7 5 8
9 9 11 11 11 13 11 12 10 9 8 6 5 5 2 7 4 7 8 3 6 7 2 8 3 7 10 6 6 6 12 12 11 5 2 1 1 1 2 1 5 6 5 6 7
9 8 9 9 12 12 13 11 9 8 9 6 4 4 5 7 3 4 6 3 4 1 3 3 3 6 6 3 1 14 8 8 13 15 2 7 2 3 6 2 5 5 5 5 6
9 9 7 8 11 12 12 9 7 6 4 3 3 3 6 6 2 10 5 5 6 1 3 6 3 3 6 3 6 10 8 9 6 14 6 5 3 8 5 7 6 5 5 6 6
9 8 6 8 9 10 8 7 3 3 1 2 6 3 4 2 4 8 5 7 4 4 2 3 3 1 2 2 11 8 9 9 8 5 13 12 3 12 4 5 5 7 6 6 7
10 7 6 6 7 7 7 1 3 2 1 3 3 4 4 9 6 1 7 6 3 1 3 2 3 5 7 8 1 11 13 10 11 10 5 8 4 8 5 6 8 8 5 6 7
9 7 5 4 4 3 3 2 3 1 2 6 5 4 4 4 3 2 14 3 1 3 3 3 2 8 5 8 4 8 14 7 11 15 5 8 6 6 3 8 11 11 8 8 5
10 8 5 3 3 5 6 3 2 2 2 1 1 2 1 4 3 4 4 4 2 2 2 1 3 10 5 4 4 5 13 11 9 7 6 7 4 9 7 16 18 9 8 7 10
11 9 6 6 4 6 4 6 4 2 4 8 3 2 1 2 3 4 2 3 1 2 2 4 4 9 9 2 4 6 7 13 15 7 2 1 2 8 13 12 12 15 8 9 9
12 11 10 12 5 4 6 5 5 2 5 5 6 1 2 1 4 1 3 2 4 5 4 1 9 9 4 4 3 4 10 11 17 9 5 2 2 6 4 15 14 12 13 10 10
14 12 14 10 5 4 6 7 3 5 1 5 3 4 1 3 1 4 1 1 2 4 11 7 2 4 4 4 4 7 10 11 9 3 1 7 6 4 5 11 15 6 9 10 10
15 16 18 11 5 10 10 4 4 5 2 4 3 3 3 3 2 2 4 4 3 5 8 6 6 6 5 6 10 12 6 3 2 2 3 7 8 9 8 6 9 10 10 11 9
18 23 12 7 13 12 6 4 6 3 4 1 3 5 1 3 2 2 3 4 5 5 3 3 4 6 7 4 4 4 4 3 4 4 3 5 5 5 4 4 3 3 3 5 7
29 17 10 12 12 10 3 4 7 6 6 6 1 2 4 1 2 3 2 2 2 4 5 4 5 4 3 3 2 3 4 3 6 4 4 3 5 5 3 4 4 5 5 2 3
20 10 6 12 11 6 3 3 3 5 6 4 4 4 1 1 2 3 2 3 3 4 2 3 4 2 3 0 1 2 2 3 4 3 2 3 4 3 2 5 1 2 2 3 3
17 4 7 11 8 2 3 5 4 4 5 6 3 3 3 3 2 2 3 5 5 6 6 3 4 4 4 4 2 4 3 4 3 3 4 3 5 5 8 7 8 5 3 1 3
7 4 7 11 2 2 3 5 4 5 2 2 2 2 5 4 2 4 3 3 2 1 4 3 3 3 1 3 1 1 2 3 4 3 1 2 5 5 4 6 6 5 3 1 2
4 3 2 2 4 3 4 4 3 4 5 5 3 3 0 2 4 4 3 2 4 5 2 1 2 3 7 5 4 2 1 3 4 3 2 3 4 4 3 2 5 3 3 4 4
4 5 2 1 1 3 4 4 4 3 3 3 2 3 3 2 4 4 2 0 2 2 2 3 3 5 5 5 2 2 2 3 4 3 3 5 3 3 4 5 5 2 5 5 6
2 4 4 7 5 4 2 6 6 5 1 3 1 2 2 2 3 4 3 3 2 3 2 3 3 2 3 3 4 3 3 3 5 5 4 2 6 7 6 6 5 6 5 7 8
4 4 2 4 4 7 4 7 7 4 5 3 4 4 4 4 2 4 5 2 4 1 2 2 1 2 3 3 4 3 5 6 6 3 7 9 13 9 8 5 6 7 5 5 7
2 3 4 4 5 5 4 7 7 8 3 4 6 6 5 5 4 3 1 2 4 6 2 2 3 2 3 4 5 5 5 4 2 3 4 7 9 6 6 7 7 5 4 6 6

GFSSW_925_spd_093.txt.gz
Wind_Speed
10 11 11 11 11 11 13 15 14 7 8 8 8 8 8 7 7 5 5 5 4 6 10 7 7 5 5 3 4 2 11 11 9 9 12 3 5 0 2 7 1 6 5 12 28
10 10 10 11 11 11 11 13 12 9 7 8 8 8 8 7 7 7 7 6 8 5 5 4 4 7 3 3 3 5 9 10 2 1 5 4 4 6 3 4 3 3 4 33 33
12 10 10 12 11 11 11 11 12 11 5 6 7 7 7 6 2 5 3 2 3 4 8 6 4 4 6 5 6 5 12 14 11 3 4 4 2 3 7 4 5 15 16 19 23
14 12 10 11 12 10 11 9 11 11 7 5 6 8 8 1 3 3 3 4 6 8 1 1 1 2 4 12 8 7 12 11 3 5 4 5 2 3 1 3 1 15 21 21 19
15 11 12 9 10 9 10 10 10 11 9 5 4 7 2 1 6 2 5 6 5 4 5 4 6 6 10 4 7 12 6 19 19 10 4 7 2 1 4 4 2 9 17 19 17
15 13 12 10 9 8 10 10 9 9 7 3 3 5 1 3 2 3 6 6 4 3 6 5 6 9 4 5 11 6 15 10 20 16 2 3 3 3 4 3 4 6 10 13 14
14 14 11 10 8 7 9 8 10 8 7 4 3 3 1 9 4 7 3 3 4 2 4 2 6 6 7 4 12 17 5 10 17 17 2 4 2 5 5 2 4 3 6 7 10
15 13 11 8 6 7 7 9 6 6 6 5 2 2 5 5 7 6 4 4 3 3 2 6 2 3 3 7 4 10 6 11 15 16 9 4 6 2 7 3 2 1 3 5 6
15 13 12 8 6 5 8 5 5 3 3 3 2 3 6 6 6 6 5 4 3 3 3 6 4 4 6 8 8 7 5 12 6 19 7 4 4 2 6 6 6 5 4 4 4
16 15 11 9 5 4 6 3 1 3 2 3 3 2 5 2 6 8 4 4 7 2 3 3 3 4 1 9 9 12 4 6 7 10 16 9 6 4 6 6 4 6 6 5 4
16 14 10 9 4 3 4 3 3 1 1 4 4 3 5 6 7 0 2 6 3 3 2 3 3 6 5 4 3 13 5 10 4 11 10 7 14 3 5 5 4 4 4 7 6
18 14 11 8 4 4 6 2 2 1 1 7 6 4 6 1 3 1 8 1 2 2 2 3 2 7 7 2 3 12 9 12 14 16 6 5 7 4 5 3 2 3 5 6 5
19 15 12 8 8 7 6 4 2 1 2 3 4 3 2 1 3 3 3 5 3 3 4 3 6 9 5 3 8 4 13 8 14 7 5 7 4 5 5 7 7 5 7 5 8
19 16 14 12 8 10 3 6 3 2 4 5 1 2 2 2 3 2 2 3 2 1 4 3 7 9 5 7 8 4 4 17 19 4 3 4 1 7 7 9 10 9 7 9 9
22 19 16 17 14 8 5 9 6 4 5 2 3 2 3 3 4 2 2 3 5 4 4 2 8 6 6 3 1 3 14 14 13 7 3 3 2 4 3 14 11 9 10 10 10
23 22 20 12 8 9 12 11 5 5 3 4 2 2 2 2 2 3 3 3 4 3 10 5 1 4 4 3 7 9 18 13 6 3 1 5 2 3 5 7 6 15 9 9 9
24 22 24 13 8 17 15 4 4 4 2 2 0 3 4 3 4 2 2 2 3 3 6 7 6 5 4 8 11 14 5 3 2 1 3 6 4 8 7 8 7 9 10 10 8
27 23 18 8 19 19 8 4 4 2 4 1 3 5 2 3 2 3 2 5 6 6 4 5 5 9 9 3 4 3 1 3 4 4 2 3 4 5 3 7 5 4 2 4 6
31 22 13 15 20 17 4 3 7 6 6 7 3 1 3 2 2 4 3 3 4 5 4 3 4 5 7 4 3 3 5 0 5 2 4 3 6 8 4 5 5 7 7 7 7
25 12 7 16 17 7 4 4 2 3 5 4 5 3 1 1 2 4 5 3 3 2 2 2 5 4 4 3 5 2 3 1 2 3 1 4 4 4 2 2 3 4 6 6 5
24 4 8 15 13 3 3 5 5 4 3 5 5 4 4 2 1 2 4 4 4 5 4 3 4 3 2 4 3 4 3 5 4 3 3 2 5 3 6 3 2 1 3 3 4
6 4 11 15 3 2 3 5 3 3 1 2 4 3 5 3 3 3 2 2 5 2 3 1 4 3 1 3 1 0 3 3 4 2 2 3 4 3 4 2 2 3 5 6 5
4 4 4 2 3 2 3 3 2 3 3 3 3 4 2 4 4 2 2 4 5 5 2 1 2 3 6 5 5 3 2 4 4 3 2 4 4 3 5 5 2 2 4 4 5
4 4 2 1 1 3 3 4 4 3 3 3 3 2 3 4 5 3 2 1 3 3 4 3 3 4 5 3 3 2 0 1 4 3 2 4 4 4 3 2 4 4 4 6 6
3 3 4 6 7 4 1 5 5 4 1 3 2 3 4 3 3 3 2 1 3 5 3 3 3 3 2 1 2 1 2 4 4 4 4 2 5 5 6 5 6 6 6 7 8
4 4 3 2 6 6 1 6 5 3 3 3 5 3 4 4 4 5 5 1 1 4 3 3 1 2 4 6 1 2 4 4 4 4 6 5 9 7 9 4 5 8 7 7 7
2 3 4 4 5 6 5 6 7 6 5 3 7 5 5 4 4 4 3 2 2 4 2 3 3 2 2 4 4 3 2 3 2 2 3 4 7 3 6 7 7 7 7 6 6

GFSSW_925_spd_096.txt.gz
Wind_Speed
17 16 15 13 13 10 8 10 13 12 6 5 7 8 9 8 9 5 4 4 2 5 6 7 5 6 4 2 2 3 6 12 13 10 7 3 10 4 1 11 6 17 12 11 23
18 16 15 14 13 11 9 9 10 11 7 5 6 7 7 7 8 7 6 5 5 4 2 2 3 6 3 2 3 5 9 15 3 5 4 11 5 5 5 6 5 8 8 25 32
19 16 15 14 13 11 9 8 8 10 10 5 6 6 7 6 2 5 3 2 2 5 4 4 1 1 3 3 4 4 13 15 9 9 5 6 6 6 5 7 7 21 21 21 23
20 17 15 14 12 12 8 9 7 9 10 5 5 6 8 1 3 2 3 2 5 5 5 0 1 2 5 6 5 6 8 10 13 7 4 6 10 8 5 2 5 18 26 20 19
21 17 15 13 12 11 9 8 7 8 8 4 4 5 1 1 6 3 2 4 5 3 4 3 4 3 6 5 5 9 11 5 14 5 6 8 7 7 6 4 5 17 21 26 26
22 17 15 12 12 12 8 8 5 8 5 3 3 4 1 2 2 3 3 5 5 6 5 3 4 7 6 7 6 5 14 12 7 11 5 10 5 5 2 7 6 19 22 16 17
26 17 14 11 11 12 8 7 7 6 5 5 2 2 1 9 2 4 4 5 7 7 3 9 16 12 7 4 7 9 4 11 13 9 7 10 8 6 7 5 4 9 16 19 14
25 18 16 12 11 10 8 8 4 3 3 5 2 1 5 4 5 5 5 7 8 6 6 6 4 10 7 2 3 8 6 3 10 11 6 8 9 2 9 2 4 6 7 14 18
27 20 16 11 10 8 7 6 3 1 2 2 2 2 7 6 4 6 8 6 7 6 4 2 2 3 4 2 4 7 4 6 5 13 7 6 9 8 9 4 5 5 6 6 4
25 20 16 9 10 8 8 4 2 3 3 3 1 0 5 1 3 4 7 8 5 2 3 5 1 4 3 5 8 7 7 6 6 8 12 6 12 17 9 6 3 5 4 4 6
20 19 16 10 9 8 8 4 3 3 3 5 4 3 3 3 6 2 2 6 2 2 4 3 3 6 15 12 9 5 4 7 3 12 6 9 8 14 13 4 5 3 3 3 3
22 22 15 12 11 10 10 3 3 3 2 7 4 4 8 2 2 2 5 2 3 5 5 4 6 7 8 9 11 11 9 10 14 13 5 6 6 12 11 5 4 3 2 2 1
17 23 16 13 11 10 9 4 4 3 2 3 4 3 3 3 2 2 2 4 4 7 9 6 2 11 7 7 10 5 13 9 9 10 4 5 4 4 5 5 4 5 4 2 0
18 22 17 17 9 9 4 9 5 4 4 3 2 3 2 3 1 3 6 5 2 4 4 5 4 6 7 5 9 6 9 13 18 9 4 2 2 4 4 11 6 7 5 6 5
17 23 22 20 9 8 7 12 8 4 3 3 1 2 1 2 2 4 4 6 4 4 5 1 5 6 2 3 8 3 13 12 10 5 5 4 2 4 3 8 9 6 7 8 8
18 24 23 18 8 7 18 15 5 6 4 2 2 2 4 3 3 3 4 4 3 5 2 4 2 3 3 3 8 12 15 7 3 2 3 4 2 5 2 6 2 4 8 7 7
27 25 24 15 6 20 20 4 5 4 3 2 2 3 3 3 2 1 3 4 2 2 6 7 14 3 5 10 7 7 5 3 3 3 2 1 1 6 3 7 3 8 9 7 6
29 25 22 12 20 24 10 4 4 2 4 1 2 3 3 3 3 3 3 4 3 3 3 5 5 10 12 5 4 4 3 3 4 3 2 5 3 4 2 6 4 1 3 3 6
31 22 14 12 24 20 4 3 6 5 5 6 3 2 4 2 0 4 5 3 3 5 4 4 5 4 5 2 2 4 4 2 6 4 4 1 5 6 4 6 6 7 8 8 7
22 13 7 23 18 7 4 3 2 3 4 2 3 2 1 3 5 3 5 3 6 4 0 2 5 4 5 3 4 3 1 2 3 4 2 1 3 3 8 7 6 8 8 7 6
23 5 11 19 12 3 3 4 3 3 2 3 4 3 4 1 1 2 3 3 5 7 4 2 3 2 2 4 3 5 3 4 5 4 3 2 3 3 7 6 3 6 6 6 7
5 4 15 18 3 1 3 4 4 4 2 0 2 2 4 2 4 3 2 1 6 4 4 4 4 4 2 4 2 2 2 3 4 1 2 2 3 2 4 2 4 4 4 3 3
3 3 5 2 4 3 3 3 3 3 3 2 1 2 3 2 3 3 2 3 6 5 2 1 3 3 6 5 4 4 3 3 5 4 1 3 4 3 3 5 4 4 5 5 6
4 4 2 2 2 4 4 4 4 2 4 2 1 1 3 3 5 3 2 3 5 3 7 4 3 3 5 3 2 2 3 3 4 3 3 4 3 4 7 6 7 6 5 6 7
2 3 3 7 7 4 2 4 5 4 1 1 0 2 4 3 2 3 2 4 4 7 4 4 4 3 3 1 3 2 3 2 2 2 4 3 5 6 7 6 7 6 6 8 9
4 4 2 1 8 5 1 4 5 3 4 3 3 2 2 4 3 5 4 1 0 5 3 3 1 2 5 7 5 1 1 2 3 3 4 4 7 5 5 5 6 8 8 8 8
2 1 4 7 5 5 4 6 7 7 3 1 6 4 4 2 4 5 3 6 3 2 2 3 3 3 3 4 3 3 1 0 2 1 1 2 5 5 7 7 6 7 6 7 7

GFSSW_925_spd_099.txt.gz
Wind_Speed
26 21 14 12 13 13 14 11 12 12 11 6 6 5 7 8 9 6 4 4 0 3 2 4 3 6 3 1 2 1 6 13 18 20 17 7 7 16 4 5 10 14 9 8 17
30 23 17 13 10 12 13 12 10 11 9 6 4 5 5 7 9 7 5 4 4 1 2 4 2 4 1 2 3 5 8 18 8 11 7 15 14 13 7 8 10 10 3 27 30
27 25 18 13 9 11 12 11 10 10 8 7 4 4 4 5 2 4 3 3 1 1 3 4 3 1 3 2 3 4 14 13 11 11 6 4 4 3 7 12 9 19 14 10 18
31 27 20 14 11 9 12 9 9 9 8 8 4 3 5 1 1 2 4 1 1 2 1 3 3 2 2 6 5 9 10 13 8 10 8 8 4 5 6 10 11 14 20 14 17
27 21 21 17 13 12 9 9 9 9 6 7 3 2 1 1 6 5 5 2 2 2 5 3 2 2 5 3 5 10 10 8 10 13 14 8 8 3 16 15 11 10 19 21 18
33 31 25 19 15 11 9 7 8 7 6 4 3 2 3 2 2 6 3 2 2 4 4 6 6 5 6 8 8 4 14 16 14 10 9 6 7 7 6 14 18 14 22 23 22
28 29 25 17 13 9 7 6 7 9 7 5 5 3 2 8 3 4 4 4 5 5 3 9 6 3 4 7 13 14 6 7 15 13 3 2 8 7 12 15 17 20 20 20 16
26 22 18 17 10 9 6 6 7 7 5 5 6 4 4 2 4 6 6 6 7 7 8 8 7 6 11 7 4 13 7 8 13 12 4 3 5 3 14 17 17 14 18 20 13
27 28 17 17 10 7 6 4 5 4 2 6 5 3 6 4 4 5 9 5 5 5 5 3 4 5 6 4 7 9 5 9 6 16 5 7 0 4 16 16 18 12 10 18 20
30 30 17 18 9 8 5 2 2 3 5 5 3 1 5 2 2 2 4 5 4 1 2 4 3 3 4 4 9 7 8 7 6 12 7 7 4 10 14 16 16 12 13 13 13
28 29 18 17 12 9 8 5 2 2 4 6 4 3 3 1 5 2 1 0 3 3 6 5 4 6 11 11 2 2 9 11 4 11 8 7 1 5 12 11 15 9 8 2 11
24 27 20 16 14 11 11 3 4 1 2 8 3 4 6 2 1 2 1 3 4 8 2 4 8 8 11 10 9 2 10 6 9 11 4 6 2 5 7 12 13 10 6 3 4
21 29 22 17 14 13 13 10 4 2 3 2 3 3 2 4 3 4 4 2 5 7 9 10 4 10 8 9 10 7 12 7 13 10 8 5 6 7 8 10 8 11 7 3 4
18 22 18 17 10 6 6 18 6 3 4 3 2 4 3 3 3 3 5 3 2 4 6 6 5 8 10 7 10 9 7 14 16 6 5 2 1 5 3 5 9 8 4 2 1
15 18 20 18 10 7 4 14 9 2 3 3 2 2 2 2 5 3 4 5 5 5 3 5 5 3 5 7 13 3 9 16 8 9 10 1 2 4 2 1 8 6 1 3 3
17 25 26 14 6 6 16 15 3 6 4 2 1 2 1 3 3 2 3 4 6 0 3 3 2 1 2 1 4 10 7 5 3 0 4 1 2 2 2 1 6 5 4 5 4
16 8 28 16 7 17 18 2 4 4 3 2 2 1 1 3 2 2 3 2 4 4 5 3 3 3 2 7 3 5 4 2 4 4 2 4 1 3 2 2 4 7 7 7 5
13 17 19 11 14 22 7 4 4 2 4 1 1 2 2 4 2 2 1 6 4 4 4 5 5 8 7 3 3 3 2 3 5 4 3 3 4 2 3 6 5 6 6 5 3
13 18 16 9 22 18 4 2 6 5 5 6 3 4 3 1 1 4 5 5 3 5 4 2 5 3 5 4 3 6 4 1 6 2 3 2 2 1 4 9 7 7 5 5 5
10 10 7 14 21 8 4 3 2 3 2 2 4 1 2 5 4 3 5 4 6 5 2 2 4 3 3 2 5 1 0 1 3 4 4 3 2 2 7 7 5 6 6 6 5
18 4 8 20 12 4 2 4 3 2 1 1 3 4 1 1 2 3 4 3 4 6 5 2 3 2 2 4 2 3 2 5 4 2 4 3 2 2 5 4 3 4 4 5 5
6 3 16 16 3 2 2 4 3 2 3 1 4 3 3 1 3 3 2 2 7 2 3 3 3 4 1 4 3 2 3 3 3 3 4 3 1 2 2 1 3 4 5 4 5
3 3 6 1 3 4 3 2 2 3 1 2 2 1 1 2 3 2 1 2 6 4 2 1 3 3 6 3 2 5 4 4 4 2 2 4 2 2 3 4 5 5 4 3 4
4 4 2 1 2 4 4 3 3 2 2 3 3 3 3 4 5 2 2 3 5 3 8 4 4 3 4 2 1 4 4 3 3 3 2 1 0 1 6 6 7 6 6 7 7
3 2 3 6 4 3 1 4 5 3 2 3 3 2 2 2 2 2 1 3 3 7 4 4 4 3 4 3 3 3 4 3 4 2 3 1 2 4 6 6 6 5 5 5 6
3 4 2 2 9 4 1 3 4 2 3 1 5 3 2 3 1 5 3 0 1 5 4 4 1 2 4 5 5 2 2 3 3 2 0 1 2 2 5 4 6 6 6 6 8
2 3 4 6 10 3 5 4 6 5 4 3 5 5 5 2 2 3 4 5 3 2 3 3 3 3 2 4 3 4 2 1 1 2 2 2 2 4 5 7 8 10 9 8 8

GFSSW_925_spd_102.txt.gz
Wind_Speed
27 28 24 17 12 11 9 9 8 7 9 10 6 7 7 8 9 6 7 3 2 3 1 1 1 2 3 6 9 5 9 16 24 25 22 19 19 18 22 15 12 17 16 4 24
24 22 19 19 14 12 8 8 6 6 8 8 7 5 6 7 8 9 6 5 4 4 3 0 1 2 5 5 6 11 13 20 21 18 16 23 17 15 11 18 19 16 10 16 22
23 22 23 23 17 13 8 7 6 6 7 7 6 4 5 6 5 1 4 7 5 6 4 2 1 2 7 9 9 10 19 17 14 16 15 15 15 17 20 17 19 17 15 15 22
24 20 26 25 19 14 9 7 5 4 7 7 4 3 6 2 3 5 6 5 6 6 4 2 1 3 4 9 12 14 17 17 18 13 13 13 16 13 17 21 20 11 14 16 17
23 23 19 19 21 13 8 5 3 7 5 6 4 4 1 4 6 7 6 6 5 2 4 4 5 4 8 6 7 16 20 16 12 15 19 15 15 15 15 8 9 11 14 20 19
23 23 20 15 20 14 6 5 5 4 3 5 5 4 4 7 2 7 7 5 4 4 4 5 3 4 8 11 12 9 16 21 14 14 14 18 17 11 8 12 14 12 11 17 19
24 24 25 16 21 13 6 7 3 3 7 7 8 4 6 9 3 7 6 5 6 6 6 8 7 7 2 9 15 17 18 15 16 19 15 16 20 15 6 6 15 12 13 13 18
22 23 19 24 16 13 9 8 2 4 5 8 8 3 6 3 5 8 7 6 5 6 5 3 6 9 6 7 8 13 17 17 17 15 12 11 20 17 3 5 9 13 15 11 15
23 23 25 22 22 15 11 6 5 3 2 6 5 4 5 2 6 6 8 8 5 5 5 4 7 5 3 7 7 12 12 19 16 18 12 14 8 5 2 5 8 13 15 11 18
22 22 30 27 22 18 13 11 8 4 5 3 1 3 5 3 3 3 4 6 7 4 5 6 4 4 4 6 8 10 17 16 17 20 17 13 9 7 4 4 12 14 15 11 10
19 17 14 23 25 21 21 13 7 2 6 7 3 2 2 2 1 4 4 5 6 5 9 5 5 10 11 16 6 2 12 14 15 19 17 12 8 9 5 2 9 13 12 12 8
16 15 19 18 19 19 18 5 5 3 3 14 5 7 6 1 4 7 6 4 5 9 7 5 10 13 13 14 13 2 13 15 9 19 11 10 10 6 8 4 7 13 10 10 2
13 19 26 23 21 16 10 10 4 4 3 4 4 5 1 6 3 4 5 0 6 9 12 11 5 9 8 7 8 8 12 12 11 14 5 11 5 4 3 2 7 8 9 7 4
11 11 27 25 12 11 4 16 3 3 1 5 3 1 4 3 3 4 6 4 3 5 5 7 5 6 8 11 9 9 15 10 16 15 5 7 4 9 13 7 4 6 5 5 4
9 8 21 19 13 7 3 16 8 1 3 4 3 2 1 4 2 4 5 5 4 2 3 2 3 6 5 7 13 3 14 16 19 10 7 9 4 6 10 4 6 5 8 6 7
6 5 19 11 10 7 12 18 6 2 2 3 2 2 3 3 1 1 4 5 5 1 1 2 2 3 3 7 15 7 8 3 1 3 5 4 6 2 6 5 0 1 10 8 9
6 10 18 13 6 16 21 7 3 3 1 4 2 3 3 3 2 2 3 4 5 2 3 2 2 2 2 6 8 7 11 3 3 3 4 2 2 4 5 6 4 10 9 2 7
5 3 21 9 20 24 10 2 3 2 3 2 2 2 4 3 1 3 4 6 6 4 2 3 3 3 1 2 3 4 2 2 5 4 4 3 5 5 9 8 9 5 5 3 6
3 17 13 12 19 12 6 2 2 2 4 7 3 3 2 2 2 4 5 7 6 9 3 2 4 6 7 4 2 1 3 2 5 3 5 3 5 5 6 11 10 9 10 12 10
5 10 5 14 16 3 1 2 1 1 2 1 1 2 2 3 1 3 6 5 7 6 4 3 4 6 6 5 3 5 1 1 1 4 5 5 8 6 7 9 9 13 13 13 12
8 3 6 17 8 2 1 1 2 1 2 2 2 4 2 1 3 3 4 3 6 7 5 3 3 4 3 7 8 4 2 4 1 3 4 5 5 6 3 5 10 10 9 8 9
4 3 11 13 3 1 1 2 2 2 1 1 2 3 2 1 3 2 3 3 10 4 4 4 3 4 4 2 4 3 5 3 2 4 4 8 5 5 5 7 8 8 6 7 9
3 3 6 3 2 4 2 1 2 2 1 1 2 1 1 2 1 1 2 3 7 5 4 3 3 2 4 4 2 5 6 4 2 1 3 3 6 4 7 6 10 9 8 7 9
3 3 2 2 2 4 2 2 3 1 1 1 2 1 2 2 4 3 1 3 5 4 7 1 4 5 3 4 2 2 7 9 5 3 7 10 15 5 8 8 8 8 9 10 11
3 3 4 4 5 5 2 2 4 2 2 3 2 3 2 2 1 2 1 2 1 5 2 2 4 4 7 6 3 6 7 8 5 3 5 7 8 9 9 9 10 10 11 12 13
3 4 3 3 8 4 3 4 7 2 1 1 3 3 4 3 3 1 1 0 2 4 3 2 4 2 3 5 4 6 4 3 5 3 5 4 9 6 5 8 10 10 10 11 11
3 2 3 6 8 5 4 4 6 4 2 3 3 4 8 4 5 6 6 6 4 2 3 2 2 1 2 5 1 5 5 5 3 5 3 3 5 7 8 8 5 7 8 8 10

GFSSW_925_spd_105.txt.gz
Wind_Speed
19 21 22 24 22 14 11 8 7 7 5 6 7 5 4 5 9 8 9 3 1 6 2 5 6 5 8 12 15 9 10 18 25 25 21 22 21 22 15 19 23 15 17 4 18
20 18 19 17 19 16 13 7 6 6 5 5 5 5 5 7 9 12 7 6 4 4 8 6 6 5 9 9 9 13 13 22 19 19 20 22 24 23 19 26 18 21 10 7 21
21 20 18 15 16 20 13 8 7 5 4 5 5 5 4 6 11 1 5 8 5 5 1 2 4 7 11 11 14 16 21 19 18 18 17 22 20 14 17 13 16 19 24 10 16
21 21 21 21 19 21 14 11 6 4 4 4 5 4 2 2 2 5 7 6 7 4 1 4 6 8 8 10 14 19 21 17 20 21 15 17 15 18 16 21 18 21 9 12 12
21 21 20 20 17 21 17 10 8 7 3 3 4 4 1 4 7 7 7 7 7 2 6 7 9 9 12 8 11 17 19 20 19 18 17 18 18 18 19 16 10 11 11 11 14
22 21 20 21 23 20 19 12 9 5 6 3 5 2 1 6 2 6 7 5 4 5 7 7 6 6 10 12 13 14 16 18 20 20 17 18 21 22 18 17 13 14 14 9 10
21 21 21 20 25 24 16 14 11 8 5 3 5 4 5 8 1 5 5 6 6 7 7 7 7 7 3 11 10 15 21 20 21 18 20 14 23 26 21 15 13 17 16 8 14
19 20 22 17 11 19 18 16 9 6 5 8 6 4 4 1 4 5 7 7 6 7 7 5 6 11 11 9 14 16 19 18 22 21 20 21 20 22 22 10 16 14 10 12 14
17 21 22 23 21 19 19 13 9 6 5 7 7 2 4 2 6 7 9 10 10 7 6 7 6 8 3 7 9 12 14 19 21 20 18 19 16 18 8 8 12 10 12 11 12
15 20 23 24 23 23 17 16 11 12 10 7 4 3 5 2 4 4 7 9 8 9 9 10 6 5 4 6 11 7 14 18 17 18 20 20 16 4 8 11 11 9 8 11 10
14 16 17 21 27 24 27 16 6 3 6 5 6 2 1 3 3 6 8 8 11 10 13 9 6 12 15 16 20 16 16 14 16 19 21 20 17 15 12 10 13 10 9 9 12
12 13 10 7 19 18 17 2 2 3 4 11 2 5 6 2 4 6 6 7 10 12 12 5 15 15 11 15 15 16 13 17 17 14 18 18 15 12 12 13 14 11 10 11 9
12 13 15 18 19 17 6 1 1 1 2 4 4 4 1 5 5 4 10 3 9 8 10 11 6 3 7 12 12 14 18 17 6 20 19 14 11 10 7 7 9 10 12 9 5
9 11 16 29 14 9 4 11 3 3 1 5 4 3 4 2 5 6 8 4 3 3 4 7 5 8 11 13 13 14 14 9 17 18 9 16 6 5 5 6 10 10 8 5 4
4 5 16 14 12 8 2 12 5 4 3 4 4 3 1 6 1 8 6 3 3 2 2 3 2 5 8 10 10 8 14 10 15 8 14 6 3 5 6 2 4 2 5 6 8
1 6 17 4 7 5 9 12 3 3 3 3 3 3 4 9 4 5 5 2 3 2 4 3 2 3 6 7 10 9 4 7 3 5 5 5 3 10 7 6 1 8 6 9 9
3 2 9 4 1 12 13 5 2 2 1 4 4 5 5 2 2 1 3 3 2 3 1 2 1 4 6 2 6 3 5 2 1 3 4 8 6 6 11 10 3 5 4 7 9
2 2 8 5 14 17 6 3 1 3 3 1 3 5 1 2 2 2 3 3 3 3 2 4 3 5 3 4 3 6 5 3 3 2 5 11 8 5 10 7 5 5 3 8 7
13 15 7 11 17 10 4 0 2 3 2 5 5 4 3 2 2 2 4 5 5 7 4 1 3 5 1 7 6 4 2 4 1 11 5 3 1 3 9 10 10 3 13 12 10
10 7 7 11 10 3 2 2 2 1 1 2 1 4 2 4 2 3 5 7 4 6 4 3 2 4 7 6 3 2 2 3 1 2 6 5 5 5 11 14 13 13 15 13 10
7 3 5 10 7 4 0 4 3 1 3 4 4 2 4 4 6 5 6 6 9 6 4 1 3 5 3 7 9 8 6 4 4 3 3 5 6 6 9 12 14 15 13 11 10
4 3 5 7 1 4 1 3 3 1 1 2 3 5 7 4 5 3 6 7 10 6 5 5 3 3 2 4 2 5 7 6 4 3 4 8 6 6 9 11 10 11 11 10 11
3 3 5 5 1 2 2 2 3 2 4 4 3 5 4 4 1 3 4 5 8 8 5 6 3 1 3 4 4 4 10 9 3 4 5 1 7 7 8 11 12 12 12 11 12
4 3 1 2 3 0 3 1 2 1 2 3 3 2 2 4 4 3 2 4 6 6 4 5 5 5 5 5 5 7 12 13 5 5 12 12 15 10 10 10 10 11 11 11 12
1 3 4 4 3 4 0 1 4 1 1 3 2 4 5 2 2 4 4 2 2 2 2 3 4 5 8 6 5 7 10 13 11 6 9 13 12 9 9 9 9 9 10 12 13
1 3 4 4 5 6 4 5 6 2 3 2 2 4 6 5 5 4 5 4 4 4 3 1 3 1 4 6 4 7 10 7 10 9 8 10 8 5 6 7 8 9 10 11 12
2 1 1 6 6 5 4 3 5 2 2 3 2 2 6 6 6 6 6 5 5 6 5 4 2 0 2 3 1 1 8 7 5 8 5 1 4 3 4 5 3 5 5 6 7

GFSSW_925_spd_108.txt.gz
Wind_Speed
17 17 16 16 16 16 16 13 9 9 7 4 4 5 4 4 7 7 8 0 3 3 4 7 6 6 6 8 10 8 7 11 17 18 17 14 17 19 9 17 13 4 2 10 8
17 17 17 17 13 12 16 13 10 10 7 4 3 4 5 5 8 11 8 5 3 2 5 7 6 5 4 8 6 8 7 12 15 17 15 16 17 17 16 12 8 7 4 19 13
17 17 19 16 16 15 21 15 12 10 6 2 2 4 5 4 8 4 7 8 5 3 3 2 5 4 8 8 9 11 14 14 18 17 17 15 16 17 10 11 4 4 7 6 13
17 17 18 17 17 12 18 17 15 10 7 2 3 5 3 4 1 7 7 7 7 3 1 2 4 3 5 6 9 14 14 16 16 17 17 16 16 18 12 10 7 7 9 4 8
16 17 18 19 19 17 12 21 14 11 7 5 5 5 2 2 2 12 9 7 7 1 3 5 5 7 9 6 8 11 12 14 15 15 17 15 17 18 15 14 10 2 6 6 3
16 17 18 19 20 22 18 20 15 11 9 7 10 5 4 4 4 8 7 7 2 1 2 2 4 8 7 9 10 11 13 15 15 16 16 19 17 13 18 14 20 9 6 7 4
15 17 18 19 21 16 21 19 14 12 10 8 8 5 3 4 5 6 6 4 3 2 2 3 5 6 8 8 5 10 13 14 18 15 17 16 20 22 14 14 18 9 8 7 4
15 18 19 18 15 14 20 18 14 10 9 8 8 4 2 3 3 6 7 5 3 2 1 6 5 7 9 7 6 12 12 13 9 17 18 15 19 15 15 18 20 14 9 6 9
14 17 19 20 17 12 17 15 12 10 10 11 7 5 3 3 5 7 8 6 7 4 4 8 5 8 3 4 6 9 8 12 17 16 14 17 18 21 22 16 20 8 8 8 8
12 15 19 26 20 13 20 17 15 13 12 7 3 3 2 2 7 4 4 4 5 7 5 7 4 3 3 4 5 5 8 7 15 15 14 18 15 19 19 17 19 7 7 9 8
10 11 17 24 29 26 25 15 4 4 6 4 5 3 6 6 4 4 6 5 5 7 11 11 4 9 12 14 16 16 17 18 20 12 11 15 13 27 15 7 7 9 7 5 8
7 7 11 12 25 26 19 2 3 4 5 8 4 2 1 1 2 6 6 3 6 10 8 4 12 13 13 10 14 16 15 16 19 8 10 6 14 21 14 9 9 10 9 8 5
6 7 6 5 16 20 6 5 5 5 3 4 6 3 2 5 2 2 9 2 4 8 9 8 4 4 7 11 16 13 15 13 9 11 9 14 16 19 16 7 7 8 4 3 3
4 7 8 11 10 8 3 5 5 6 3 3 5 4 5 1 1 4 6 1 3 3 3 7 8 9 9 13 13 13 7 9 9 7 7 12 5 12 8 6 7 7 8 6 6
6 13 23 11 10 6 1 7 3 3 3 4 4 3 4 2 2 4 10 4 3 2 3 2 3 3 6 8 8 8 6 14 12 6 11 13 1 4 4 7 5 2 2 6 5
7 8 10 10 7 3 6 4 2 2 2 2 4 5 4 6 3 6 4 1 2 3 6 6 3 3 4 12 8 6 6 1 3 5 4 2 2 2 4 5 3 7 6 7 7
8 11 8 9 2 6 6 2 1 2 3 3 3 3 5 4 6 7 6 4 2 3 1 3 3 3 7 7 1 4 2 3 0 2 2 6 6 1 9 8 4 3 4 6 7
10 10 9 8 10 7 3 2 4 4 2 2 2 4 4 1 2 2 7 3 7 1 3 4 3 4 3 3 3 4 3 3 3 2 2 6 5 5 8 5 3 3 2 4 6
22 18 9 6 8 2 3 2 3 4 1 3 3 5 5 4 3 4 6 5 4 5 1 3 4 4 10 9 5 4 3 2 3 5 3 4 1 10 13 16 11 9 9 9 10
16 14 9 4 2 4 2 5 3 3 4 3 2 3 4 4 4 2 3 5 4 3 1 5 4 4 6 3 4 6 6 1 2 3 4 3 5 4 10 11 12 13 12 10 3
11 3 6 3 2 3 2 4 5 4 5 5 6 1 4 3 4 3 6 3 6 5 5 3 3 3 3 5 5 5 5 4 1 2 1 3 4 7 14 10 11 13 11 10 9
5 4 2 4 2 3 4 3 3 4 2 3 4 6 6 5 5 3 4 5 7 6 5 3 4 2 2 3 2 5 6 5 3 7 5 5 5 6 10 10 12 11 10 10 8
3 2 4 5 2 2 2 3 3 4 5 6 4 5 4 4 2 5 4 4 5 5 5 5 4 3 3 2 2 5 9 6 2 2 6 4 3 7 9 9 8 11 11 10 10
3 2 1 2 5 3 0 2 3 2 1 4 2 5 2 4 4 4 4 1 5 3 4 3 5 4 2 2 3 5 10 10 4 5 10 7 9 7 8 8 8 8 7 8 8
1 2 3 2 3 4 3 4 2 3 0 3 1 7 5 5 3 4 4 1 4 2 2 4 3 4 3 4 1 5 7 12 11 7 7 9 11 6 6 7 7 7 7 9 9
2 2 3 1 4 4 2 1 1 2 6 4 6 6 10 6 6 5 6 5 4 7 3 3 1 1 1 6 3 6 8 8 9 11 12 11 7 6 5 5 6 6 7 7 8
4 3 3 1 3 3 4 3 2 2 2 3 8 3 6 4 6 4 2 0 1 5 6 4 1 2 2 4 6 1 4 6 5 5 1 5 5 6 5 4 5 6 7 8 9

GFSSW_925_spd_111.txt.gz
Wind_Speed
13 14 14 15 14 11 12 16 15 12 9 6 3 5 2 3 5 3 3 1 2 4 2 4 3 6 3 1 3 2 2 10 4 5 7 11 12 12 10 9 8 3 5 7 23
13 12 13 14 12 13 16 22 16 12 10 7 3 5 3 2 5 8 5 5 2 1 2 6 4 3 1 1 2 3 3 4 4 7 10 13 9 14 10 11 9 6 5 9 15
12 13 12 13 13 14 9 17 15 14 12 6 5 7 4 1 2 2 7 6 5 5 1 6 7 3 3 2 2 4 6 7 12 13 14 14 14 8 5 5 8 9 4 6 6
10 13 11 13 14 16 17 14 19 16 14 8 6 7 4 1 3 3 8 8 7 4 4 3 3 0 1 3 4 5 6 9 9 9 9 12 8 13 5 7 11 11 3 2 4
11 12 13 13 14 16 11 8 22 18 13 9 8 8 4 2 0 12 10 10 8 4 4 4 2 2 1 4 6 3 5 8 8 8 9 12 9 11 17 8 13 11 15 3 5
11 10 12 14 15 15 16 16 20 17 13 9 11 8 2 5 12 13 10 11 6 2 1 2 3 2 2 3 3 5 9 10 9 12 10 13 13 6 17 7 13 13 11 8 4
11 10 12 14 17 21 9 22 19 16 14 13 11 6 0 3 9 11 11 6 6 2 2 14 9 5 4 5 5 5 6 12 11 11 12 10 17 16 10 11 14 15 10 9 7
9 9 10 12 11 11 22 20 18 16 13 11 10 2 2 5 7 9 9 6 5 3 3 5 5 2 1 2 6 5 4 5 3 6 8 6 19 19 9 10 17 11 13 12 8
6 7 10 14 11 9 23 20 16 13 12 10 6 1 3 4 5 9 10 7 12 6 3 1 3 2 5 2 3 2 4 7 12 9 11 9 17 22 14 13 17 12 14 13 8
5 8 13 20 12 9 23 23 18 17 11 6 2 2 3 3 7 11 9 6 3 6 2 1 3 2 0 3 3 5 4 8 12 6 15 16 19 19 12 10 16 19 14 11 8
5 9 14 12 28 29 33 19 7 4 3 3 4 1 7 8 8 1 5 5 1 1 2 1 1 7 9 8 7 9 13 17 18 20 17 15 14 18 15 6 11 17 16 10 6
8 8 11 29 28 29 18 4 3 1 4 4 4 3 6 4 4 6 7 3 3 3 2 3 9 10 9 10 13 12 16 18 16 15 11 12 16 9 10 5 13 13 9 8 3
7 6 8 15 20 14 12 5 5 6 4 1 3 2 3 4 0 4 6 2 1 2 5 7 3 8 5 11 12 12 13 14 12 12 8 2 7 11 5 12 19 18 7 7 8
10 7 11 11 8 6 2 2 2 5 4 1 3 2 3 0 4 7 6 2 2 1 2 6 6 9 8 11 12 11 9 7 8 5 3 5 5 3 4 11 14 13 6 7 7
21 26 23 7 14 4 1 5 4 3 5 4 3 1 4 2 8 2 6 3 3 3 2 2 3 6 6 7 8 9 7 3 14 6 4 6 4 5 8 5 4 6 9 7 7
19 21 15 11 9 5 6 2 3 4 1 3 3 3 3 4 6 5 2 1 1 2 6 7 3 3 5 8 11 9 4 8 1 2 4 4 9 2 3 5 6 6 3 8 8
18 15 19 9 3 7 7 2 4 6 3 2 4 4 5 5 6 8 5 4 3 1 3 5 5 4 5 6 2 3 2 3 3 4 3 8 5 0 9 7 7 6 7 4 5
16 15 17 14 8 5 2 4 9 2 4 3 3 3 3 4 4 8 3 2 5 4 2 5 6 3 4 5 4 2 3 2 4 3 2 3 4 6 13 9 4 4 6 9 14
19 18 11 10 5 4 3 6 5 2 3 2 2 2 3 2 2 4 4 4 1 2 1 4 4 3 7 5 3 2 2 2 2 1 3 4 2 2 16 14 11 11 9 13 13
9 9 9 11 6 6 4 4 3 3 4 3 2 5 2 3 1 3 1 3 4 2 2 3 4 5 3 4 6 5 2 3 2 3 4 3 3 5 10 9 10 11 17 18 11
7 3 10 11 6 4 3 3 3 2 2 3 4 6 4 3 5 4 4 1 4 5 3 3 2 6 2 3 4 5 4 3 1 4 1 1 4 1 5 12 17 18 9 9 6
5 3 4 18 3 1 2 1 2 3 2 3 2 3 4 6 5 2 2 1 4 4 2 1 2 3 2 4 3 3 5 2 3 5 3 3 4 4 10 6 9 11 12 10 8
3 1 5 4 3 3 1 2 3 5 4 5 5 3 2 2 2 2 2 3 3 3 3 4 3 3 8 6 6 4 11 3 3 3 4 4 3 4 9 9 8 10 9 8 9
3 2 3 2 1 2 3 1 2 1 2 3 3 3 2 2 4 2 1 4 3 1 4 0 3 3 5 5 5 6 12 8 5 4 3 4 6 4 5 6 6 6 7 7 8
1 1 4 2 3 2 2 3 2 1 2 3 2 5 3 3 3 4 4 6 3 4 2 3 2 3 2 3 2 4 5 10 6 5 5 7 5 3 3 4 4 5 6 7 9
2 2 3 3 2 1 2 1 1 2 2 4 3 4 6 3 2 1 3 3 1 6 4 4 1 2 2 3 2 3 7 7 8 11 7 8 4 5 4 5 5 5 6 6 6
6 3 3 4 4 1 3 1 1 2 2 1 2 0 2 1 4 5 5 3 2 1 3 2 3 2 3 2 2 4 2 2 2 3 6 4 5 6 4 5 3 3 4 4 2

GFSSW_925_spd_114.txt.gz
Wind_Speed
9 11 10 10 12 10 9 9 17 14 12 9 5 4 4 1 3 3 3 2 2 1 2 5 5 4 2 2 2 2 1 4 4 4 4 7 7 2 3 5 6 10 6 9 16
7 9 8 8 10 9 9 10 20 16 13 10 6 6 4 0 3 2 3 4 5 1 4 6 4 4 2 2 2 3 2 4 3 3 4 7 5 10 6 7 2 9 19 9 7
8 8 7 7 9 10 10 7 21 16 14 11 7 7 5 1 3 1 5 4 4 7 6 4 5 3 2 2 2 2 4 3 6 7 8 7 7 5 4 2 4 4 7 11 2
7 8 7 7 9 12 12 9 12 20 17 12 8 10 5 2 4 2 5 5 6 8 7 7 5 2 2 1 3 3 4 3 4 5 5 5 5 8 7 9 7 7 5 6 10
10 7 6 6 10 11 10 9 20 21 18 12 11 11 5 3 2 10 9 8 8 7 8 4 4 2 0 3 5 2 4 7 6 7 7 7 5 7 17 8 8 8 6 6 9
9 8 5 7 10 11 12 8 21 21 16 13 14 10 2 4 10 11 11 8 6 6 6 6 3 1 2 2 1 4 5 7 5 9 7 8 11 4 7 6 11 9 12 8 7
7 6 4 6 11 16 11 13 25 19 13 14 14 7 4 5 9 11 9 6 6 7 7 10 5 5 1 3 4 5 6 9 7 5 6 3 15 16 11 12 14 11 13 11 8
5 4 2 6 7 11 21 27 22 19 14 14 11 6 4 5 13 12 8 10 6 1 5 4 5 2 1 2 6 5 2 4 4 2 5 7 12 11 10 8 17 9 10 10 12
3 2 2 5 5 3 30 27 24 18 16 14 9 5 2 4 8 9 9 6 5 3 1 2 3 1 3 2 3 2 4 5 7 1 4 6 9 11 11 10 17 17 9 8 11
5 3 5 2 8 30 27 26 22 20 16 9 8 5 1 3 6 7 8 4 3 3 3 3 4 2 3 3 3 4 4 6 8 3 13 17 23 17 16 12 15 16 12 8 10
7 8 8 21 29 32 35 26 8 5 4 4 2 3 4 6 7 5 5 4 3 2 2 2 3 5 8 8 3 2 7 14 17 18 15 18 23 20 19 10 10 12 11 9 9
12 21 28 33 38 25 11 5 4 5 7 4 2 4 5 4 2 1 5 2 2 2 2 3 7 8 7 8 7 8 15 19 15 13 7 13 20 22 19 11 13 12 10 8 8
11 17 24 24 19 16 16 9 4 5 6 4 1 2 2 3 1 5 4 2 2 2 4 6 5 5 4 9 12 14 14 15 14 13 13 13 11 7 3 5 6 6 7 6 9
16 18 17 20 8 7 5 6 2 2 5 2 1 1 1 2 4 3 3 2 2 3 2 6 5 8 7 10 9 13 8 14 14 7 3 3 5 5 6 6 6 8 7 7 8
19 13 14 3 13 4 2 5 1 2 5 3 2 2 2 2 7 2 2 3 2 4 3 3 3 6 5 6 6 10 4 9 7 10 4 2 2 5 8 8 8 8 8 8 8
20 16 16 12 8 5 6 2 1 5 1 3 3 2 0 2 4 2 1 2 2 3 6 8 5 4 4 7 12 11 7 9 2 2 2 5 4 1 5 9 13 7 9 7 8
16 13 8 6 3 5 4 3 4 6 3 2 3 4 4 5 6 7 5 4 4 2 3 1 3 3 5 7 4 4 2 3 2 1 3 3 3 3 12 17 7 7 10 10 5
13 16 20 17 8 5 3 5 8 2 4 2 4 4 3 5 5 6 2 3 7 3 2 5 7 3 5 5 3 4 2 2 4 3 3 2 3 3 10 7 6 8 11 11 14
6 12 17 20 8 7 4 6 5 3 2 1 1 0 3 3 3 5 5 3 1 2 2 4 5 4 8 6 7 2 2 2 3 2 3 3 3 4 14 16 14 17 13 6 11
5 5 9 16 10 6 4 4 2 3 2 1 1 3 2 3 1 4 3 2 3 0 3 2 4 6 5 2 6 6 3 1 2 4 3 4 3 5 12 10 10 10 5 10 13
3 3 6 16 7 4 4 1 1 3 1 2 1 1 2 2 3 3 3 1 1 3 4 1 2 6 2 1 3 3 4 2 3 2 3 3 3 5 6 5 5 7 9 10 10
3 3 11 17 4 2 2 2 2 3 2 1 1 2 0 2 3 1 1 3 1 2 2 2 2 4 7 3 3 3 4 2 3 1 2 3 1 8 9 4 2 7 12 13 13
2 1 7 8 3 3 2 2 2 5 3 4 3 1 1 1 2 1 1 3 3 1 2 1 2 4 8 6 6 4 6 4 2 3 1 3 1 4 4 3 6 9 10 10 11
3 4 4 4 1 2 2 2 3 2 3 3 3 3 3 5 4 2 3 2 2 2 2 1 2 3 4 5 3 7 13 7 3 4 2 1 5 2 3 6 6 6 7 8 7
3 1 3 3 4 3 2 1 1 3 3 4 3 5 3 3 3 4 3 5 3 6 2 2 1 2 4 5 3 2 6 10 6 3 3 6 6 5 5 5 3 4 5 6 6
3 3 3 2 4 6 5 2 0 0 3 3 3 5 5 2 0 2 3 3 2 6 5 3 1 2 3 5 4 3 4 6 6 5 6 4 1 4 4 5 4 4 4 5 5
2 3 3 3 2 3 3 4 4 3 0 2 1 2 3 3 2 4 4 6 5 2 2 2 3 2 3 5 5 6 4 2 1 2 6 4 6 5 5 5 4 4 3 3 4

GFSSW_925_spd_117.txt.gz
Wind_Speed
10 7 8 7 7 6 7 8 8 17 13 10 6 4 3 1 3 4 4 2 2 3 5 6 8 5 6 3 4 2 1 3 3 3 3 3 6 5 4 1 5 3 1 8 14
10 5 7 5 7 5 4 8 9 18 15 12 7 7 5 2 6 7 5 5 4 4 8 8 5 5 4 2 3 3 3 4 3 2 3 5 2 3 3 4 3 5 10 12 5
11 8 4 5 5 6 5 3 5 18 15 11 8 9 6 4 3 3 3 4 7 6 8 6 5 3 4 3 3 1 4 3 3 5 6 5 5 2 3 5 4 5 9 11 5
14 11 5 3 3 6 8 8 4 20 16 13 11 10 7 3 3 1 3 5 7 7 8 8 5 3 3 1 4 3 3 3 5 6 5 6 7 6 8 7 6 6 6 8 11
11 9 4 2 3 6 7 8 2 25 19 15 14 12 6 4 2 8 7 5 9 12 12 4 5 2 2 2 4 2 4 6 7 7 7 7 7 8 14 7 9 9 7 8 9
6 5 4 2 5 6 9 10 3 23 19 15 15 12 4 5 6 8 9 9 11 13 10 8 3 2 3 3 1 4 5 8 6 7 5 8 13 6 5 5 13 9 11 9 9
10 2 2 2 6 7 8 12 16 23 18 16 15 8 8 5 7 8 7 7 10 11 8 8 5 5 1 4 4 5 7 8 4 3 4 6 9 16 9 9 15 17 9 10 10
2 1 1 3 5 7 19 30 29 24 19 15 12 6 4 2 10 9 9 10 7 8 7 6 7 4 3 2 6 5 2 5 4 5 5 5 12 8 9 5 12 15 13 11 10
4 3 1 4 5 16 30 29 29 26 15 12 6 6 4 6 7 7 7 4 5 5 7 5 4 3 4 3 4 3 4 4 7 2 4 5 10 6 11 14 19 18 15 10 10
1 2 3 9 16 38 34 30 28 22 14 12 8 6 2 2 5 6 4 4 2 3 4 5 4 3 2 4 3 4 4 4 6 5 8 16 24 21 20 15 16 16 15 9 9
6 5 13 20 25 32 35 30 7 5 9 3 2 5 5 7 6 4 4 5 2 5 2 3 4 4 4 4 3 3 4 12 15 13 11 13 17 23 18 12 15 12 15 11 11
21 26 32 26 27 20 6 4 3 8 8 7 4 5 6 4 4 3 3 3 3 1 2 3 6 7 7 6 5 5 12 15 17 13 5 14 21 24 20 16 15 12 13 10 7
26 33 32 30 10 12 14 8 6 5 6 4 2 4 2 2 3 3 3 2 2 2 2 4 5 3 4 8 9 9 11 14 13 8 12 11 9 4 5 5 2 6 8 6 10
19 24 19 9 4 4 5 7 5 4 5 6 4 3 2 2 4 1 3 2 1 2 2 6 4 4 6 10 7 9 7 13 15 8 4 2 6 5 7 6 7 7 7 9 9
17 16 6 1 6 5 2 4 4 3 6 4 1 1 2 3 5 1 3 2 1 1 0 5 3 5 9 7 7 8 4 7 13 8 5 3 3 6 7 10 17 14 11 9 5
11 8 7 6 13 8 5 3 4 6 0 3 2 1 1 3 4 3 1 2 1 2 5 9 4 5 6 4 10 10 11 10 5 1 3 3 5 4 8 12 14 9 9 8 7
9 3 9 7 3 7 5 4 5 6 3 2 2 3 1 2 4 4 2 1 3 2 3 4 5 4 4 4 4 5 2 3 3 3 4 4 4 2 14 17 10 6 7 10 11
12 15 18 14 8 8 3 5 9 1 3 1 3 3 2 5 4 4 2 3 6 6 3 3 6 6 6 6 3 2 1 2 3 2 4 2 6 4 12 16 9 7 10 8 12
8 5 7 16 8 10 4 6 5 4 1 0 2 1 3 3 4 3 4 3 4 8 4 2 6 4 6 4 3 2 1 1 3 2 3 3 2 3 14 15 15 14 15 12 12
5 3 6 18 12 3 4 3 1 3 2 1 1 3 1 1 2 3 3 3 3 6 4 3 6 3 5 4 4 3 1 2 3 4 3 4 3 5 12 13 11 13 12 13 15
5 3 7 20 4 4 4 3 2 3 3 1 1 1 2 1 1 1 2 3 3 3 3 3 1 6 2 1 2 3 3 3 3 1 2 3 3 4 6 8 9 8 5 6 8
4 3 11 14 4 2 1 1 0 2 2 1 1 1 1 2 3 1 3 5 4 1 2 1 1 5 7 2 2 3 3 2 2 3 2 2 3 3 5 6 3 4 7 8 9
2 2 4 5 3 3 4 3 1 2 2 2 1 2 1 1 1 2 2 2 1 2 2 0 2 5 9 5 4 4 3 3 1 3 1 3 3 1 3 5 3 5 6 6 6
3 3 4 4 2 3 4 4 4 3 2 2 2 2 3 3 3 2 4 2 4 1 2 2 2 3 4 6 3 5 5 3 1 2 3 4 2 1 3 5 3 3 4 5 6
3 2 3 2 3 2 2 2 4 4 3 4 2 3 2 2 3 2 2 5 3 5 3 2 2 1 5 7 5 4 4 6 2 3 2 4 5 6 6 6 4 3 3 5 6
2 3 1 2 2 4 4 1 3 4 3 4 2 4 2 2 3 3 1 0 2 5 4 3 2 3 4 4 6 5 7 4 2 1 4 5 5 6 5 4 4 3 3 4 4
3 2 2 1 2 3 2 3 2 2 1 1 2 3 4 2 3 5 4 4 5 2 2 2 1 3 4 6 8 7 6 5 3 4 6 5 5 5 5 6 5 5 3 3 1